[[{"header":{"parameterUnit":"m.s-1","parameterCategory":1,"la1":30.6,"la2":28.766,"lo1":-90.7593,"lo2":-88.6598,"dy":0.0162,"dx":0.0183,"nx":116,"ny":114,"refTime":"2024-06-24T00:00:00:Z","depth":0,"parameterNumber":2,"parameterNumberName":"U-component_of_WINDS"},"data":[0.0,0.0,0.0,0.0,0.0,0.0,0.0,0.0,0.0,0.0,0.0,0.0,0.0,0.0,0.0,0.0,0.0,0.0,0.0,0.0,0.0,0.0,0.0,0.0,0.0,0.0,0.0,0.0,0.0,0.0,0.0,0.0,0.0,0.0,0.0,0.0,0.0,0.0,0.0,0.0,0.0,0.0,0.0,0.0,0.0,0.0,0.0,0.0,0.0,0.0,0.0,0.0,0.0,0.0,0.0,0.0,0.0,0.0,0.0,0.0,0.0,0.0,0.0,0.0,0.0,0.0,0.0,0.0,0.0,0.0,0.0,0.0,0.0,0.0,0.0,0.0,0.0,0.0,0.0,0.0,0.0,0.0,0.0,0.0,0.0,0.0,0.0,0.0,0.0,0.0,0.0,0.0,0.0,0.0,0.0,0.0,0.0,0.0,0.0,0.0,0.0,0.0,0.0,0.0,0.0,0.0,0.0,0.0,0.0,0.0,0.0,0.0,0.0,0.0,0.0,0.0,0.0,0.0,0.0,0.0,0.0,0.0,0.0,0.0,0.0,0.0,0.0,0.0,0.0,0.0,0.0,0.0,0.0,0.0,0.0,0.0,0.0,0.0,0.0,0.0,0.0,0.0,0.0,0.0,0.0,0.0,0.0,0.0,0.0,0.0,0.0,0.0,0.0,0.0,0.0,0.0,0.0,0.0,0.0,0.0,0.0,0.0,0.0,0.0,0.0,0.0,0.0,0.0,0.0,0.0,0.0,0.0,0.0,0.0,0.0,0.0,0.0,0.0,0.0,0.0,0.0,0.0,0.0,0.0,0.0,0.0,0.0,0.0,0.0,0.0,0.0,0.0,0.0,0.0,0.0,0.0,0.0,0.0,0.0,0.0,0.0,0.0,0.0,0.0,0.0,0.0,0.0,0.0,0.0,0.0,0.0,0.0,0.0,0.0,0.0,0.0,0.0,0.0,0.0,0.0,0.0,0.0,0.0,0.0,0.0,0.0,0.0,0.0,0.0,0.0,0.0,0.0,0.0,0.0,0.0,0.0,0.0,0.0,0.0,0.0,0.0,0.0,0.0,0.0,0.0,0.0,0.0,0.0,0.0,0.0,0.0,0.0,0.0,0.0,0.0,0.0,0.0,0.0,0.0,0.0,0.0,0.0,0.0,0.0,0.0,0.0,0.0,0.0,0.0,0.0,0.0,0.0,0.0,0.0,0.0,0.0,0.0,0.0,0.0,0.0,0.0,0.0,0.0,0.0,0.0,0.0,0.0,0.0,0.0,0.0,0.0,0.0,0.0,0.0,0.0,0.0,0.0,0.0,0.0,0.0,0.0,0.0,0.0,0.0,0.0,0.0,0.0,0.0,0.0,0.0,0.0,0.0,0.0,0.0,0.0,0.0,0.0,0.0,0.0,0.0,0.0,0.0,0.0,0.0,0.0,0.0,0.0,0.0,0.0,0.0,0.0,0.0,0.0,0.0,0.0,0.0,0.0,0.0,0.0,0.0,0.0,0.0,0.0,0.0,0.0,0.0,0.0,0.0,0.0,0.0,0.0,0.0,0.0,0.0,0.0,0.0,0.0,0.0,0.0,0.0,0.0,0.0,0.0,0.0,0.0,0.0,0.0,0.0,0.0,0.0,0.0,0.0,0.0,0.0,0.0,0.0,0.0,0.0,0.0,0.0,0.0,0.0,0.0,0.0,0.0,0.0,0.0,0.0,0.0,0.0,0.0,0.0,0.0,0.0,0.0,0.0,0.0,0.0,0.0,0.0,0.0,0.0,0.0,0.0,0.0,0.0,0.0,0.0,0.0,0.0,0.0,0.0,0.0,0.0,0.0,0.0,0.0,0.0,0.0,0.0,0.0,0.0,0.0,0.0,0.0,0.0,0.0,0.0,0.0,0.0,0.0,0.0,0.0,0.0,0.0,0.0,0.0,0.0,0.0,0.0,0.0,0.0,0.0,0.0,0.0,0.0,0.0,0.0,0.0,0.0,0.0,0.0,0.0,0.0,0.0,0.0,0.0,0.0,0.0,0.0,0.0,0.0,0.0,0.0,0.0,0.0,0.0,0.0,0.0,0.0,0.0,0.0,0.0,0.0,0.0,0.0,0.0,0.0,0.0,0.0,0.0,0.0,0.0,0.0,0.0,0.0,0.0,0.0,0.0,0.0,0.0,0.0,0.0,0.0,0.0,0.0,0.0,0.0,0.0,0.0,0.0,0.0,0.0,0.0,0.0,0.0,0.0,0.0,0.0,0.0,0.0,0.0,0.0,0.0,0.0,0.0,0.0,0.0,0.0,0.0,0.0,0.0,0.0,0.0,0.0,0.0,0.0,0.0,0.0,0.0,0.0,0.0,0.0,0.0,0.0,0.0,0.0,0.0,0.0,0.0,0.0,0.0,0.0,0.0,0.0,0.0,0.0,0.0,0.0,0.0,0.0,0.0,0.0,0.0,0.0,0.0,0.0,0.0,0.0,0.0,0.0,0.0,0.0,0.0,0.0,0.0,0.0,0.0,0.0,0.0,0.0,0.0,0.0,0.0,0.0,0.0,0.0,0.0,0.0,0.0,0.0,0.0,0.0,0.0,0.0,0.0,0.0,0.0,0.0,0.0,0.0,0.0,0.0,0.0,0.0,0.0,0.0,0.0,0.0,0.0,0.0,0.0,0.0,0.0,0.0,0.0,0.0,0.0,0.0,0.0,0.0,0.0,0.0,0.0,0.0,0.0,0.0,0.0,0.0,0.0,0.0,0.0,0.0,0.0,0.0,0.0,0.0,0.0,0.0,0.0,0.0,0.0,0.0,0.0,0.0,0.0,0.0,0.0,0.0,0.0,0.0,0.0,0.0,0.0,0.0,0.0,0.0,0.0,0.0,0.0,0.0,0.0,0.0,0.0,0.0,0.0,0.0,0.0,0.0,0.0,0.0,0.0,0.0,0.0,0.0,0.0,0.0,0.0,0.0,0.0,0.0,0.0,0.0,0.0,0.0,0.0,0.0,0.0,0.0,0.0,0.0,0.0,0.0,0.0,0.0,0.0,0.0,0.0,0.0,0.0,0.0,0.0,0.0,0.0,0.0,0.0,0.0,0.0,0.0,0.0,0.0,0.0,0.0,0.0,0.0,0.0,0.0,0.0,0.0,0.0,0.0,0.0,0.0,0.0,0.0,0.0,0.0,0.0,0.0,0.0,0.0,0.0,0.0,0.0,0.0,0.0,0.0,0.0,0.0,0.0,0.0,0.0,0.0,0.0,0.0,0.0,0.0,0.0,0.0,0.0,0.0,0.0,0.0,0.0,0.0,0.0,0.0,0.0,0.0,0.0,0.0,0.0,0.0,0.0,0.0,0.0,0.0,0.0,0.0,0.0,0.0,0.0,0.0,0.0,0.0,0.0,0.0,0.0,0.0,0.0,0.0,0.0,0.0,0.0,0.0,0.0,0.0,0.0,0.0,0.0,0.0,0.0,0.0,0.0,0.0,0.0,0.0,0.0,0.0,0.0,0.0,0.0,0.0,0.0,0.0,0.0,0.0,0.0,0.0,0.0,0.0,0.0,0.0,0.0,0.0,0.0,0.0,0.0,0.0,0.0,0.0,0.0,0.0,0.0,0.0,0.0,0.0,0.0,0.0,0.0,0.0,0.0,0.0,0.0,0.0,0.0,0.0,0.0,0.0,0.0,0.0,0.0,0.0,0.0,0.0,0.0,0.0,0.0,0.0,0.0,0.0,0.0,0.0,0.0,0.0,0.0,0.0,0.0,0.0,0.0,0.0,0.0,0.0,0.0,0.0,0.0,0.0,0.0,0.0,0.0,0.0,0.0,0.0,0.0,0.0,0.0,0.0,0.0,0.0,0.0,0.0,0.0,0.0,0.0,0.0,0.0,0.0,0.0,0.0,0.0,0.0,0.0,0.0,0.0,0.0,0.0,0.0,0.0,0.0,0.0,0.0,0.0,0.0,0.0,0.0,0.0,0.0,0.0,0.0,0.0,0.0,0.0,0.0,0.0,0.0,0.0,0.0,0.0,0.0,0.0,0.0,0.0,0.0,0.0,0.0,0.0,0.0,0.0,0.0,0.0,0.0,0.0,0.0,0.0,0.0,0.0,0.0,0.0,0.0,0.0,0.0,0.0,0.0,0.0,0.0,0.0,0.0,0.0,0.0,0.0,0.0,0.0,0.0,0.0,0.0,0.0,0.0,0.0,0.0,0.0,0.0,0.0,0.0,0.0,0.0,0.0,0.0,0.0,0.0,0.0,0.0,0.0,0.0,0.0,0.0,0.0,0.0,0.0,0.0,0.0,0.0,0.0,0.0,0.0,0.0,0.0,0.0,0.0,0.0,0.0,0.0,0.0,0.0,0.0,0.0,0.0,0.0,0.0,0.0,0.0,0.0,0.0,0.0,0.0,0.0,0.0,0.0,0.0,0.0,0.0,0.0,0.0,0.0,0.0,0.0,0.0,0.0,0.0,0.0,0.0,0.0,0.0,0.0,0.0,0.0,0.0,0.0,0.0,0.0,0.0,0.0,0.0,0.0,0.0,0.0,0.0,0.0,0.0,0.0,0.0,0.0,0.0,0.0,0.0,0.0,0.0,0.0,0.0,0.0,0.0,0.0,0.0,0.0,0.0,0.0,0.0,0.0,0.0,0.0,0.0,0.0,0.0,0.0,0.0,0.0,0.0,0.0,0.0,0.0,0.0,0.0,0.0,0.0,0.0,0.0,0.0,0.0,0.0,0.0,0.0,0.0,0.0,0.0,0.0,0.0,0.0,0.0,0.0,0.0,0.0,0.0,0.0,0.0,0.0,0.0,0.0,0.0,0.0,0.0,0.0,0.0,0.0,0.0,0.0,0.0,0.0,0.0,0.0,0.0,0.0,0.0,0.0,0.0,0.0,0.0,0.0,0.0,0.0,0.0,0.0,0.0,0.0,0.0,0.0,0.0,0.0,0.0,0.0,0.0,0.0,0.0,0.0,0.0,0.0,0.0,0.0,0.0,0.0,0.0,0.0,0.0,0.0,0.0,0.0,0.0,0.0,0.0,0.0,0.0,0.0,0.0,0.0,0.0,0.0,0.0,0.0,0.0,0.0,0.0,0.0,0.0,0.0,0.0,0.0,0.0,0.0,0.0,0.0,0.0,0.0,0.0,0.0,0.0,0.0,0.0,0.0,0.0,0.0,0.0,0.0,0.0,0.0,0.0,0.0,0.0,0.0,0.0,0.0,0.0,0.0,0.0,0.0,0.0,0.0,0.0,0.0,0.0,0.0,0.0,0.0,0.0,0.0,0.0,0.0,0.0,0.0,0.0,0.0,0.0,0.0,0.0,0.0,0.0,0.0,0.0,0.0,0.0,0.0,0.0,0.0,0.0,0.0,0.0,0.0,0.0,0.0,0.0,0.0,0.0,0.0,0.0,0.0,0.0,0.0,0.0,0.0,0.0,0.0,0.0,0.0,0.0,0.0,0.0,0.0,0.0,0.0,0.0,0.0,0.0,0.0,0.0,0.0,0.0,0.0,0.0,0.0,0.0,0.0,0.0,0.0,0.0,0.0,0.0,0.0,0.0,0.0,0.0,0.0,0.0,0.0,0.0,0.0,0.0,0.0,0.0,0.0,0.0,0.0,0.0,0.0,0.0,0.0,0.0,0.0,0.0,0.0,0.0,0.0,0.0,0.0,0.0,0.0,0.0,0.0,0.0,0.0,0.0,0.0,0.0,0.0,0.0,0.0,0.0,0.0,0.0,0.0,0.0,0.0,0.0,0.0,0.0,0.0,0.0,0.0,0.0,0.0,0.0,0.0,0.0,0.0,0.0,0.0,0.0,0.0,0.0,0.0,0.0,0.0,0.0,0.0,0.0,0.0,0.0,0.0,0.0,0.0,0.0,0.0,0.0,0.0,0.0,0.0,0.0,0.0,0.0,0.0,0.0,0.0,0.0,0.0,0.0,0.0,0.0,0.0,0.0,0.0,0.0,0.0,0.0,0.0,0.0,0.0,0.0,0.0,0.0,0.0,0.0,0.0,0.0,0.0,0.0,0.0,0.0,0.0,0.0,0.0,0.0,0.0,0.0,0.0,0.0,0.0,0.0,0.0,0.0,0.0,0.0,0.0,0.0,0.0,0.3751,0.0,0.0,0.0,0.0,0.0,0.0,0.0,0.0,0.0,0.0,0.0,0.0,0.0,0.0,0.0,0.0,0.0,0.0,0.0,0.0,0.0,0.0,0.0,0.0,0.087,0.1116,0.1753,0.069,-0.0,-0.0,-0.0,0.0,0.0,-0.0,-0.0,-0.0,0.1188,0.1789,0.1812,0.1812,0.1946,0.2238,0.2238,0.2074,0.1781,0.0,0.0,0.0,0.0,0.0,0.0,0.0,0.0,0.0,0.0,0.0,0.0,0.0,0.0,0.0,0.0,0.0,0.0,0.0,0.0,0.0,0.0,0.0,0.0,0.0,0.0,0.0,0.0,0.0,0.0,0.0,0.0,0.0,0.0,0.0,0.0,0.0,0.0,0.0,0.0,0.0,0.0,0.0,0.0,0.0,0.0,0.0,0.0,0.0,0.0,0.0,0.0,0.0,0.0,0.0,0.0,0.0,0.0,0.0,0.0,0.0,0.0,0.0,0.0,0.0,0.0,0.0,0.0,0.0,0.0,0.435,0.4046,0.0,0.0,0.0,0.0,0.0,0.0,0.0,0.0,0.0,0.0,0.0,0.0,0.0,0.0,0.0,0.0,0.0,0.0,0.0,0.0,0.0,0.1798,0.1798,0.1798,0.1708,0.1502,0.0579,-0.0,-0.0,-0.0,-0.0,-0.0,-0.0,-0.0,-0.0,0.1183,0.1805,0.1796,0.181,0.2113,0.2698,0.2686,0.2428,0.1971,0.1969,0.0,0.0,0.0,0.0,0.0,0.0,0.0,0.0,0.0,0.0,0.0,0.0,0.0,0.0,0.0,0.0,0.0,0.0,0.0,0.0,0.0,0.0,0.0,0.0,0.0,0.0,0.0,0.0,0.0,0.0,0.0,0.0,0.0,0.0,0.0,0.0,0.0,0.0,0.0,0.0,0.0,0.0,0.0,0.0,0.0,0.0,0.0,0.0,0.0,0.0,0.0,0.0,0.0,0.0,0.0,0.0,0.0,0.0,0.0,0.0,0.0,0.0,0.0,0.522,0.5369,0.5586,0.5586,0.5586,0.5559,0.5054,0.4789,0.4785,0.4487,0.0,0.0,0.0,0.0,0.0,0.0,0.0,0.0,0.0,0.0,0.0,0.0,0.0,0.0,0.0,0.0,0.0,0.0,0.0,0.1798,0.1798,0.1798,0.1388,0.0334,0.0089,-0.0,-0.0,-0.0,-0.0,-0.0,-0.0,-0.0,-0.0,0.1177,0.1803,0.1796,0.1805,0.2117,0.2688,0.2716,0.2667,0.2566,0.2574,0.1716,0.0229,0.0,0.0,0.0,0.0,0.0,0.0,0.0,0.0,0.0,0.0,0.0,0.0,0.0,0.0,0.0,0.0,0.0,0.0,0.0,0.0,0.0,0.0,0.0,0.0,0.0,0.0,0.0,0.0,0.0,0.0,0.0,0.0,0.0,0.0,0.0,0.0,0.0,0.0,0.0,0.0,0.0,0.3127,0.3453,0.0,0.0,0.0,0.0,0.0,0.0,0.0,0.0,0.0,0.0,0.0,0.0,0.0,0.4945,0.5182,0.5376,0.5545,0.5688,0.584,0.5993,0.6218,0.6218,0.6218,0.6215,0.6132,0.0,0.525,0.4952,0.0,0.0,0.0,0.0,0.0,0.0,0.0,0.0,0.0,0.0,0.0,0.0,0.0,0.0,0.0,0.0,0.0,0.0,0.0,0.0,0.0,0.079,0.0572,0.0048,-0.0,-0.0,-0.0,-0.0,-0.0,-0.0,-0.0,-0.0,-0.0,0.051,0.0792,0.0787,0.078,0.0928,0.1197,0.1191,0.1194,0.1165,0.1194,0.0743,-0.0,-0.0,0.0,0.0,0.0,0.0,0.0,0.0,0.0,0.0,0.0,0.0,0.0,0.0,0.0,0.0,0.0,0.0,0.0,0.0,0.0,0.0,0.0,0.0,0.0,0.0,0.0,0.0,0.0,0.0,0.0,0.0,0.0,0.0,0.0,0.0,0.0,0.0,0.0,0.0,0.0,0.3107,0.349,0.3792,0.3768,0.3644,0.0,0.0,0.0,0.0,0.0,0.0,0.0,0.0,0.0,0.5284,0.5372,0.5518,0.5735,0.5969,0.6118,0.6179,0.6332,0.6444,0.6508,0.6508,0.6508,0.6508,0.6508,0.6359,0.6078,0.561,0.5416,0.5386,0.0,0.0,0.0,0.0,0.5098,0.5118,0.0,0.0,0.0,0.0,0.0,0.0,0.0,0.0,0.0,0.0,0.0,0.0,-0.0,-0.0,-0.0,-0.0,-0.0,-0.0,-0.0,-0.0,-0.0,-0.0,-0.0,-0.0,-0.0,-0.0,-0.0,-0.0,-0.0,-0.0,-0.0,-0.0,-0.0,-0.0,-0.0,-0.0,0.0044,0.0665,0.1704,0.2881,0.0,0.0,0.0,0.0,0.0,0.0,0.0,0.0,0.0,0.0,0.0,0.0,0.0,0.0,0.0,0.0,0.0,0.0,0.0,0.0,0.0,0.0,0.0,0.0,0.0,0.0,0.0,0.0,0.0,0.0,0.0,0.0,0.0,0.0,0.0,0.0,0.0,0.3534,0.3846,0.4104,0.4168,0.4131,0.0,0.0,0.0,0.0,0.0,0.0,0.5131,0.5281,0.5501,0.5806,0.5918,0.6047,0.62,0.642,0.6549,0.659,0.6705,0.6776,0.6814,0.6854,0.6871,0.6875,0.6915,0.6929,0.6881,0.6237,0.5973,0.5949,0.5691,0.5658,0.5676,0.5718,0.5762,0.5793,0.0,0.0,0.0,0.0,0.0,0.0,0.0,0.0,0.0,0.0,0.0,-0.0,-0.0,-0.0,-0.0,-0.0,-0.0,-0.0,-0.0,-0.0,-0.0,-0.0,-0.0,-0.0,-0.0,-0.0,-0.0,-0.0,-0.0,-0.0,-0.0,-0.0,-0.0,-0.0,-0.0,-0.0,0.0149,0.2449,0.3453,0.3522,0.2894,0.0,0.0,0.0,0.0,0.0,0.0,0.0,0.0,0.0,0.0,0.0,0.0,0.0,0.0,0.0,0.0,0.0,0.0,0.0,0.0,0.0,0.0,0.0,0.0,0.0,0.0,0.0,0.0,0.0,0.0,0.0,0.0,0.0,0.0,0.0,0.0,0.0,0.0,0.4477,0.4568,0.0,0.0,0.0,0.0,0.4874,0.5284,0.5599,0.5749,0.5901,0.6118,0.642,0.6434,0.6512,0.6664,0.6681,0.6763,0.6905,0.6912,0.6987,0.7122,0.7272,0.7339,0.7346,0.7492,0.7553,0.7495,0.6746,0.6437,0.6424,0.6274,0.629,0.6294,0.6224,0.6227,0.623,0.0,0.0,0.0,-0.0,-0.0,-0.0,-0.0,-0.0,-0.0,-0.0,-0.0,-0.0,-0.0,-0.0,-0.0,-0.0,-0.0,-0.0,-0.0,-0.0,-0.0,-0.0,0.111,0.1744,0.173,0.0604,-0.0,-0.0,-0.0,-0.0,-0.0,-0.0,-0.0,-0.0,-0.0,-0.0,0.0054,0.0924,0.1306,0.1398,0.2742,0.308,0.0,0.0,0.0,0.0,0.0,0.0,0.0,0.0,0.0,0.0,0.0,0.0,0.0,0.0,0.0,0.0,0.0,0.0,0.0,0.0,0.0,0.0,0.0,0.0,0.0,0.0,0.0,0.0,0.0,0.0,0.0,0.0,0.0,0.0,0.0,0.0,0.0,0.4863,0.5026,0.0,0.5109,0.523,0.5389,0.5481,0.582,0.6084,0.6224,0.6376,0.6556,0.6759,0.6854,0.6976,0.7132,0.7231,0.7305,0.736,0.736,0.7387,0.7438,0.7492,0.7519,0.7519,0.7577,0.76,0.758,0.7309,0.7139,0.7037,0.6885,0.6827,0.6827,0.6827,0.6888,0.6976,-0.0,-0.0,0.0,-0.0,-0.0,-0.0,-0.0,-0.0,-0.0,-0.0,-0.0,-0.0,-0.0,-0.0,-0.0,-0.0,-0.0,-0.0,-0.0,-0.0,0.0369,0.1169,0.2368,0.2995,0.299,0.2016,0.1538,0.1541,0.0478,-0.0,-0.0,-0.0,-0.0,-0.0,-0.0,-0.0,-0.0,-0.0,-0.0,0.0147,0.1726,0.2504,0.2694,0.0,0.0,0.0,0.0,0.0,0.0,0.0,0.0,0.0,0.0,0.0,0.0,0.0,0.0,0.0,0.0,0.0,0.0,0.0,0.0,0.0,0.0,0.0,0.0,0.0,0.0,0.0,0.0,0.0,0.0,0.0,0.0,0.0,0.0,0.0,0.4931,0.5179,0.5433,0.5566,0.5515,0.5739,0.5928,0.602,0.6312,0.6549,0.6692,0.6844,0.6997,0.7149,0.7248,0.7343,0.7448,0.755,0.76,0.76,0.76,0.76,0.76,0.7648,0.7672,0.7675,0.7726,0.7746,0.7746,0.7746,0.7689,0.7577,0.7373,0.7295,0.7295,0.7295,0.736,0.7448,-0.0,-0.0,-0.0,-0.0,-0.0,-0.0,-0.0,-0.0,-0.0,-0.0,-0.0,-0.0,-0.0,-0.0,-0.0,-0.0,-0.0,0.0034,0.0067,0.0096,0.1114,0.3463,0.3603,0.359,0.3636,0.4193,0.4496,0.451,0.1486,-0.0,-0.0,-0.0,-0.0,-0.0,-0.0,-0.0,-0.0,-0.0,-0.0,-0.0,-0.0,0.0715,0.1842,0.0,0.0,0.0,0.0,0.0,0.0,0.0,0.0,0.0,0.0,0.0,0.0,0.0,0.0,0.0,0.0,0.0,0.0,0.0,0.0,0.0,0.0,0.0,0.0,0.0,0.0,0.0,0.0,0.0,0.0,0.0,0.0,0.0,0.4546,0.487,0.5209,0.5435,0.5776,0.5986,0.5844,0.6227,0.6488,0.6491,0.6773,0.7004,0.7146,0.7295,0.7448,0.7594,0.7604,0.7607,0.7607,0.7611,0.7614,0.7614,0.7614,0.7614,0.7617,0.7756,0.7818,0.7828,0.7974,0.8038,0.8038,0.8038,0.8038,0.8011,0.7726,0.7614,0.7614,0.7614,0.7614,0.7614,-0.0,-0.0,-0.0,-0.0,-0.0,-0.0,-0.0,-0.0,-0.0,-0.0,-0.0,-0.0,-0.0,-0.0,-0.0,-0.0,-0.0,0.0571,0.1856,0.1966,0.2261,0.2908,0.3353,0.3809,0.4224,0.4426,0.4502,0.4508,0.1503,-0.0,-0.0,-0.0,-0.0,-0.0,-0.0,-0.0,-0.0,-0.0,-0.0,-0.0,-0.0,0.0207,0.0512,0.0,0.0,0.0,0.0,0.0,0.0,0.0,0.0,0.0,0.0,0.0,0.0,0.0,0.0,0.0,0.0,0.0,0.0,0.0,0.0,0.0,0.0,0.0,0.0,0.0,0.0,0.0,0.0,0.0,0.0,0.0,0.4834,0.5178,0.5178,0.5406,0.5715,0.5983,0.6213,0.638,0.6447,0.6664,0.6848,0.6949,0.7139,0.7316,0.7465,0.7512,0.7556,0.7597,0.7699,0.7753,0.7753,0.7865,0.7919,0.7919,0.7919,0.7919,0.7919,0.796,0.7977,0.798,0.8021,0.8038,0.8038,0.8038,0.8038,0.8031,0.795,0.7919,0.7919,0.7919,0.7919,0.7919,-0.0,-0.0,-0.0,-0.0,-0.0,-0.0,-0.0,-0.0,-0.0,-0.0,-0.0,-0.0,-0.0,-0.0,-0.0,-0.0,-0.0,0.0758,0.2572,0.2692,0.2806,0.3049,0.3676,0.415,0.4485,0.3289,0.2632,0.2635,0.0838,-0.0671,-0.1906,-0.1906,-0.1512,-0.0895,-0.028,-0.0,-0.0,-0.0,-0.0,-0.0,-0.0,-0.0,-0.0,-0.0,0.085,0.2043,0.1678,0.0889,-0.0,-0.0,0.0,0.0,0.0,0.0,0.0,0.0,0.0,0.0,0.0,0.0,0.0,0.0,0.0,0.0,0.0,0.0,0.0,0.0,0.0,0.0,0.0,0.0,0.0,0.0,0.5247,0.5664,0.5728,0.5888,0.6108,0.641,0.6573,0.6722,0.6871,0.7024,0.7173,0.7322,0.7417,0.7533,0.7682,0.7689,0.7719,0.7784,0.7865,0.7906,0.7906,0.7994,0.8038,0.8038,0.8038,0.8038,0.8038,0.8038,0.8038,0.8038,0.8038,0.8038,0.8038,0.8038,0.8038,0.8038,0.0,0.0,0.0,0.0,0.8038,0.8038,-0.0,-0.0,-0.0,-0.0,-0.0,-0.0,-0.0,-0.0,-0.0,-0.0,-0.0,-0.0,-0.0,-0.0,-0.0,-0.0,-0.0,0.0751,0.2583,0.2753,0.3057,0.3557,0.3872,0.4002,0.3975,0.1374,-0.0,-0.0,-0.0,-0.1567,-0.4514,-0.4514,-0.3766,-0.24,-0.1065,-0.0337,-0.0,-0.0,-0.0,-0.0,-0.0,-0.0,-0.0,-0.0,-0.0,-0.0,-0.0,-0.0,0.0049,0.039,0.0,0.0,0.0,0.0,0.0,0.0,0.0,0.0,0.0,0.0,0.0,0.0,0.0,0.0,0.0,0.0,0.0,0.0,0.0,0.0,0.0,0.0,0.0,0.0,0.5694,0.6122,0.6308,0.6335,0.6434,0.6695,0.6861,0.7007,0.7153,0.7305,0.7458,0.7611,0.7624,0.7685,0.7828,0.0,0.0,0.0,0.0,0.8038,0.8038,0.8038,0.8038,0.8038,0.8038,0.8038,0.8038,0.8038,0.8038,0.8038,0.8038,0.8038,0.8038,0.8038,0.8038,0.8038,0.8038,0.8038,0.8038,0.8038,0.8038,0.8038,-0.0,-0.0,-0.0,-0.0,-0.0,-0.0,-0.0,-0.0,-0.0,-0.0,-0.0,-0.0,-0.0,-0.0,-0.0,-0.0,-0.0,0.0775,0.2595,0.3149,0.3463,0.3615,0.1854,0.0847,0.0885,0.0278,-0.0,-0.0,-0.0,-0.1569,-0.4514,-0.4524,-0.4347,-0.4054,-0.3768,-0.2281,-0.0,-0.0,-0.0,-0.0,-0.0,-0.0,-0.0,-0.0,-0.0,-0.0,-0.0,-0.0,0.0381,0.2782,0.3632,0.3397,0.2172,0.1764,0.0,0.0,0.0,0.0,0.0,0.0,0.0,0.0,0.0,0.0,0.0,0.0,0.0,0.0,0.0,0.0,0.0,0.0,0.0,0.5762,0.6057,0.6352,0.6746,0.68,0.682,0.6878,0.701,0.716,0.7312,0.7465,0.7614,0.776,0.777,0.7834,0.7987,0.7994,0.8011,0.8038,0.8038,0.8038,0.8038,0.8038,0.8038,0.8038,0.8038,0.0,0.8038,0.8038,0.8038,0.8038,0.8038,0.8038,0.8038,0.8038,0.8038,0.8038,0.8038,0.8038,0.8038,0.8038,0.8038,0.8038,-0.0,-0.0,-0.0,-0.0,-0.0,-0.0,-0.0,-0.0,-0.0,-0.0,-0.0,-0.0,-0.0,-0.0,-0.0,-0.0,-0.0,0.0878,0.3004,0.343,0.3044,0.1852,0.0619,-0.0,-0.0,-0.0,-0.0,-0.0,-0.0,-0.0784,-0.2296,-0.3775,-0.4094,-0.3395,-0.4173,-0.3641,-0.2174,-0.0613,-0.0,-0.0,-0.0,-0.0,-0.0,-0.0,-0.0,-0.0,-0.0,0.0953,0.2469,0.3999,0.4515,0.4365,0.3568,0.3326,0.3343,0.0,0.0,0.0,0.0,0.0,0.0,0.0,0.0,0.0,0.0,0.0,0.0,0.0,0.0,0.4766,0.5277,0.0,0.5728,0.6179,0.6444,0.6675,0.6898,0.7058,0.7149,0.7149,0.7214,0.7343,0.757,0.7658,0.7767,0.7916,0.7926,0.796,0.8035,0.8038,0.8038,0.8038,0.8038,0.8038,0.8038,0.8038,0.8038,0.8038,0.8038,0.8038,0.8038,0.8038,0.8038,0.8038,0.8038,0.8038,0.8038,0.8038,0.8038,0.8038,0.8038,0.8038,0.8038,0.8038,0.8038,0.8038,-0.0,-0.0,-0.0,-0.0,-0.0,-0.0,-0.0,-0.0,-0.0,-0.0,-0.0,-0.0,-0.0,-0.0,-0.0,-0.0,-0.0,0.0837,0.2761,0.2896,0.2031,0.0101,-0.0,-0.0,-0.0,-0.0,-0.0,-0.0,-0.0,-0.0,-0.0056,-0.2465,-0.3303,-0.2677,-0.3313,-0.3628,-0.3468,-0.1062,-0.0,-0.0,-0.0,-0.0,0.006,0.0632,0.0902,0.0897,0.0897,0.2244,0.4107,0.4392,0.4501,0.4473,0.4509,0.4524,0.4495,0.4452,0.4204,0.0,0.0,0.0,0.0,0.0,0.0,0.0,0.0,0.0,0.4802,0.5018,0.5189,0.5403,0.5719,0.5966,0.6143,0.6515,0.6716,0.6903,0.701,0.7248,0.7428,0.7458,0.7458,0.755,0.7787,0.7838,0.7906,0.8031,0.8038,0.8038,0.8038,0.8038,0.8038,0.8038,0.8038,0.8038,0.8038,0.8038,0.8038,0.8038,0.8038,0.8038,0.8038,0.8038,0.8038,0.8038,0.8038,0.8038,0.8038,0.8038,0.8038,0.8038,0.8038,0.8038,0.8038,0.8038,0.8038,0.8038,-0.0,-0.0,-0.0,-0.0,-0.0,-0.0,-0.0,-0.0,-0.0,-0.0,-0.0,-0.0,-0.0,-0.0,-0.0,-0.0,-0.0,0.0113,0.0375,0.0421,0.03,-0.0,-0.0,-0.0,-0.0,-0.0,-0.0,-0.0,-0.0,-0.0,-0.0,-0.0336,-0.1855,-0.4144,-0.1617,-0.0492,-0.0496,-0.0131,-0.0,-0.0,-0.0,-0.0,0.0318,0.3002,0.3989,0.3999,0.3999,0.3309,0.2681,0.403,0.4484,0.4477,0.4505,0.4498,0.4467,0.427,0.0,0.4147,0.4147,0.429,0.4477,0.4579,0.4731,0.4948,0.0,0.0,0.5634,0.5599,0.5741,0.5893,0.5836,0.6045,0.6394,0.6675,0.6783,0.6847,0.7305,0.7379,0.7445,0.7677,0.7677,0.7773,0.7807,0.7933,0.8021,0.8038,0.8038,0.8038,0.8038,0.8038,0.8038,0.8038,0.8038,0.8038,0.8038,0.8038,0.8038,0.8038,0.8038,0.8038,0.8038,0.8038,0.8038,0.8038,0.8038,0.8038,0.8038,0.8038,0.8038,0.8038,0.8038,0.8038,0.8038,0.8038,0.8038,0.8038,-0.0,-0.0,-0.0,-0.0,-0.0,-0.0,-0.0,-0.0,-0.0,-0.0,-0.0,-0.0,-0.0,-0.0,-0.0,-0.0,-0.0,-0.0,-0.0,-0.0,-0.0,-0.0,-0.0,-0.0,-0.0,-0.0,-0.0,-0.0,-0.0,-0.0,-0.0,-0.0,-0.068,-0.185,-0.0545,-0.0,-0.0,-0.0,-0.0,-0.0,-0.0,-0.0,0.0314,0.3371,0.4481,0.4504,0.4504,0.4095,0.0,0.4307,0.4473,0.4525,0.4519,0.4519,0.4505,0.4392,0.4436,0.0,0.4656,0.4806,0.4887,0.0,0.5196,0.5379,0.565,0.5761,0.5796,0.6032,0.5137,0.4267,0.4199,0.435,0.4517,0.0,0.6054,0.6531,0.5337,0.6532,0.7563,0.7627,0.6418,0.6184,0.7756,0.8011,0.8038,0.8038,0.8038,0.8038,0.8038,0.8038,0.8038,0.8038,0.8038,0.8038,0.8038,0.8038,0.8038,0.8038,0.8038,0.8038,0.8038,0.8038,0.8038,0.8038,0.8038,0.8038,0.8038,0.8038,0.8038,0.8038,0.8038,0.8038,0.8038,0.8038,0.8038,0.8038,-0.0,-0.0,-0.0,-0.0,-0.0,-0.0,-0.0,-0.0,-0.0,-0.0,-0.0,-0.0,-0.0,-0.0,-0.0,-0.0,-0.0,-0.0,-0.0,-0.0,-0.0,-0.0,-0.0,-0.0,-0.0,-0.0,-0.0,-0.0,-0.0,-0.0,-0.0,-0.0,-0.0,-0.0,-0.0,-0.0,-0.0,-0.0,-0.0,-0.0,-0.0,-0.0,0.0312,0.3352,0.4496,0.4495,0.4507,0.4484,0.4525,0.4488,0.4494,0.4512,0.4529,0.4488,0.4525,0.457,0.4633,0.4799,0.5013,0.0,0.0,0.5322,0.554,0.5666,0.5768,0.5904,0.6054,0.626,0.5142,0.378,0.2529,0.2215,0.2342,0.2571,0.4036,0.4769,0.373,0.5955,0.7634,0.7674,0.5749,0.5321,0.7759,0.7959,0.8045,0.8038,0.8038,0.8038,0.8038,0.8038,0.8038,0.8038,0.8038,0.8038,0.8038,0.8038,0.8041,0.8048,0.8048,0.7972,0.8016,0.8012,0.8029,0.8066,0.8123,0.8126,0.816,0.816,0.816,0.816,0.816,0.816,0.8157,0.8116,0.8075,0.8038,-0.0,-0.0,-0.0,-0.0,-0.0,-0.0,-0.0,-0.0,-0.0,-0.0,-0.0,-0.0,-0.0,-0.0,-0.0,-0.0,-0.0,-0.0,-0.0,-0.0,-0.0,-0.0,-0.0,-0.0,-0.0,-0.0,-0.0,-0.0,-0.0,-0.0,-0.0,-0.0,-0.0,-0.0,-0.0,-0.0,-0.0,-0.0,-0.0,-0.0,-0.0,-0.0,0.0321,0.3379,0.4496,0.4516,0.4478,0.4473,0.4498,0.452,0.4513,0.4494,0.4517,0.4516,0.0,0.464,0.4792,0.4914,0.0,0.0,0.5132,0.5349,0.5571,0.5811,0.5814,0.6217,0.6605,0.6359,0.6656,0.5576,0.0987,0.009,0.009,0.0092,0.0188,0.1054,0.3312,0.5889,0.7733,0.7962,0.6429,0.6007,0.7869,0.7979,0.7962,0.8041,0.8038,0.8038,0.8038,0.8038,0.8038,0.8038,0.8038,0.8038,0.8038,0.8038,0.7952,0.7972,0.7972,0.7951,0.7997,0.7984,0.8157,0.8279,0.8333,0.834,0.8469,0.8469,0.8469,0.8469,0.8469,0.8469,0.8452,0.8316,0.817,0.8038,-0.0,-0.0,-0.0,-0.0,-0.0,-0.0,-0.0,-0.0,-0.0,-0.0,-0.0,0.0,0.0,0.0,0.0,0.0,-0.0,-0.0,-0.0,-0.0,-0.0,-0.0,-0.0,-0.0,-0.0,-0.0,-0.0,-0.0,-0.0,-0.0,-0.0,-0.0,-0.0,-0.0,-0.0,-0.0,-0.0,-0.0,-0.0,-0.0,-0.0,-0.0,0.0125,0.1148,0.2777,0.4481,0.0,0.4495,0.4481,0.4492,0.3803,0.3133,0.4171,0.0,0.0,0.4789,0.4716,0.469,0.4835,0.0,0.5024,0.3885,0.3814,0.404,0.3999,0.5225,0.6548,0.6734,0.447,0.1927,0.0259,-0.0,-0.0,-0.0,-0.0,0.0293,0.1096,0.5051,0.7923,0.798,0.7521,0.0,0.796,0.0,0.0,0.7962,0.8048,0.8038,0.8038,0.8038,0.8045,0.7962,0.7962,0.7965,0.7972,0.7972,0.8026,0.8031,0.6228,0.5337,0.537,0.5367,0.6343,0.8104,0.8371,0.8486,0.8526,0.8526,0.8526,0.8526,0.8513,0.8611,0.8499,0.8344,0.8294,0.822,-0.0,-0.0,-0.0,-0.0,-0.0,0.0,0.0,0.0,0.0,0.0,0.0,0.0,0.0,0.0,0.0,0.0,0.0,-0.0,-0.0,-0.0,-0.0,-0.0,-0.0,-0.0,-0.0,-0.0,-0.0,-0.0,-0.0,-0.0,-0.0,-0.0,-0.0,-0.0,-0.0,-0.0,-0.0,-0.0,-0.0,-0.0,-0.0,-0.0,-0.0,-0.0,0.1193,0.0,0.4131,0.4494,0.4527,0.4483,0.3478,0.2393,0.3387,0.3669,0.3688,0.3903,0.3885,0.3895,0.3946,0.4525,0.488,0.4207,0.2942,0.2009,0.1981,0.3041,0.4171,0.4486,0.2136,-0.0,-0.0,-0.0,-0.0,-0.0,-0.0,-0.0,-0.0,0.2981,0.5824,0.7793,0.8041,0.8021,0.0,0.0,0.0,0.7975,0.7965,0.7959,0.7959,0.7959,0.7965,0.7979,0.7056,0.6548,0.6553,0.6597,0.7103,0.7991,0.4259,0.2574,0.2574,0.2571,0.3547,0.5198,0.6358,0.6907,0.7058,0.7058,0.7058,0.7056,0.7152,0.7806,0.8686,0.8521,0.7846,0.7046,-0.0,-0.0,-0.0,0.0,0.0,0.0,0.0,0.0,0.0,0.0,0.0,0.0,0.0,0.0,0.0,0.0,0.0,0.0,-0.0,-0.0,-0.0,-0.0,-0.0,-0.0,-0.0,-0.0,-0.0,-0.0,-0.0,-0.0,-0.0,-0.0,-0.0,-0.0,-0.0,-0.0,-0.0,-0.0,-0.0,-0.0,-0.0,-0.0,-0.0,-0.0,-0.0,0.0386,0.3433,0.4422,0.4246,0.4274,0.0,0.0,0.0,0.0,0.0,0.2102,0.2325,0.2475,0.2149,0.3186,0.458,0.5658,0.2998,-0.0,-0.0,-0.0,-0.0,-0.0,-0.0,-0.0,-0.0,0.0,-0.0,-0.0,-0.0,-0.0,-0.0,-0.0,0.1879,0.0,0.0,0.0,0.0,0.0,0.0,0.7378,0.0,0.7785,0.7785,0.7785,0.7885,0.7992,0.5541,0.4022,0.3822,0.3794,0.5028,0.7511,0.2391,-0.0,-0.0,-0.0,-0.0,0.0112,0.2745,0.3963,0.4247,0.4247,0.4247,0.4247,0.4247,0.5938,0.8533,0.8736,0.7119,0.4998,0.0,0.0,0.0,0.0,0.0,0.0,0.0,0.0,0.0,0.0,0.0,0.0,0.0,0.0,0.0,0.0,0.0,0.0,-0.0,-0.0,-0.0,-0.0,-0.0,-0.0,-0.0,-0.0,-0.0,-0.0,-0.0,-0.0,-0.0,-0.0,-0.0,-0.0,-0.0,-0.0,-0.0,-0.0,-0.0,-0.0,-0.0,-0.0,-0.0,-0.0,-0.0,0.0415,0.3434,0.3063,0.0,0.0,0.0,0.0,0.0,0.0,0.0579,0.0,0.0,0.0667,0.0616,0.0878,0.124,0.154,0.078,-0.0,-0.0,-0.0,-0.0,-0.0,-0.0,-0.0,-0.0,0.0,0.0,-0.0,-0.0,0.0,-0.0,-0.0,0.0,0.1917,0.0,0.7992,0.8046,0.5574,0.0,0.0,0.3924,0.5027,0.5027,0.5027,0.5947,0.7915,0.7289,0.5051,0.1029,0.1062,0.1406,0.2066,0.0664,-0.0,-0.0,-0.0,-0.0,-0.0,0.0669,0.1115,0.112,0.112,0.112,0.112,0.1118,0.1563,0.2793,0.7268,0.8393,0.7805,0.0,0.0,0.0,0.0,0.0,0.0,0.0,0.0,0.0,0.0,0.0,0.0,0.0,0.0,0.0,0.0,0.0,0.0,0.0,-0.0,-0.0,-0.0,-0.0,-0.0,-0.0,-0.0,-0.0,-0.0,-0.0,-0.0,-0.0,-0.0,-0.0,-0.0,-0.0,-0.0,-0.0,-0.0,-0.0,0.0,0.0,-0.0,-0.0,-0.0,-0.0,0.0202,0.1892,0.0,0.0,0.0,0.0,-0.0,-0.0,-0.0,-0.0,-0.0,0.0,-0.0,-0.0,-0.0,-0.0,-0.0,-0.0,-0.0,-0.0,-0.0,-0.0,-0.0,-0.0,0.0,-0.0,-0.0,0.0,0.0,0.0,0.0,-0.0,-0.0,-0.0,0.0,0.2625,0.0,0.4457,0.3136,0.1617,0.0,0.141,0.2213,0.2213,0.2213,0.2933,0.4398,0.4444,0.3034,-0.0,-0.0,-0.0,-0.0,-0.0,-0.0,-0.0,-0.0,-0.0,-0.0,-0.0,-0.0,-0.0,-0.0,-0.0,-0.0,-0.0,-0.0,0.0448,0.3811,0.6639,0.846,0.0,0.0,0.0,0.0,0.0,0.0,0.0,0.0,0.0,0.0,0.0,0.0,0.0,0.0,0.0,0.0,0.0,0.0,0.0,0.0,-0.0,-0.0,-0.0,-0.0,-0.0,-0.0,-0.0,-0.0,-0.0,-0.0,-0.0,-0.0,-0.0,-0.0,-0.0,-0.0,-0.0,-0.0,-0.0,-0.0,-0.0,-0.0,-0.0,0.0,-0.0,0.0,0.0,0.0,0.0,0.0,-0.0,-0.0,-0.0,-0.0,-0.0,-0.0,-0.0,-0.0,-0.0,-0.0,-0.0,-0.0,-0.0,-0.0,-0.0,-0.0,-0.0,-0.0,0.0,-0.0,-0.0,-0.0,-0.0,-0.0,0.0,-0.0,-0.0,-0.0,-0.0,-0.0,-0.0,-0.0,-0.0,-0.0,-0.0,-0.0,-0.0,-0.0,-0.0,-0.0,-0.0,-0.0,-0.0,-0.0,-0.0,-0.0,-0.0,-0.0,-0.0,-0.0,-0.0,-0.0,-0.0,-0.0,-0.0,-0.0,-0.0,-0.0,-0.0,-0.0,-0.0,-0.0,-0.0,-0.0,0.3251,0.6974,0.0,0.0,0.0,0.0,0.0,0.0,0.0,-0.0,-0.0,-0.0,-0.0,0.0,0.0,0.0,0.0,0.0,0.0,0.0,0.0,0.0,0.0,-0.0,-0.0,-0.0,-0.0,-0.0,-0.0,0.0,0.0,-0.0,-0.0,-0.0,-0.0,-0.0,-0.0,-0.0,-0.0,-0.0,-0.0,-0.0,-0.0,-0.0,-0.0,-0.0,0.0,0.0,0.0,0.0,0.0,0.0,-0.0,-0.0,-0.0,-0.0,-0.0,-0.0,-0.0,-0.0,-0.0,-0.0,-0.0,-0.0,-0.0,-0.0,-0.0,-0.0,0.0,0.0,-0.0,-0.0,-0.0,-0.0,0.0,-0.0,0.0,0.0,0.0,0.0,-0.0,0.0,0.0,0.0,0.0,0.0,0.0,0.0,-0.0,-0.0,-0.0,-0.0,-0.0,-0.0,-0.0,-0.0,-0.0,-0.0,-0.0,-0.0,-0.0,-0.0,-0.0,-0.0,-0.0,-0.0,-0.0,-0.0,-0.0,-0.0,-0.0,-0.0,-0.0,-0.0,-0.0,-0.0,0.0667,0.143,0.0,0.0,0.0,0.0,0.0,0.0,0.0,-0.0,-0.0,-0.0,-0.0,-0.0,-0.0,-0.0,-0.0,0.0,0.0,0.0,0.0,0.0,0.0,0.0,-0.0,-0.0,-0.0,0.0,0.0,0.0,0.0,0.0,0.0,0.0,0.0,0.0,0.0,0.0,0.0,-0.0,-0.0,-0.0,-0.0,-0.0,0.0,0.0,0.0,0.0,0.0,0.0,0.0,0.0,-0.0,-0.0,-0.0,-0.0,-0.0,-0.0,-0.0,-0.0,-0.0,-0.0,-0.0,-0.0,-0.0,-0.0,-0.0,0.0,0.0,0.0,-0.0,-0.0,-0.0,0.0,0.0,0.0,0.0,0.0,0.0,0.0,0.0,0.0,0.0,0.0,0.0,0.0,0.0,-0.0,-0.0,-0.0,-0.0,-0.0,-0.0,-0.0,-0.0,-0.0,-0.0,-0.0,-0.0,-0.0,-0.0,-0.0,-0.0,-0.0,-0.0,-0.0,-0.0,-0.0,-0.0,-0.0,-0.0,-0.0,-0.0,-0.0,-0.0,-0.0,-0.0,-0.0,0.0,0.0,0.0,0.0,0.0,0.0,-0.0,-0.0,-0.0,-0.0,-0.0,-0.0089,-0.0359,-0.0157,-0.0,0.0,0.0,0.0,0.0,0.0,0.0,0.0,0.0,0.0,0.0,0.0,0.0,0.0,0.0,0.0,0.0,0.0,0.0,0.0,0.0,0.0,0.0,0.0,-0.0,0.0,0.0,0.0,0.0,0.0,0.0,0.0,0.0,0.0,0.0,0.0,-0.0,-0.0,-0.0,-0.0,-0.0,-0.0,-0.0,-0.0,-0.0,-0.0,-0.0,-0.0,-0.0,-0.0,-0.0,-0.0,0.0,0.0,-0.0,-0.0,-0.0,0.0,0.0,0.0,0.0,0.0,0.0,0.0,0.0,0.0,0.0,0.0,0.0,0.0,0.0,-0.0,-0.0,-0.0,-0.0,-0.0,-0.0,-0.0,-0.0,-0.0,-0.0,-0.0,-0.0,-0.0,-0.0,-0.0,-0.0,-0.0,-0.0,-0.0,-0.0,-0.0,-0.0,-0.0,-0.0,-0.0,-0.0,-0.0,-0.0,-0.0,-0.0,-0.0,0.0,0.0,0.0,0.0,0.0,0.0,-0.0,-0.0,-0.0,-0.0,-0.0,-0.0423,-0.1524,-0.0647,-0.0,0.0,0.0,0.0,0.0,0.0,0.0,0.0,0.0,0.0,0.0,0.0,0.0,0.0,0.0,0.0,0.0,0.0,0.0,0.0,0.0,0.0,0.0,0.0,0.0,0.0,0.0,0.0,0.0,0.0,0.0,0.0,0.0,0.0,0.0,0.0,0.0,-0.0,-0.0,-0.0,-0.0,-0.0,0.0,0.0,-0.0,-0.0,-0.0,-0.0,-0.0,-0.0,-0.0,0.0,0.0,-0.0,-0.0,-0.0,-0.0,-0.0,-0.0,-0.0,0.0,-0.0,0.0,0.0,0.0,0.0,0.0,0.0,0.0,0.0,0.0,-0.0,-0.0,-0.0,-0.0,-0.0,-0.0,-0.0,-0.0,-0.0,-0.0,-0.0,-0.0,-0.0,-0.0,-0.0,-0.0,-0.0,-0.0,-0.0,-0.0,-0.0,-0.0,-0.0,-0.0,-0.0,-0.0,-0.0,-0.0,-0.0,-0.0,-0.0,0.0,0.0,0.0,0.0,0.0,0.0,-0.0,-0.0,-0.0268,-0.0983,-0.1072,-0.1274,-0.1753,-0.1366,-0.0781,-0.0067,0.0,0.0,0.0,0.0,0.0,0.0,0.0,0.0,0.0,0.0,0.0,0.0,0.0,0.0,0.0,0.0,0.0,0.0,0.0,0.0,0.0,0.0,0.0,0.0,0.0,0.0,0.0,0.0,0.0,0.0,0.0,0.0,0.0,0.0,0.0,0.0,-0.0,-0.0,0.0,0.0,-0.0,-0.0,-0.0,-0.0,-0.0,-0.0,-0.0,-0.0,-0.0,0.0,-0.0,-0.0,-0.0,-0.0,-0.0,-0.0,-0.0,-0.0,-0.0,-0.0,-0.0,0.0,0.0,0.0,0.0,0.0,0.0,0.0,0.0,-0.0,-0.0,-0.0,-0.0,-0.0,-0.0,-0.0,-0.0,-0.0,-0.0,-0.0,-0.0,-0.0,-0.0,-0.0,-0.0,-0.0,-0.0,-0.0,-0.0,-0.0,-0.0,-0.0,-0.0,-0.0,-0.0,-0.0,-0.0,-0.0,-0.0,-0.0,0.0,0.0,0.0,0.0,0.0,-0.0,-0.0,-0.0313,-0.0847,-0.1683,-0.1798,-0.1798,-0.1794,-0.1798,-0.1457,-0.0601,-0.02,0.0,0.0,0.0,0.0,0.0,0.0,0.0,0.0,0.0,0.0,0.0,0.0,0.0,0.0,0.0,0.0,0.0,0.0,0.0,0.0,0.0,0.0,0.0,0.0,0.0,0.0,0.0,0.0,0.0,0.0,0.0,0.0,0.0,0.0,0.0,0.0,0.0,0.0,0.0,-0.0,-0.0,-0.0,-0.0,-0.0,-0.0,-0.0,-0.0,0.0,-0.0,-0.0,-0.0,-0.0,-0.0,-0.0,-0.0,-0.0,-0.0,-0.0,-0.0,-0.0,0.0,0.0,0.0,0.0,0.0,0.0,0.0,-0.0,-0.0,-0.0,-0.0,-0.0,-0.0,-0.0,-0.0,-0.0,-0.0,-0.0,-0.0,-0.0,-0.0,-0.0,-0.0,-0.0,-0.0,-0.0,-0.0,-0.0,-0.0,-0.0,-0.0,-0.0,-0.0,-0.0,-0.0,-0.0,-0.0,-0.0,-0.0,0.0,0.0,0.0,0.0,0.0,-0.0,-0.0,-0.1009,-0.1775,-0.1798,-0.1798,-0.1794,-0.1806,-0.1791,-0.1798,-0.1775,-0.069,0.0,0.0,0.0,0.0,0.0,0.0,0.0,0.0,0.0,-0.0,-0.0,-0.0,0.0,0.0,0.0,0.0,0.0,0.0,0.0,0.0,0.0,0.0,0.0,0.0,0.0,-0.0,0.0,0.0,0.0,0.0,0.0,0.0,0.0,0.0,0.0,0.0,-0.0,0.0,0.0,-0.0,-0.0,-0.0,-0.0,-0.0,-0.0,-0.0,-0.0,0.0,-0.0,-0.0,-0.0,-0.0,-0.0,-0.0,-0.0,-0.0,-0.0,-0.0,-0.0,-0.0,0.0,0.0,0.0,0.0,0.0,0.0,0.0,-0.0,-0.0,-0.0,0.0,-0.0,-0.0,-0.0,-0.0,-0.0,-0.0,-0.0,-0.0,-0.0,-0.0,-0.0,-0.0,-0.0,-0.0,-0.0,-0.0,-0.0,-0.0,-0.0,-0.0,-0.0,-0.0,-0.0,-0.0,-0.0,-0.0,-0.0,-0.0,0.0,0.0,0.0,0.0,0.0,0.0,-0.0,-0.0335,-0.087,-0.1683,-0.1798,-0.1798,-0.1794,-0.1798,-0.1683,-0.141,-0.1296,0.0,0.0,0.0,0.0,0.0,0.0,0.0,0.0,0.0,-0.0,-0.0,-0.0,-0.0,-0.0,-0.0,0.0,0.0,0.0,0.0,0.0,0.0,0.0,0.0,0.0,-0.0,-0.0,0.0,0.0,0.0,0.0,0.0,0.0,0.0,0.0,0.0,0.0,0.0,0.0,-0.0,-0.0,-0.0,-0.0,-0.0,-0.0,-0.0,0.1547,0.3057,0.3095,0.2243,0.1221,0.0225,-0.0,-0.0,-0.0,-0.0,-0.0,-0.0,-0.0,-0.0,0.0,0.0,0.0,0.0,0.0,0.0,0.0,0.0,-0.0,-0.0,-0.0,-0.0,-0.0,-0.0,-0.0,-0.0,-0.0,-0.0,-0.0,-0.0,-0.0,-0.0,-0.0,-0.0,-0.0,-0.0,-0.0,-0.0,-0.0,-0.0,-0.0,-0.0,-0.0,-0.0,-0.0,-0.0,-0.0,-0.0,-0.0,-0.0,0.0,0.0,0.0,0.0,0.0,0.0,-0.0,-0.0,-0.0267,-0.1027,-0.1321,-0.1457,-0.1457,-0.1661,-0.1705,-0.1455,-0.1661,0.0,0.0,0.0,0.0,0.0,0.0,0.0,-0.0,-0.0,-0.0,-0.0,-0.0,-0.0,-0.0,-0.0,-0.0,-0.0,0.0,0.0,0.0,0.0,0.0,0.0,-0.0,-0.0,-0.0,0.0,0.0,0.0,0.0,0.0,0.0,0.0,0.0,0.0,0.0,0.0,0.0,0.0,-0.0,-0.0,0.0,-0.0,-0.0,-0.0,0.2299,0.4494,0.447,0.3733,0.2809,0.1908,0.0781,-0.0,-0.0,-0.0,-0.0,-0.0,-0.0,-0.0,0.0,0.0,0.0,0.0,0.0,0.0,0.0,-0.0,-0.0,-0.0,-0.0,-0.0,-0.0,-0.0,-0.0,-0.0,-0.0,-0.0,-0.0,-0.0,-0.0,-0.0,-0.0,-0.0,-0.0,-0.0,-0.0,-0.0,-0.0,-0.0,0.0,-0.0,-0.0,-0.0,-0.0,-0.0,-0.0,-0.0,-0.0,-0.0,0.0,0.0,0.0,0.0,0.0,0.0,0.0,-0.0,-0.0,-0.0,-0.049,-0.0871,-0.0961,-0.1457,-0.1798,-0.1798,-0.1798,0.0,0.0,0.0,0.0,0.0,0.0,0.0,-0.0,-0.0,-0.0,-0.0,-0.0,-0.0,-0.0,-0.0,-0.0,-0.0,-0.0,0.0,0.0,0.0,0.0,0.0,-0.0,-0.0,0.0,0.0,0.0,0.0,0.0,0.0,0.0,0.0,0.0,0.0,0.0,0.0,0.0,0.0,0.0,0.0,0.0,-0.0,-0.0,-0.0,0.2147,0.4336,0.4455,0.4465,0.0,0.448,0.2287,0.0279,0.0056,-0.0,-0.0,-0.0,-0.0,0.0,0.0,0.0,0.0,0.0,0.0,0.0,-0.0,-0.0,-0.0,-0.0,-0.0,-0.0,-0.0,-0.0,-0.0,-0.0,-0.0,-0.0,-0.0,-0.0,-0.0,-0.0,-0.0,-0.0,-0.0,-0.0,-0.0,-0.0,-0.0,-0.0,-0.0,-0.0,-0.0,-0.0,-0.0,-0.0,-0.0,-0.0,-0.0,-0.0,0.0,0.0,0.0,0.0,0.0,0.0,0.0,0.0,0.0,0.0,-0.0134,-0.056,-0.148,-0.1708,-0.1798,0.0,0.0,0.0,0.0,0.0,0.0,0.0,0.0,0.0,-0.0,-0.0,-0.0,-0.0,-0.0,-0.0,-0.0,-0.0,-0.0,-0.0,-0.0,-0.0,0.0,0.0,0.0,0.0,-0.0,-0.0,0.0,0.0,0.0,0.0,-0.0,-0.0,0.0,0.0,0.0,0.0,0.0,0.0,0.0,0.0,-0.0,-0.0,-0.0,0.0,-0.0,-0.0,0.1214,0.2726,0.0,0.421,0.4311,0.0,0.0,0.2755,0.0404,-0.0,-0.0,-0.0,-0.0,0.0,0.0,0.0,0.0,0.0,0.0,0.0,-0.0,-0.0,-0.0,-0.0,-0.0,-0.0,-0.0,-0.0,-0.0,-0.0,-0.0,-0.0,-0.0,-0.0,-0.0,-0.0,-0.0,-0.0,-0.0,-0.0,-0.0,-0.0,-0.0,-0.0,-0.0,-0.0,-0.0,-0.0,-0.0,-0.0,-0.0,-0.0,-0.0,-0.0,0.0,0.0,0.0,0.0,0.0,0.0,0.0,0.0,0.0,0.0,-0.0,-0.0247,-0.0897,-0.1463,-0.1804,0.0,0.0,0.0,0.0,0.0,0.0,0.0,0.0,-0.0556,-0.0,-0.0,-0.0,-0.0,-0.0,-0.0,-0.0,-0.0,-0.0,-0.0,-0.0,-0.0,0.0,0.0,0.0,-0.0,-0.0,0.0,0.0,0.0,0.0,0.0,-0.0,-0.0,0.0,-0.0,-0.0,-0.0,0.0,0.0,0.0,0.0,-0.0,0.0232,0.1347,0.0834,-0.0,-0.0,0.0471,0.1479,0.3556,0.0,0.0,0.0,0.0,0.0,0.2341,0.0,0.0,-0.0,-0.0,0.0,0.0,0.0,0.0,0.0,0.0,-0.0,0.0,-0.0,-0.0,-0.0,-0.0,-0.0,-0.0,-0.0,-0.0,-0.0,-0.0,-0.0,-0.0,-0.0,-0.0,-0.0,-0.0,-0.0,-0.0,-0.0,-0.0,-0.0,-0.0,-0.0,-0.0,-0.0,-0.0,-0.0,-0.0,-0.0,-0.0,-0.0,-0.0,-0.0,0.0,0.0,0.0,0.0,0.0,0.0,0.0,0.0,0.0,0.0,0.0,0.0,0.0,0.0,0.0,0.0,0.0,0.0,0.0,0.0,0.0,0.0,-0.1798,-0.1279,-0.015,-0.0054,-0.0,-0.0,-0.0,-0.0,-0.0,-0.0,-0.0,-0.0,-0.0,-0.0,0.0,0.0,-0.0,-0.0,-0.0,0.0,0.0,0.0,0.0,0.0,0.0,0.0,0.0,-0.0,-0.0,-0.0,-0.0,0.0,0.0,0.0,0.0,0.0,0.2948,0.2158,0.0633,0.0419,0.0483,0.1209,0.3531,0.0,0.0,0.0,0.0,0.0,0.0,0.0,0.0,0.0,0.0,0.0,0.0,0.0,0.0,0.0,0.0,0.0,-0.0,-0.0,-0.0,-0.0,-0.0,-0.0,-0.0,-0.0,-0.0,-0.0,-0.0,-0.0,-0.0,-0.0,-0.0,-0.0,-0.0,-0.0,-0.0,-0.0,-0.0,-0.0,-0.0,-0.0,-0.0,-0.0,-0.0,-0.0,-0.0,-0.0,-0.0,-0.0,-0.0,-0.0,0.0,0.0,0.0,0.0,0.0,0.0,0.0,0.0,0.0,0.0,0.0,0.0,0.0,0.0,0.0,0.0,0.0,0.0,0.0,0.0,0.0,-0.1806,-0.1794,-0.1466,-0.0777,-0.0254,-0.0,-0.0,-0.0,-0.0,-0.0,-0.0,-0.0,-0.0,-0.0,-0.0,-0.0,-0.0,-0.0,-0.0,-0.0,0.0,0.0,0.0,0.0,0.0,0.0,0.0,0.0,-0.0,-0.0,-0.0,-0.0,0.0,0.0,0.0,0.0,0.0,0.2944,0.371,0.3506,0.2198,0.274,0.364,0.4056,0.0,0.0,0.0,0.0,0.0,0.0,0.0,0.0,0.0,0.0,0.0,0.0,0.0,0.0,0.0,0.0,-0.0,-0.0,-0.0,-0.0,-0.0,-0.0,-0.0,-0.0,-0.0,-0.0,-0.0,-0.0,-0.0,-0.0,-0.0,-0.0,-0.0,-0.0,-0.0,-0.0,-0.0,-0.0,-0.0,-0.0,-0.0,-0.0,-0.0,-0.0,-0.0,-0.0,-0.0,-0.0,-0.0,-0.0,-0.0,0.0,0.0,0.0,0.0,0.0,0.0,0.0,0.0,0.0,0.0,0.0,0.0,0.0,0.0,0.0,0.0,0.0,0.0,0.0,0.0,-0.1809,-0.1791,-0.1793,-0.168,-0.1384,-0.047,-0.0,-0.0,-0.0,-0.0,-0.0,-0.0,-0.0,-0.0,-0.0,-0.0,-0.0,-0.0,-0.0,-0.0,0.0,0.0,0.0,0.0,0.0,0.0,0.0,0.0,0.0,0.0,-0.0,-0.0,-0.0,0.0,0.0,0.0,0.0,0.0,0.137,0.2427,0.3224,0.3164,0.3757,0.4371,0.4338,0.0,0.0,0.0,0.0,0.0,0.0,0.0,0.0,0.0,0.0,0.0,0.0,0.0,0.0,0.0,0.0,-0.0,-0.0,-0.0,-0.0,-0.0,-0.0,-0.0,-0.0,-0.0,-0.0,-0.0,-0.0,-0.0,-0.0,-0.0,-0.0,-0.0,-0.0,-0.0,-0.0,-0.0,-0.0,-0.0,-0.0,-0.0,-0.0,-0.0,-0.0,-0.0,-0.0,-0.0,-0.0,-0.0,-0.0,-0.0,0.0,0.0,0.0,0.0,0.0,0.0,0.0,0.0,0.0,0.0,0.0,0.0,0.0,0.0,0.0,0.0,0.0,0.0,0.0,-0.1457,-0.1803,-0.1793,-0.1671,-0.1661,-0.1804,-0.0891,-0.0286,-0.0,-0.0,-0.0,-0.0,-0.0,-0.0,-0.0,-0.0,-0.0,-0.0,-0.0,-0.0,-0.0,0.0,0.0,0.0,0.0,0.0,0.0,0.0,0.0,0.0,0.0,0.0,0.0,0.0,0.0,0.0,-0.0,-0.0,-0.0,-0.0,0.1059,0.2498,0.378,0.4311,0.4429,0.4036,0.0,0.0,0.0,0.0,0.0,0.0,0.0,0.0,0.0,0.0,0.0,0.0,0.0741,-0.0,-0.0,-0.0,-0.0,-0.0,-0.0,-0.0,-0.0,-0.0,-0.0,-0.0,-0.0,-0.0,-0.0,-0.0,-0.0,-0.0,-0.0,-0.0,-0.0,-0.0,-0.0,-0.0,-0.0,-0.0,-0.0,-0.0,-0.0,-0.0,-0.0,-0.0,-0.0,-0.0,-0.0,-0.0,-0.0,-0.0,-0.0,0.0,0.0,0.0,0.0,0.0,0.0,0.0,0.0,0.0,0.0,0.0,0.0,0.0,0.0,0.0,0.0,0.0,0.0,0.0,-0.1457,-0.1804,-0.1792,-0.1257,-0.1221,-0.1795,-0.1713,-0.112,-0.0,-0.0,-0.0,-0.0,-0.0,-0.0,-0.0,-0.0,-0.0,-0.0,-0.0,-0.0,-0.0,-0.0,0.0,0.0,0.0,0.0,0.0,0.0,0.0,0.0,0.0,0.0,0.0,0.0,0.0,-0.0,-0.0,-0.0,-0.0,-0.0,0.1064,0.2585,0.4092,0.4487,0.0,0.2677,0.2344,0.0,0.0,0.0,0.0,0.0,0.0,0.0,0.0,0.0,0.0,0.66,0.0,-0.0,-0.0,-0.0,-0.0,-0.0,-0.0,-0.0,-0.0,-0.0,-0.0,-0.0,-0.0,-0.0,-0.0,-0.0,-0.0,-0.0,-0.0,-0.0,-0.0,-0.0,-0.0,-0.0,-0.0,-0.0,-0.0,-0.0,-0.0,-0.0,-0.0,-0.0,-0.0,-0.0,-0.0,-0.0,-0.0,-0.0,-0.0,0.0,0.0,0.0,0.0,0.0,0.0,0.0,0.0,0.0,0.0,0.0,0.0,0.0,0.0,0.0,0.0,0.0,0.0,0.0,-0.0558,-0.1007,-0.1775,-0.157,-0.1574,-0.1783,-0.1808,-0.1195,-0.0,-0.0,-0.0,-0.0,-0.0,-0.0,-0.0,-0.0,-0.0,-0.0,-0.0,-0.0,-0.0,-0.0,-0.0,0.0,0.0,0.0,0.0,0.0,0.0,0.0,0.0,-0.0,-0.0,-0.0,-0.0,-0.0,-0.0,-0.0,-0.0,-0.0,0.04,0.1399,0.3891,0.0,0.0,0.0,0.0,0.0,0.0,0.0,0.0,0.0,0.0,0.0,0.0,0.0,0.6987,0.7078,0.5522,0.335,0.0378,-0.0,-0.0,-0.0,-0.0,-0.0,-0.0,-0.0,-0.0,-0.0,-0.0,-0.0,-0.0,-0.0,-0.0,-0.0,-0.0,-0.0,-0.0,-0.0,-0.0,-0.0,-0.0,-0.0,-0.0,-0.0,-0.0,-0.0,-0.0,-0.0,-0.0,-0.0,-0.0,-0.0,-0.0,-0.0,-0.0,0.0,0.0,0.0,0.0,0.0,0.0,0.0,0.0,0.0,0.0,0.0,0.0,0.0,0.0,0.0,0.0,0.0,0.0,-0.0,-0.0,-0.0367,-0.1198,-0.1602,-0.161,-0.1227,-0.1225,-0.0832,-0.0,-0.0,-0.0,-0.0,-0.0,-0.0,-0.0,-0.0,-0.0,-0.0,-0.0,-0.0,-0.0,-0.0,-0.0,0.0,0.0,0.0,0.0,0.0,0.0,0.0,0.0,-0.0,-0.0,-0.0,-0.0,-0.0,-0.0,-0.0,-0.0,-0.0,-0.0,0.0489,0.0,0.0,0.0,0.0,0.0,0.0,0.0,0.0,0.0,0.0,0.0,0.0,0.0,0.6141,0.6097,0.7015,0.7131,0.5346,0.0555,-0.0,-0.0,-0.0,-0.0,-0.0,-0.0,-0.0,-0.0,-0.0,-0.0,-0.0,-0.0,-0.0,-0.0,-0.0,-0.0,-0.0,-0.0,-0.0,-0.0,-0.0,-0.0,-0.0,-0.0,-0.0,-0.0,-0.0,-0.0,-0.0,-0.0,-0.0,-0.0,-0.0,-0.0,-0.0,-0.0,0.0,0.0,0.0,0.0,0.0,0.0,0.0,0.0,0.0,0.0,0.0,0.0,0.0,0.0,0.0,0.0,0.0,0.0,-0.0,-0.0,-0.0,-0.0,-0.1152,-0.1218,-0.0025,-0.0,-0.0,-0.0,-0.0,-0.0,-0.0,-0.0,-0.0,-0.0,-0.0,-0.0,-0.0,-0.0,-0.0,-0.0,-0.0,-0.0,-0.0,0.0,0.0,0.0,0.0,0.0,0.0,0.0,-0.0,-0.0,-0.0,-0.0,-0.0,-0.0,-0.0,0.004,0.0042,0.0046,-0.0,0.0,0.0,0.0,0.0,0.0,0.0,0.0,0.0,0.0,0.621,0.0,0.0,0.647,0.4613,0.4006,0.6637,0.7045,0.526,0.0553,-0.0,-0.0,-0.0,-0.0,-0.0,-0.0,-0.0,-0.0,-0.0,-0.0,-0.0,-0.0,-0.0,-0.0,-0.0,-0.0,-0.0,-0.0,-0.0,-0.0,-0.0,-0.0,-0.0,-0.0,-0.0,-0.0,-0.0,-0.0,-0.0,-0.0,-0.0,-0.0,-0.0,-0.0,-0.0,-0.0,0.0,0.0,0.0,0.0,0.0,0.0,0.0,0.0,0.0,0.0,0.0,0.0,0.0,0.0,0.0,0.0,0.0,0.0,-0.0,-0.0,-0.0,-0.0,-0.0337,-0.0364,-0.0,-0.0,-0.0,-0.0,-0.0,-0.0,-0.0,-0.0,-0.0,-0.0,-0.0,-0.0,-0.0,-0.0,-0.0,-0.0,-0.0,-0.0,-0.0,0.0,0.0,0.0,0.0,0.0,0.0,0.0,0.0,0.0,-0.0,-0.0,-0.0,-0.0,0.1197,0.2528,0.2523,0.2033,0.0,0.0,0.0,0.0,0.0,0.0,0.0,0.0,0.0,0.0,0.6257,0.0,0.0,0.6354,0.3278,0.1195,0.1964,0.2066,0.162,0.0181,-0.0,-0.0,-0.0,-0.0,-0.0,-0.0,-0.0,-0.0,-0.0,-0.0,-0.0,-0.0,-0.0,-0.0,-0.0,-0.0,-0.0,-0.0,-0.0,-0.0,-0.0,-0.0,-0.0,-0.0,-0.0,-0.0,-0.0,-0.0,-0.0,-0.0,-0.0,-0.0,-0.0,-0.0,-0.0,-0.0,0.0,0.0,0.0,0.0,0.0,0.0,0.0,0.0,0.0,0.0,0.0,-0.0,0.0,0.0,0.0,0.0,0.0,0.0,0.0,-0.0,-0.0,-0.0,-0.0,-0.0,-0.0,-0.0,-0.0,-0.0,-0.0,-0.0,-0.0,-0.0,-0.0,-0.0,-0.0,-0.0,-0.0,-0.0,-0.0,-0.0,-0.0,-0.0,-0.0,0.0,0.0,0.0,0.0,0.0,0.0,0.0,0.0,0.0,-0.0,-0.0,0.0196,0.1138,0.2478,0.3607,0.3738,0.0,0.0,0.0,0.0,0.0,0.0,0.0,0.0,0.0,0.0,0.6207,0.6268,0.5526,0.0,0.6128,0.2762,-0.0,-0.0,-0.0,-0.0,-0.0,-0.0,-0.0,-0.0,-0.0,-0.0,-0.0,-0.0,-0.0,-0.0,-0.0,-0.0,-0.0,-0.0,-0.0,-0.0,-0.0,-0.0,-0.0,-0.0,-0.0,-0.0,-0.0,-0.0,-0.0,-0.0,-0.0,-0.0,-0.0,-0.0,-0.0,-0.0,-0.0,-0.0,-0.0,-0.0,-0.0,0.0,0.0,-0.0818,-0.0818,0.0,0.0,0.0,0.0,0.0,0.0,-0.0013,-0.0,0.0,0.0,0.0,-0.0,-0.0,-0.0,0.0,-0.0,-0.0,-0.0,-0.0,-0.0,-0.0,-0.0,-0.0,-0.0,-0.0,-0.0,-0.0,-0.0,-0.0,-0.0,-0.0,-0.0,-0.0,-0.0,-0.0,-0.0,-0.0,-0.0,-0.0,-0.0,0.0,0.0,0.0,0.0,0.0,0.0,0.0,0.0,-0.0,-0.0,0.047,0.2812,0.3538,0.3662,0.3901,0.0,0.0,0.0,0.0,0.0,0.0,0.0,0.0,0.0,0.0,0.6108,0.6251,0.4382,0.3388,0.5433,0.2486,-0.0,-0.0,-0.0,-0.0,-0.0,-0.0,-0.0,-0.0,-0.0,-0.0,-0.0,-0.0,-0.0,-0.0,-0.0,-0.0,-0.0,-0.0,-0.0,-0.0,-0.0,-0.0,-0.0,-0.0,-0.0,-0.0,-0.0,-0.0,-0.0,-0.0,-0.0,-0.0,-0.0,-0.0,-0.0,-0.0,-0.0,-0.0,-0.0,-0.0,-0.0,0.0,0.0,-0.0189,-0.0189,0.0,0.0,0.0,0.0,-0.0762,-0.0368,-0.0128,-0.0,-0.0,-0.0,0.0,-0.0,-0.0,-0.0,-0.0,-0.0,-0.0,-0.0,-0.0,-0.0,-0.0,-0.0,-0.0,-0.0,-0.0,-0.0,-0.0,-0.0,-0.0,-0.0,-0.0,-0.0,-0.0,-0.0,-0.0,-0.0,-0.0,-0.0,-0.0,-0.0,-0.0,0.0,0.0,0.0,0.0,0.0,0.0,0.0,-0.0,-0.0,0.0397,0.2326,0.3223,0.3601,0.0,0.0,0.0,0.0,0.0,0.0,0.0,0.0,0.0,0.0,0.0,0.6227,0.6271,0.4518,0.2663,0.1535,0.0571,-0.0,-0.0,-0.0,-0.0,-0.0,-0.0,-0.0,-0.0,-0.0,-0.0,-0.0,-0.0,-0.0,-0.0,-0.0,-0.0,-0.0,-0.0,-0.0,-0.0,-0.0,-0.0,-0.0,-0.0,-0.0,-0.0,-0.0,-0.0,-0.0,-0.0,-0.0,-0.0,-0.0,-0.0,-0.0,-0.0,-0.0,-0.0,-0.0,-0.0,-0.0,0.0,0.0,0.0,0.0,0.0,0.0,0.0,0.0,-0.0831,-0.0658,-0.0264,-0.0,-0.0,-0.0,0.0,0.0,-0.0,-0.0,-0.0,-0.0,-0.0,-0.0,-0.0,-0.0,-0.0,-0.0,-0.0,-0.0,-0.0,-0.0,-0.0,-0.0,-0.0,-0.0,-0.0,-0.0,-0.0,-0.0,-0.0,-0.0,-0.0,-0.0,-0.0,-0.0,-0.0,-0.0,-0.0,0.0,0.0,0.0,0.0,0.0,0.0,0.0,0.0259,0.1636,0.2667,0.3429,0.0,0.0,0.0,0.0,0.0,0.0,0.0,0.0,0.0,0.0,0.6101,0.6156,0.6246,0.5363,0.361,0.0478,-0.0,-0.0,-0.0,-0.0,-0.0,-0.0,-0.0,-0.0,-0.0,-0.0,-0.0,-0.0,-0.0,-0.0,-0.0,-0.0,-0.0,-0.0,-0.0,-0.0,-0.0,-0.0,-0.0,-0.0,-0.0,-0.0,-0.0,-0.0,-0.0,-0.0,-0.0,-0.0,-0.0,-0.0,-0.0,-0.0,-0.0,-0.0,-0.0,-0.0,-0.0,-0.0,0.0,0.0,0.0,0.0,0.0,0.0,0.0,0.0,0.0,-0.0897,-0.0378,-0.0,-0.0,-0.0,-0.0,0.0,0.0,0.0,-0.0,-0.0,-0.0,-0.0,-0.0,-0.0,-0.0,-0.0,-0.0,-0.0,-0.0,-0.0,-0.0,-0.0,-0.0,-0.0,-0.0,-0.0,-0.0,-0.0,-0.0,-0.0,-0.0,-0.0,-0.0,-0.0,-0.0,-0.0,-0.0,-0.0,-0.0,-0.0,0.0,0.0,0.0,0.0,0.0378,0.109,0.2121,0.3145,0.0,0.0,0.0,0.0,0.0,0.0,0.0,0.0,0.0,0.0,0.5867,0.6003,0.6193,0.6308,0.5146,0.1641,0.0795,0.0565,0.0566,0.0494,0.0418,0.0084,-0.0,-0.0,-0.0,-0.0,-0.0,-0.0,-0.0,-0.0,-0.0,-0.0,-0.0,-0.0,-0.0,-0.0,-0.0,-0.0,-0.0,-0.0,-0.0,-0.0,-0.0,-0.0,-0.0,-0.0,-0.0,-0.0,-0.0,-0.0,-0.0,-0.0,-0.0,-0.0,-0.0,-0.0,-0.0,-0.0,0.0,0.0,0.0,0.0,0.0,0.0,0.0,0.0,0.0,0.0,-0.0371,-0.0,-0.0,-0.0,-0.0,-0.0,-0.0,-0.0,-0.0,0.0,0.0,-0.0,-0.0,-0.0,-0.0,-0.0,-0.0,-0.0,-0.0,-0.0,0.0,0.0,-0.0,-0.0,-0.0,-0.0,-0.0,-0.0,-0.0,-0.0,-0.0,-0.0,-0.0,-0.0,-0.0,-0.0,-0.0,-0.0,-0.0,-0.0,-0.0,0.0,0.0,0.0,0.1133,0.1271,0.1999,0.2803,0.0,0.0,0.0,0.0,0.0,0.0,0.0,0.0,0.0,0.0,0.564,0.5874,0.6006,0.6211,0.6125,0.5544,0.3919,0.2668,0.2669,0.2724,0.2035,0.0245,-0.0,-0.0,-0.0,-0.0,-0.0,-0.0,-0.0,-0.0,-0.0,-0.0,-0.0,-0.0,-0.0,-0.0,-0.0,-0.0,-0.0,-0.0,-0.0,-0.0,-0.0,-0.0,-0.0,-0.0,-0.0,-0.0,-0.0,-0.0,-0.0,-0.0,-0.0,-0.0,-0.0,-0.0,-0.0,-0.0,0.0,0.0,0.0,0.0,0.0,0.0,0.0,0.0,0.0,0.0,0.0,-0.0256,-0.0944,-0.04,-0.0,-0.0,-0.0,-0.0,-0.0,-0.0,0.0,-0.0,-0.0,-0.0,-0.0,-0.0,-0.0,-0.0,-0.0,0.0,0.0,0.1047,0.0958,0.0,0.071,0.0633,-0.0,-0.0,-0.0,-0.0,-0.0,-0.0,-0.0,-0.0,-0.0,0.0076,0.0766,0.1009,0.0953,0.0608,0.0604,0.0704,0.0545,0.0,0.0,0.0,0.0,0.0,0.0,0.0,0.0,0.0,0.0,0.0,0.0,0.0,0.0,0.5411,0.5464,0.5603,0.5755,0.5926,0.6012,0.6094,0.5403,0.4909,0.492,0.4865,0.4537,0.3659,0.2484,0.1296,0.0082,-0.0,-0.0,-0.0,-0.0,-0.0,-0.0,-0.0,-0.0,-0.0,-0.0,-0.0,-0.0,-0.0,-0.0,-0.0,-0.0,-0.0,-0.0,-0.0,-0.0,-0.0,-0.0,-0.0,-0.0,-0.0,-0.0,-0.0,-0.0,-0.0,-0.0,-0.0,-0.0,-0.0,0.0,0.0,0.0,0.0,0.0,0.0,0.0,0.0,0.0,0.0,0.0,-0.0463,-0.1676,0.0,0.0,0.0,-0.0,-0.0,-0.0,0.0,0.0,0.0,-0.0,-0.0,-0.0,-0.0,-0.0,-0.0,0.0,0.0,0.0703,0.183,0.1759,0.0,0.1387,0.1271,0.0,0.0,0.0138,0.0023,0.0331,0.0639,0.0894,0.0572,0.0459,0.0551,0.1309,0.167,0.1741,0.1357,0.132,0.1415,0.1284,0.1181,0.0,0.0,0.0,0.0,0.0,0.0,0.0,0.0,0.0,0.0,0.0,0.0,0.0,0.0,0.5277,0.5338,0.5454,0.5623,0.5766,0.5895,0.6068,0.6159,0.6218,0.6239,0.6244,0.6288,0.4854,0.3306,0.1765,0.0643,-0.0,-0.0,-0.0,-0.0,-0.0,-0.0,-0.0,-0.0,-0.0,-0.0,-0.0,-0.0,-0.0,-0.0,-0.0,-0.0,-0.0,-0.0,-0.0,-0.0,-0.0,-0.0,-0.0,-0.0,-0.0,-0.0,-0.0,-0.0,-0.0,-0.0,-0.0,-0.0,0.0,0.0,0.0,0.0,0.0,0.0,0.0,0.0,0.0,0.0,0.0,-0.0453,-0.1671,-0.1752,-0.125,-0.0098,-0.0,-0.0,-0.0,0.0,0.0,0.0,0.0,0.0,-0.0,-0.0,-0.0,-0.0,0.0,0.0,0.2549,0.1741,0.18,0.251,0.1696,0.1604,0.2038,0.0,0.0,0.01,0.1235,0.2404,0.3293,0.2131,0.172,0.1637,0.1125,0.0,0.0,0.0,0.0,0.0,0.2059,0.1945,0.1805,0.0,0.0,0.0,0.0,0.0,0.0,0.0,0.0,0.0,0.0,0.0,0.0,0.4942,0.505,0.5145,0.5152,0.5399,0.5644,0.5783,0.581,0.5864,0.6013,0.6037,0.6101,0.6261,0.62,0.6126,0.5986,0.2353,-0.0,-0.0,-0.0,-0.0,-0.0,-0.0,-0.0,-0.0,-0.0,-0.0,-0.0,-0.0,-0.0,-0.0,-0.0,-0.0,-0.0,-0.0,-0.0,-0.0,-0.0,-0.0,-0.0,-0.0,-0.0,-0.0,-0.0,-0.0,-0.0,-0.0,-0.0,-0.0,0.0,0.0,0.0,0.0,0.0,0.0,0.0,0.0,0.0,0.0,0.0,0.0,0.0,-0.1327,-0.1625,-0.1188,-0.0446,0.0,0.0,0.0,0.0,0.0,0.0,0.0,0.0,-0.0,0.0382,0.0,0.0,0.1906,0.211,0.1914,0.202,0.2357,0.1983,0.2081,0.2498,0.1902,0.0,0.1429,0.1685,0.2511,0.3552,0.3107,0.2961,0.2904,0.243,0.0,0.0,0.0,0.0,0.0,0.2116,0.2068,0.2056,0.2041,0.0,0.0,0.0,0.0,0.0,0.0,0.0,0.0,0.0,0.0,0.4799,0.4897,0.4958,0.4996,0.4996,0.524,0.546,0.5511,0.5599,0.5684,0.5739,0.5911,0.6051,0.6112,0.6207,0.6271,0.6285,0.4935,0.2893,0.0235,-0.0,-0.0,-0.0,-0.0,-0.0,-0.0,-0.0,-0.0,-0.0,-0.0,-0.0,-0.0,-0.0,-0.0,-0.0,-0.0,-0.0,-0.0,-0.0,-0.0,-0.0,-0.0,-0.0,-0.0,-0.0,-0.0,-0.0,-0.0,-0.0,-0.0,0.0,0.0,0.0,-0.0,0.0,-0.0,-0.0,-0.0,-0.0,-0.0,0.0,0.0,0.0,0.0,-0.12,-0.12,-0.0454,-0.0,-0.0,-0.0,0.0,0.0,0.0,0.0,0.0,0.0404,0.0987,0.1798,0.1798,0.1826,0.0,0.2015,0.2121,0.2207,0.2117,0.2249,0.0,0.0,0.0,0.2266,0.2208,0.2714,0.3493,0.3586,0.3594,0.3537,0.0,0.0,0.0,0.0,0.0,0.0,0.2279,0.2174,0.2127,0.2077,0.2204,0.0,0.2751,0.0,0.0,0.0,0.0,0.0,0.0,0.0,0.4585,0.4735,0.4806,0.4843,0.4843,0.5043,0.523,0.5277,0.5413,0.5532,0.5583,0.5759,0.5898,0.5945,0.6044,0.6108,0.6118,0.6201,0.505,0.2293,0.077,-0.0,-0.0,-0.0,-0.0,-0.0,-0.0,-0.0,-0.0,-0.0,-0.0,-0.0,-0.0,-0.0,-0.0,-0.0,-0.0,-0.0,-0.0,-0.0,-0.0,-0.0,-0.0,-0.0,-0.0,-0.0,-0.0,-0.0,-0.0,-0.0,-0.0169,-0.0031,-0.0,-0.0,-0.0,-0.0,-0.0,-0.0,-0.0,-0.0,0.0,0.0,0.0,0.0,0.0,-0.0,-0.0,-0.0,-0.0,-0.0,0.0,0.0,0.0,0.0,0.0045,0.1188,0.1775,0.1798,0.1798,0.1892,0.2079,0.2029,0.2057,0.2191,0.205,0.2067,0.2211,0.0,0.2449,0.2438,0.0,0.3054,0.3313,0.0,0.3578,0.0,0.3246,0.3098,0.0,0.2981,0.0,0.0,0.0,0.2374,0.202,0.2167,0.2217,0.0,0.0,0.0,0.0,0.0,0.0,0.0,0.0,0.0,0.4224,0.4426,0.4575,0.4677,0.4684,0.4809,0.4958,0.5094,0.525,0.541,0.5562,0.5586,0.564,0.5779,0.58,0.58,0.58,0.5899,0.6067,0.6299,0.253,0.0149,-0.0,-0.0,-0.0,-0.0,-0.0,-0.0,-0.0,-0.0,-0.0,-0.0,-0.0,-0.0,-0.0,-0.0,-0.0,-0.0,-0.0,-0.0,-0.0,-0.0,-0.0,-0.0,-0.0,-0.0,-0.0,-0.0,-0.0,-0.0,-0.1292,-0.0606,-0.0,-0.0,-0.0,-0.0,-0.0,-0.0,-0.0,0.0,0.0,0.0,0.1208,0.1306,0.094,0.0067,-0.0,-0.0,-0.0,-0.0,-0.0,-0.0,0.083,0.1301,0.1301,0.1208,0.1366,0.1798,0.1798,0.1818,0.1882,0.1871,0.1872,0.1923,0.1984,0.2032,0.2043,0.2022,0.0,0.2618,0.2623,0.2874,0.0,0.0,0.0,0.0,0.0,0.3537,0.3463,0.0,0.3392,0.309,0.0,0.0,0.2157,0.2197,0.2361,0.255,0.2555,0.0,0.0,0.0,0.0,0.0,0.0,0.0,0.0,0.4253,0.4287,0.4402,0.4507,0.465,0.4765,0.4806,0.5026,0.5247,0.5403,0.5518,0.5603,0.5644,0.5739,0.58,0.58,0.5892,0.5981,0.5926,0.5079,0.3233,0.0146,-0.0,-0.0,-0.0,-0.0,-0.0,-0.0,-0.0,-0.0,-0.0,-0.0,-0.0,-0.0,-0.0,-0.0,-0.0,-0.0,-0.0,-0.0,-0.0,-0.0,-0.0,-0.0,-0.0,-0.0,-0.0,-0.0,-0.0,-0.1564,-0.0927,-0.029,-0.0045,-0.0,-0.0,-0.0,-0.0,-0.0,0.0,0.0,0.0,0.1731,0.1801,0.1524,0.0803,0.0289,0.0111,0.0359,0.0134,0.0112,0.0359,0.1299,0.1798,0.1798,0.1457,0.1455,0.1798,0.1794,0.1857,0.1968,0.196,0.196,0.1971,0.2038,0.2031,0.1909,0.1844,0.0,0.0,0.2726,0.0,0.0,0.3356,0.35,0.0,0.0,0.0,0.369,0.3836,0.369,0.0,0.0,0.2656,0.2475,0.2412,0.2591,0.0,0.0,0.0,0.0,0.0,0.0,0.0,0.3718,0.3784,0.0,0.0,0.4197,0.4241,0.4491,0.4535,0.4616,0.468,0.4836,0.5023,0.5237,0.5399,0.5494,0.5494,0.5566,0.562,0.5627,0.5703,0.5717,0.5667,0.581,0.4193,0.0218,-0.0,-0.0,-0.0,-0.0,-0.0,-0.0,-0.0,-0.0,-0.0,-0.0,-0.0,-0.0,-0.0,-0.0969,-0.2621,-0.2647,-0.2089,-0.127,-0.1485,-0.089,-0.0,-0.0,-0.0,-0.0,-0.0,-0.0,-0.0,0.0,-0.1101,-0.0715,-0.0112,-0.0,-0.0,-0.0,-0.0,-0.0,0.0,0.1052,0.1811,0.1801,0.1798,0.1798,0.1798,0.0825,0.0401,0.087,0.0471,0.0403,0.087,0.148,0.1798,0.1798,0.1798,0.1798,0.1798,0.1809,0.1913,0.215,0.215,0.215,0.215,0.215,0.2019,0.1806,0.184,0.2098,0.2517,0.2886,0.3086,0.0,0.0,0.3575,0.3622,0.3765,0.3829,0.3863,0.3999,0.3863,0.0,0.3124,0.2948,0.2914,0.2815,0.2862,0.0,0.3082,0.3132,0.0,0.0,0.3361,0.0,0.3941,0.3715,0.351,0.0,0.415,0.4246,0.4443,0.4484,0.4539,0.4619,0.467,0.4789,0.5067,0.524,0.5335,0.5335,0.5418,0.5432,0.5376,0.5379,0.5389,0.541,0.5049,0.3389,0.0144,-0.0,-0.0,-0.0,-0.0,-0.0,-0.0,-0.0,-0.0,-0.0,-0.0471,-0.0707,-0.0707,-0.0471,-0.2356,-0.593,-0.6224,-0.5203,-0.3493,-0.3808,-0.2534,-0.0358,-0.009,-0.018,-0.0359,-0.009,-0.0,-0.0,-0.1687,-0.126,-0.0715,-0.0112,-0.0,-0.0,-0.0,-0.0,-0.0,-0.0,0.1044,0.1801,0.1798,0.1798,0.1798,0.1798,0.1594,0.1296,0.0914,0.1254,0.1277,0.0914,0.148,0.1798,0.1798,0.1791,0.1806,0.1806,0.1806,0.1825,0.1869,0.1869,0.1869,0.1869,0.1869,0.1847,0.182,0.202,0.2266,0.252,0.2579,0.0,0.3269,0.3413,0.3588,0.3771,0.3921,0.4056,0.4113,0.415,0.4209,0.4204,0.0,0.3331,0.3233,0.3208,0.3406,0.3571,0.3319,0.348,0.3619,0.3396,0.3318,0.0,0.3453,0.2561,0.2131,0.0,0.3907,0.4101,0.4249,0.4376,0.4464,0.4331,0.4535,0.4755,0.4935,0.5084,0.5176,0.5176,0.5294,0.5376,0.5379,0.5396,0.5406,0.5413,0.2708,0.0748,0.0068,-0.0,-0.0,-0.0,-0.0,-0.0,-0.0,-0.0,-0.0,-0.0076,-0.3429,-0.5048,-0.5048,-0.329,-0.2971,-0.3837,-0.5529,-0.6086,-0.5699,-0.5752,-0.4636,-0.2708,-0.08,-0.1163,-0.2681,-0.0718,-0.0,-0.0,-0.1784,-0.1321,-0.0715,-0.0112,-0.0,-0.0,-0.0,-0.0,-0.0,-0.0,0.0785,0.1477,0.1763,0.1794,0.1791,0.1791,0.1794,0.1683,0.1358,0.1635,0.1661,0.1358,0.1635,0.1794,0.1791,0.1806,0.1803,0.1803,0.1803,0.1869,0.2,0.2,0.2046,0.2099,0.2035,0.1956,0.1899,0.1977,0.214,0.2371,0.2666,0.0,0.3358,0.3478,0.3646,0.3812,0.3965,0.4168,0.4355,0.4337,0.3896,0.0,0.2989,0.2763,0.267,0.0,0.3578,0.3681,0.3674,0.3788,0.3839,0.3674,0.0,0.0,0.0,0.2337,0.1375,0.1735,0.2413,0.2957,0.3174,0.3783,0.426,0.4312,0.4505,0.4619,0.4697,0.4891,0.5023,0.5023,0.5167,0.4964,0.4118,0.4851,0.4665,0.2827,0.101,-0.0,-0.0,-0.0,-0.0,-0.0,-0.1763,-0.2717,-0.2717,-0.183,-0.1334,-0.1408,-0.3656,-0.526,-0.6287,-0.5154,-0.4698,-0.4771,-0.5808,-0.6325,-0.6314,-0.6384,-0.5921,-0.4969,-0.3917,-0.2835,-0.1965,-0.3141,-0.2064,-0.0,-0.1798,-0.1321,-0.0715,-0.0112,-0.0,-0.0,-0.0,-0.0,0.0116,0.0476,0.0781,0.1211,0.1846,0.1899,0.1902,0.1933,0.1869,0.1848,0.1869,0.1825,0.1791,0.1803,0.1791,0.1791,0.1803,0.1803,0.1803,0.1803,0.1803,0.1913,0.2128,0.2128,0.2186,0.2275,0.2188,0.2103,0.0,0.0,0.0,0.2378,0.0,0.3154,0.3327,0.3466,0.3626,0.3778,0.3992,0.4246,0.4519,0.4506,0.3276,0.1752,0.1788,0.1645,0.0,0.0,0.0,0.3349,0.0,0.0,0.3667,0.3677,0.0,0.3741,0.0,0.0,0.0,0.0147,0.0778,0.0,0.0,0.0,0.0,0.3902,0.0,0.0,0.0,0.4219,0.0,0.4813,0.5043,0.4632,0.3326,0.3901,0.3155,0.0199,-0.0,-0.0,-0.0,-0.0669,-0.1072,-0.101,-0.3511,-0.5026,-0.5382,-0.3923,-0.3245,-0.3247,-0.3481,-0.4507,-0.6193,-0.6259,-0.6237,-0.623,-0.6261,-0.6271,-0.6274,-0.6386,-0.6464,-0.6539,-0.6915,-0.4713,-0.1679,-0.4617,-0.3918,-0.125,-0.1798,-0.1321,-0.0715,-0.0112,-0.0,-0.0,-0.0,-0.0,0.0578,0.2193,0.1718,0.1519,0.2262,0.2218,0.0,0.0,0.2137,0.2016,0.215,0.1933,0.1806,0.1803,0.1806,0.1806,0.1803,0.1803,0.1803,0.1803,0.1803,0.1825,0.1847,0.1847,0.1857,0.1878,0.1978,0.0,0.0,0.0,0.2405,0.0,0.2907,0.2944,0.0,0.3229,0.347,0.3659,0.4033,0.4294,0.4494,0.0,0.2621,0.0277,0.0,0.0215,0.0218,0.0356,0.0,0.0,0.0,0.0,0.0,0.0,0.3397,0.4263,0.3727,0.0,0.0142,-0.0,0.0,0.0,0.0,0.0,0.0,0.0,0.0,0.0,0.2458,0.2475,0.3037,0.4354,0.5005,0.5287,0.5098,0.2357,0.0422,-0.0,-0.0,-0.0,-0.0,-0.3055,-0.4817,-0.4794,-0.3639,-0.3777,-0.5356,-0.5221,-0.5078,-0.5078,-0.5281,-0.5564,-0.5791,-0.5925,-0.6061,-0.6064,-0.6203,-0.6268,-0.6278,-0.6295,-0.6307,-0.6374,-0.6885,-0.679,-0.5858,-0.2203,-0.3094,-0.5695,-0.1798,-0.1321,-0.0714,-0.0112,-0.0,-0.0,-0.0,-0.0,0.064,0.2453,0.2346,0.2217,0.0,0.0,0.0,0.0,0.0,0.2221,0.0,0.0,0.1922,0.1806,0.1809,0.1809,0.1803,0.1803,0.1803,0.1803,0.1803,0.1803,0.1803,0.1803,0.1851,0.1916,0.1981,0.0,0.2294,0.0,0.2394,0.0,0.0,0.2709,0.0,0.3262,0.3587,0.3842,0.4214,0.4446,0.4494,0.4522,0.2485,-0.0,0.0,0.0,0.0,-0.0,0.0,0.0,0.0,0.0,0.0,0.0,0.14,0.183,0.1562,0.0742,-0.0,-0.0,0.0,0.0,0.0,0.0,0.0,0.0,0.1581,0.0,0.0,0.0,0.2417,0.3087,0.0,0.4174,0.2457,0.0875,-0.0,-0.0,-0.0,-0.0,-0.0,-0.3462,-0.5427,-0.5422,-0.4671,-0.4634,-0.5386,-0.5376,-0.5403,-0.5403,-0.555,-0.5621,-0.5624,-0.5833,-0.5945,-0.6034,-0.6105,-0.619,-0.6197,-0.4929,-0.521,-0.6337,-0.6565,-0.6866,-0.6853,-0.489,-0.3644,-0.2652,-0.1798,0.0,-0.0914,-0.0133,-0.0,-0.0,-0.0,-0.0,0.0544,0.21,0.2543,0.0,0.2748,0.268,0.0,0.0,0.2658,0.2517,0.0,0.0,0.1989,0.1578,0.1699,0.1805,0.1803,0.1799,0.1802,0.1803,0.1803,0.1803,0.1803,0.1803,0.1842,0.195,0.2035,0.2215,0.2479,0.0,0.2431,0.271,0.2534,0.2377,0.2314,0.3132,0.3391,0.3405,0.4015,0.4359,0.4383,0.3553,0.1814,-0.0,-0.0,-0.0,-0.0,0.0,0.0,0.0,-0.0,-0.0,-0.0,-0.0,-0.0,-0.0,-0.0,-0.0,-0.0,-0.0,-0.0,0.0,0.0,0.0,-0.0,-0.0,0.0,0.1606,0.0,0.1585,0.0,0.0,0.0,0.0,-0.0338,-0.0219,-0.0,-0.0,-0.0,-0.0347,-0.1216,-0.3306,-0.4782,-0.5317,-0.5332,-0.5332,-0.5372,-0.5432,-0.5428,-0.5428,-0.5474,-0.5528,-0.5532,-0.5677,-0.5803,-0.5915,-0.5932,-0.5802,-0.5357,-0.4375,-0.4875,-0.6335,-0.6335,-0.5808,-0.5136,-0.5136,-0.2987,-0.0,-0.1798,-0.1775,0.0,-0.02,-0.0,-0.0,-0.0,-0.0,0.0319,0.123,0.0,0.0,0.0,0.0,0.0,0.0,0.0,0.2925,0.2954,0.0,0.1965,0.0976,0.1478,0.1785,0.179,0.179,0.1793,0.1803,0.1803,0.1803,0.1803,0.1803,0.1806,0.1823,0.2073,0.2313,0.2493,0.2417,0.2749,0.32,0.2226,0.1815,0.1921,0.2768,0.259,0.2022,0.3224,0.4005,0.4058,0.1119,0.0056,-0.0,-0.0,-0.0,-0.0,-0.0,-0.0,-0.0,-0.0,-0.0,-0.0,-0.0,-0.0,-0.0,-0.0,-0.0,-0.0,-0.0,-0.0,-0.0,-0.0,-0.0,-0.0,-0.0,0.005,0.0,0.0,0.0,0.0,0.0,0.0,0.0,0.0,-0.0684,-0.0,-0.0,-0.0,-0.1274,-0.4185,-0.3067,-0.3144,-0.5075,-0.5078,-0.5209,-0.5425,-0.5428,-0.5428,-0.5428,-0.5432,-0.5435,-0.5439,-0.5528,-0.5599,-0.562,-0.5918,-0.4911,-0.3332,-0.5386,-0.6254,-0.6267,-0.6267,-0.3787,-0.0236,-0.0236,-0.016,-0.0,0.0,0.0,0.0,0.0,0.0,-0.0,-0.0,-0.0,0.0387,0.0,0.2399,0.0,0.0,0.3159,0.3199,0.0,0.0,0.3046,0.2812,0.2666,0.0,0.0953,0.0703,0.0791,0.1185,0.1591,0.1797,0.1796,0.1796,0.1794,0.1794,0.1806,0.1803,0.1816,0.2021,0.2257,0.0,0.0,0.0,0.0,0.0,0.228,0.3016,0.33,0.3271,0.2844,0.1635,0.1333,0.1345,0.0336,-0.0,-0.0,-0.0,-0.0,-0.0,-0.0,-0.0,-0.0,-0.0,-0.0,-0.0,-0.0,-0.0,-0.0,-0.0,-0.0,-0.0,-0.0,-0.0,-0.0,-0.0,-0.0,-0.0,-0.0,-0.0,-0.0,0.0,0.0,0.0,0.0,0.0,0.0,0.0,0.0,-0.172,-0.0106,-0.1843,-0.3447,-0.4459,-0.4134,-0.4255,-0.5068,-0.5091,-0.5206,-0.5425,-0.5428,-0.5428,-0.5428,-0.5428,-0.5428,-0.5428,-0.5416,-0.5566,-0.5679,-0.5647,-0.5444,-0.5092,-0.2981,-0.2169,-0.2123,-0.2123,-0.1257,-0.0,-0.0,-0.0,-0.0,-0.1533,0.0,0.0,0.0,0.0,-0.0,-0.0,0.0737,0.0,0.0,0.2549,0.0,0.3279,0.0,0.3313,0.0,0.3396,0.3317,0.3056,0.3008,0.0,0.0659,0.0197,0.0191,0.0572,0.0971,0.1252,0.1489,0.1488,0.1593,0.1798,0.1791,0.1809,0.1801,0.1946,0.1954,0.1923,0.2661,0.2769,0.0,0.0,0.2539,0.0,0.2649,0.2303,0.2091,0.0554,-0.0,-0.0,-0.0,-0.0,-0.0,-0.0,-0.0,-0.0,-0.0,-0.0,-0.0,-0.0,-0.0,-0.0,-0.0,-0.0,-0.0,-0.0,-0.0,-0.0,-0.0,-0.0,-0.0,-0.0,-0.0,-0.0,-0.0,-0.0,-0.0,0.0,-0.0,0.0,0.0,0.0,0.0,0.0,0.0,-0.3006,-0.1535,-0.3341,-0.4509,-0.4487,-0.4639,-0.4755,-0.497,-0.4931,-0.5074,-0.5277,-0.5281,-0.5308,-0.5428,-0.5428,-0.5428,-0.5428,-0.5428,-0.5487,-0.5525,-0.4743,-0.4649,-0.4735,-0.1352,-0.0,-0.0,-0.0,-0.0,-0.0,-0.0,-0.0,-0.0,-0.1049,0.0,0.0,0.0,-0.0752,0.0,0.0,0.0,0.3205,0.0,0.2606,0.3184,0.3293,0.332,0.3375,0.3565,0.3581,0.3598,0.3605,0.3477,0.0,0.0,-0.0,-0.0,-0.0,-0.0,0.0278,0.0843,0.0858,0.114,0.1718,0.1712,0.1708,0.1721,0.1743,0.0,0.0977,0.2109,0.2909,0.3308,0.2172,0.2409,0.3168,0.0896,-0.0,-0.0,-0.0,-0.0,-0.0,-0.0,-0.0,-0.0,-0.0,-0.0,-0.0,-0.0,-0.0,-0.0,-0.0,-0.0,-0.0,-0.0,-0.0,-0.0,-0.0,-0.0,-0.0,-0.0,-0.0,-0.0,-0.0,-0.0,-0.0,-0.0,-0.0,-0.0,-0.0,0.0,0.0,0.0,0.0,0.0,0.0,0.0,-0.3694,-0.4004,-0.4275,0.0,0.0,-0.4473,-0.4535,-0.4684,-0.4691,-0.4833,-0.5128,-0.5131,-0.5209,-0.5428,-0.5428,-0.5428,-0.5428,-0.5428,-0.5428,-0.5302,-0.358,-0.2717,-0.2451,-0.0738,-0.0,-0.0,-0.0,-0.0,-0.0,-0.0,-0.0,-0.0,-0.1029,-0.0667,-0.0453,0.0,-0.0197,-0.0,0.0,0.0,0.0,0.0,0.3317,0.3465,0.3503,0.3517,0.3537,0.3588,0.3602,0.0,0.0,0.0,0.0,0.0043,-0.0,-0.0,-0.0,-0.0,0.0066,0.022,0.0245,0.0298,0.0462,0.0458,0.0468,0.0471,0.0,0.0,0.0879,0.0752,0.0788,0.0904,0.0583,0.0652,0.0864,0.0216,-0.0,-0.0,-0.0,-0.0,-0.0,-0.0,-0.0,-0.0,-0.0,-0.0,-0.0,-0.0,-0.0,-0.0,-0.0,-0.0,-0.0,-0.0,-0.0,-0.0,-0.0,-0.0,-0.0,-0.0,-0.0,-0.0,-0.0,-0.0,-0.0,-0.0,-0.0,-0.0,0.0,0.0,0.0,-0.3352,0.0,0.0,0.0,-0.3077,-0.3691,-0.3983,-0.4087,-0.426,-0.447,-0.4372,-0.4426,-0.468,-0.4691,-0.4833,-0.5128,-0.5131,-0.5209,-0.5428,-0.5428,-0.5428,-0.5428,-0.5428,-0.5432,-0.5376,-0.4937,-0.315,-0.0629,-0.0213,-0.0,-0.0,-0.0,-0.0,-0.0,-0.0,-0.0,-0.0,-0.163,0.0,0.0,-0.0,0.0,0.0,-0.0,0.1138,0.0,0.3447,0.3592,0.0,0.2121,0.1542,0.1471,0.196,0.2008,0.0,0.1261,0.0,0.0,-0.0,-0.0,-0.0,-0.0,-0.0,0.0,-0.0,-0.0,-0.0259,-0.0777,-0.0789,-0.0781,-0.0764,0.0,-0.0,0.0491,0.0153,-0.0,-0.0,-0.0,-0.0,0.0,-0.0,-0.0,-0.0,-0.0,-0.0,-0.0,-0.0,-0.0,-0.0,-0.0,-0.0,-0.0,-0.0,-0.0,-0.0,-0.0,-0.0,-0.0,-0.0,-0.0,-0.0,-0.0,-0.0,-0.0,-0.0,-0.0,-0.0,-0.0,-0.0,-0.0,-0.0,-0.0,-0.0454,0.0,0.0,0.0,0.0,-0.2904,0.0,-0.1813,-0.2906,-0.3666,-0.3816,-0.3993,-0.4189,-0.4333,-0.4321,-0.4419,-0.4585,-0.4592,-0.4704,-0.4935,-0.5006,-0.5114,-0.526,-0.5328,-0.5428,-0.5428,-0.5428,-0.5432,-0.5372,-0.5376,-0.4263,-0.2332,-0.1526,-0.1208,-0.1099,-0.03,-0.0,-0.0,-0.0,-0.0,-0.0,-0.2469,0.0,0.0,0.0,0.0,0.0,0.0,-0.0109,0.0683,0.2589,0.0,0.2286,0.0172,-0.1417,-0.1851,-0.0582,-0.0491,-0.0922,-0.1987,-0.105,-0.0352,-0.0,-0.0,-0.0,-0.0,-0.0,-0.0,-0.0,-0.0152,-0.0769,-0.1795,-0.1809,-0.1808,0.0,0.0,0.0,0.0,-0.0,-0.0,-0.0,-0.0,-0.0,-0.0,-0.0,-0.0,-0.0,-0.0,-0.0,-0.0,-0.0,-0.0,-0.0,-0.0,-0.0,-0.0,-0.0,-0.0,-0.0,-0.0,-0.0,-0.0,-0.0,-0.0,-0.0,-0.0,-0.0,-0.0,-0.0,-0.0,-0.0,-0.0,-0.0328,-0.0584,-0.0567,-0.041,0.0,0.0,0.0,0.0,0.0,0.0,0.0,-0.2171,-0.2947,-0.3566,-0.3605,-0.3908,-0.4127,-0.4182,-0.4326,-0.4481,-0.4519,-0.4519,-0.4535,-0.4691,-0.4843,-0.4989,-0.5131,-0.5287,-0.5428,-0.5428,-0.5428,-0.5428,-0.5428,-0.5372,-0.5376,-0.5252,-0.3714,-0.3068,-0.2893,-0.1407,-0.046,-0.0,-0.0,-0.0,-0.0,-0.2779,0.0,0.0,0.0,0.0,-0.3273,-0.1999,-0.0774,-0.0303,-0.1089,-0.0328,0.0147,-0.0194,-0.3329,-0.4742,-0.3116,-0.2946,0.0,0.0,0.0,0.0,-0.0088,-0.0,-0.0,-0.0,-0.0,-0.0,-0.0,-0.0989,-0.1591,-0.1792,-0.1807,-0.1793,-0.1769,0.0,0.0,-0.0,-0.0,0.0,-0.0,-0.0,-0.0,-0.0,-0.0,-0.0,-0.0,-0.0,-0.0,-0.0,-0.0,-0.0,-0.0,-0.0,-0.0,-0.0,-0.0,-0.0,-0.0,-0.0,-0.0,-0.0,-0.0,-0.0,-0.0,-0.0,-0.0,-0.0,-0.0,-0.0,-0.0,-0.0,-0.2009,-0.3729,-0.371,-0.2642,-0.1975,0.0,0.0,0.0,0.0,0.0,-0.3832,-0.3344,-0.3248,-0.3281,-0.356,-0.3666,-0.3787,-0.3929,-0.4137,-0.433,-0.447,-0.4522,-0.4535,-0.4691,-0.4843,-0.4989,-0.5131,-0.5287,-0.5428,-0.5428,-0.5428,-0.5428,-0.5428,-0.5428,-0.5369,-0.5379,-0.5065,-0.4945,-0.4957,-0.5113,-0.3078,-0.0,-0.0,-0.0,-0.0,0.0,0.0,0.0,0.0,0.0,-0.3889,-0.3445,-0.2789,-0.2555,-0.3233,-0.3478,-0.3649,-0.3819,-0.5547,-0.6049,-0.4505,-0.4382,-0.4204,-0.3819,-0.3775,-0.3169,-0.1943,-0.0647,-0.0,-0.0,-0.0,-0.0453,-0.1413,-0.1977,-0.2166,-0.1958,-0.1965,-0.1902,-0.1757,0.0,-0.0272,0.0,-0.0,-0.0,-0.0,-0.0,-0.0,-0.0,-0.0,-0.0,-0.0,-0.0,-0.0,-0.0,-0.0,-0.0,-0.0,-0.0,-0.0,-0.0,-0.0,-0.0,-0.0,-0.0,-0.0,-0.0,-0.0,-0.0,-0.0,-0.0,-0.0,-0.0,-0.0,-0.0,-0.0,-0.0,-0.2469,-0.4514,-0.4521,-0.3884,-0.3418,0.0,0.0,0.0,0.0,0.0,0.0,0.0,-0.353,-0.3465,0.0,0.0,-0.3715,-0.4059,-0.4167,-0.4299,-0.4519,-0.4522,-0.4553,-0.4572,-0.4802,-0.4952,-0.5023,-0.525,-0.5428,-0.5428,-0.5428,-0.5428,-0.5428,-0.5428,-0.5432,-0.5369,-0.5376,-0.545,-0.5603,-0.5765,-0.4769,-0.3013,-0.0781,-0.0,-0.0,0.0,-0.41,0.0,0.0,-0.369,-0.404,-0.4765,-0.4933,-0.4835,-0.4451,-0.5985,-0.7098,-0.7133,-0.7065,-0.6491,-0.5259,-0.5155,-0.484,-0.4072,-0.3926,-0.3834,-0.3681,-0.1541,-0.0285,-0.0,-0.0,-0.0931,-0.2881,-0.2772,-0.2547,-0.2215,-0.2147,-0.1937,-0.1553,-0.0493,-0.0,-0.0,-0.0,-0.0373,-0.0924,-0.0259,-0.0,-0.0053,-0.0719,-0.0953,-0.0897,-0.056,-0.0448,-0.0448,-0.0448,-0.0672,-0.0897,-0.056,-0.0448,-0.0448,-0.0448,-0.0224,-0.0,-0.0,-0.0,-0.0,-0.0,-0.0,-0.0,-0.0,-0.0,-0.0,-0.0,-0.0,-0.0,-0.0,-0.1962,-0.3772,-0.4409,-0.4228,-0.3993,-0.3984,0.0,0.0,0.0,0.0,0.0,-0.3618,-0.3612,0.0,0.0,0.0,-0.3726,-0.3954,-0.4096,-0.4287,-0.4519,-0.4519,-0.4519,-0.4519,-0.4735,-0.4887,-0.4921,-0.5186,-0.5328,-0.5428,-0.5428,-0.5428,-0.5428,-0.5428,-0.5428,-0.5428,-0.5376,-0.5261,-0.5054,-0.5328,-0.524,-0.4538,-0.1236,-0.0,-0.0,0.0,0.0,0.0,-0.3581,-0.4076,-0.4763,-0.5878,-0.6242,-0.5924,-0.468,-0.6867,-0.8268,-0.7476,-0.6951,-0.6289,-0.5371,-0.5302,-0.4927,-0.4079,-0.3973,-0.3976,-0.3983,-0.2455,-0.11,-0.0,-0.0,-0.1157,-0.3527,-0.2966,-0.2679,-0.2649,-0.2325,-0.1767,-0.0955,-0.031,-0.0,-0.0,-0.0,-0.1556,-0.3859,-0.1101,-0.0,-0.0319,-0.3049,-0.4058,-0.3884,-0.2516,-0.2009,-0.2009,-0.2009,-0.2912,-0.3825,-0.246,-0.2009,-0.2009,-0.2009,-0.106,-0.0,-0.0,-0.0,-0.0,-0.0,-0.0,-0.0,-0.0,-0.0,-0.0,-0.0,-0.0,-0.0,-0.0,-0.0224,-0.1341,-0.4058,-0.3307,-0.24,-0.2399,0.0,-0.4494,-0.4442,0.0,0.0,0.0,-0.3222,0.0,0.0,-0.3483,-0.3503,-0.3215,-0.3852,-0.4299,-0.4484,-0.4473,-0.4519,-0.4519,-0.4629,-0.4782,-0.4921,-0.5077,-0.5226,-0.5428,-0.5428,-0.5428,-0.5428,-0.5428,-0.5428,-0.5428,-0.5386,-0.4439,-0.3143,-0.4792,-0.3436,-0.0514,-0.015,-0.0,-0.0,-0.6833,-0.6707,-0.6707,-0.6707,-0.6925,-0.7217,-0.7698,-0.785,-0.7712,-0.7154,-0.7323,-0.7657,-0.8162,-0.8049,-0.7304,-0.5815,-0.5646,-0.53,-0.4343,-0.4284,-0.4309,-0.4292,-0.2859,-0.1389,-0.0051,-0.1796,-0.2721,-0.2748,-0.3061,-0.3152,-0.2947,-0.2737,-0.1992,-0.089,-0.0257,-0.0,-0.0,-0.0,-0.0721,-0.1833,-0.2441,-0.2695,-0.2749,-0.301,-0.3702,-0.4445,-0.3814,-0.3583,-0.3583,-0.3577,-0.3978,-0.4389,-0.3755,-0.3583,-0.3583,-0.3583,-0.319,-0.2516,-0.1562,-0.067,-0.0,-0.0,-0.0,-0.0,-0.0,-0.0,-0.0,-0.0,-0.0,-0.0,-0.0,-0.0,-0.0391,-0.1625,-0.2805,-0.2968,-0.1116,0.0,0.0,-0.2997,0.0,0.0,0.0,-0.3373,0.0,0.0,-0.3375,-0.3346,-0.3401,-0.3819,-0.423,-0.4506,-0.4481,-0.4519,-0.4519,-0.4613,-0.4769,-0.4921,-0.5064,-0.5213,-0.5428,-0.5428,-0.5428,-0.5428,-0.5369,-0.5372,-0.5372,-0.5396,-0.4959,-0.4183,-0.2719,-0.1271,-0.0,-0.0,-0.0,-0.0,-0.8804,-0.8804,-0.8804,-0.8804,-0.8804,-0.8804,-0.8804,-0.8804,-0.8804,-0.8804,-0.7883,-0.7616,-0.8699,-0.8315,-0.7385,-0.6027,-0.5651,-0.5218,-0.4519,-0.4519,-0.4481,-0.4502,-0.3018,-0.1919,-0.1359,-0.3422,-0.3922,-0.2805,-0.3413,-0.3578,-0.3317,-0.3179,-0.262,-0.1755,-0.0983,-0.0639,-0.0643,-0.0631,-0.0918,-0.146,-0.3166,-0.4107,-0.4392,-0.3299,-0.358,-0.449,-0.4487,-0.4487,-0.4484,-0.4477,-0.448,-0.4487,-0.4487,-0.4487,-0.4487,-0.4487,-0.449,-0.4262,-0.3183,-0.2122,-0.1118,-0.0223,-0.0,-0.0,-0.0,-0.0,-0.0,-0.0,-0.0728,-0.1065,-0.0168,-0.0,-0.028,-0.1176,-0.3091,-0.3596,-0.1004,-0.067,0.0,-0.1493,-0.2192,-0.2696,-0.2855,-0.3311,0.0,0.0,-0.3419,-0.339,-0.3605,-0.3859,-0.4165,-0.4478,-0.4522,-0.4519,-0.4519,-0.4568,-0.4721,-0.4921,-0.502,-0.5172,-0.5428,-0.5428,-0.5428,-0.5428,-0.5376,-0.5382,-0.5312,-0.4244,-0.4456,-0.5011,-0.1446,-0.0,-0.0,-0.0,-0.0,-0.0,-0.8804,-0.8804,-0.8804,-0.8804,-0.8804,-0.8804,-0.8804,-0.8804,-0.8804,-0.8804,-0.8804,-0.8758,-0.8804,-0.7111,-0.5919,-0.5919,-0.5058,-0.4519,-0.4519,-0.4519,-0.4473,-0.4494,-0.3016,-0.2907,-0.4396,-0.4473,-0.4386,-0.4154,-0.4003,-0.3846,-0.3785,-0.3648,-0.3701,-0.3816,-0.2664,-0.2167,-0.2174,-0.2196,-0.3072,-0.4324,-0.285,-0.313,-0.4494,-0.4484,-0.448,-0.4477,-0.4522,-0.4519,-0.4519,-0.4519,-0.4519,-0.4519,-0.4519,-0.4519,-0.4519,-0.4519,-0.4525,-0.448,-0.448,-0.4438,-0.3713,-0.0726,-0.0,-0.0,-0.0,-0.0,-0.0,-0.0,-0.2357,-0.3543,-0.0561,-0.0,-0.095,-0.394,-0.4458,-0.3937,-0.24,-0.2174,0.0,-0.0213,-0.2142,-0.31,-0.1945,-0.2917,0.0,0.0,-0.3707,-0.3757,-0.3614,-0.387,-0.4158,-0.4467,-0.4522,-0.4519,-0.4519,-0.4519,-0.4619,-0.4918,-0.4921,-0.5077,-0.5428,-0.5428,-0.5428,-0.5428,-0.5386,-0.5389,-0.5106,-0.1546,-0.2155,-0.5068,-0.1415,-0.0,-0.0,-0.0,-0.0,-0.0,-0.8804,-0.8804,-0.8804,-0.8804,-0.8804,-0.8804,-0.8804,-0.8804,-0.8804,-0.8804,-0.8804,-0.8043,-0.6091,-0.5332,-0.4948,-0.4948,-0.468,-0.4519,-0.4519,-0.4519,-0.4473,-0.4494,-0.3352,-0.3297,-0.4458,-0.4508,-0.447,-0.4412,-0.4209,-0.4053,-0.3948,-0.4006,-0.406,-0.4076,-0.3883,-0.3741,-0.3753,-0.3793,-0.4042,-0.4448,-0.3978,-0.4089,-0.4494,-0.4473,-0.4522,-0.4522,-0.4519,-0.4519,-0.4519,-0.4519,-0.4519,-0.4519,-0.4519,-0.4519,-0.4519,-0.4519,-0.4522,-0.4522,-0.4522,-0.448,-0.4033,-0.2009,-0.0726,-0.0559,-0.2587,-0.3093,-0.2749,-0.1732,-0.2291,-0.2965,-0.3026,-0.2235,-0.184,-0.2796,-0.3816,-0.4327,-0.3811,-0.3755,-0.3569,-0.3144,-0.2799,-0.2873,-0.3394,-0.3791,-0.3989,-0.3877,-0.3921,-0.383,-0.3588,-0.3966,-0.4222,-0.4485,-0.4525,-0.4519,-0.4519,-0.4519,-0.4565,-0.4765,-0.487,-0.5074,-0.5428,-0.5428,-0.5432,-0.5372,-0.5389,-0.5396,-0.5129,-0.1481,-0.0674,-0.1616,-0.0472,-0.0,-0.0,-0.0,-0.0,-0.0,-0.8804,-0.8804,-0.8804,-0.8804,-0.8804,-0.8804,-0.8804,-0.8804,-0.8804,-0.8804,-0.7877,-0.6524,-0.468,-0.4519,-0.4519,-0.4519,-0.4519,-0.4519,-0.4519,-0.4519,-0.4525,-0.449,-0.3516,-0.3463,-0.4501,-0.4487,-0.4477,-0.4473,-0.4375,-0.428,-0.4189,-0.4284,-0.4331,-0.4345,-0.4433,-0.4477,-0.4484,-0.4484,-0.4494,-0.4504,-0.4487,-0.4487,-0.4494,-0.4477,-0.4522,-0.4519,-0.4519,-0.4522,-0.4525,-0.4525,-0.4525,-0.4525,-0.4473,-0.4473,-0.4522,-0.4519,-0.4519,-0.4519,-0.4519,-0.4473,-0.4258,-0.3294,-0.2347,-0.2015,-0.3317,-0.411,-0.4219,-0.3246,-0.3072,-0.3352,-0.4324,-0.3694,-0.307,-0.307,-0.3863,-0.4487,-0.4484,-0.4484,-0.4519,-0.4522,-0.3661,-0.3379,-0.4133,-0.4247,-0.427,-0.4107,-0.4155,-0.4097,-0.3956,-0.4127,-0.4273,-0.4492,-0.4529,-0.4519,-0.4519,-0.4519,-0.4538,-0.4694,-0.4904,-0.5135,-0.5376,-0.5376,-0.5379,-0.5386,-0.5396,-0.5406,-0.5138,-0.1482,-0.0,-0.0,-0.0,-0.0,-0.0,-0.0,-0.0,-0.0,-0.8804,-0.8804,-0.8804,-0.8804,-0.8804,-0.8804,-0.8804,-0.8804,-0.8752,-0.8533,-0.6145,-0.4519,-0.4519,-0.4519,-0.4519,-0.4519,-0.4519,-0.4519,-0.4519,-0.4519,-0.4522,-0.448,-0.3624,-0.3569,-0.448,-0.448,-0.4473,-0.4519,-0.4519,-0.4519,-0.4519,-0.4519,-0.4519,-0.4519,-0.4519,-0.4519,-0.4519,-0.4519,-0.4473,-0.4494,-0.4484,-0.4487,-0.4494,-0.4484,-0.4473,-0.4519,-0.4519,-0.4525,-0.448,-0.4366,-0.4366,-0.4369,-0.449,-0.4432,-0.4363,-0.4467,-0.4519,-0.4519,-0.4519,-0.448,-0.4494,-0.4484,-0.4497,-0.411,-0.2681,-0.3469,-0.4494,-0.4494,-0.4487,-0.448,-0.449,-0.4487,-0.4477,-0.4477,-0.4477,-0.4473,-0.4519,-0.4519,-0.4525,-0.4499,-0.4481,-0.4428,-0.4235,-0.4399,-0.4421,-0.4197,-0.4382,-0.4515,-0.4505,-0.4331,-0.4328,-0.4515,-0.4519,-0.4519,-0.4519,-0.4519,-0.4545,-0.4711,-0.4807,-0.5026,-0.5189,-0.5189,-0.5259,-0.5396,-0.5406,-0.5276,-0.4797,-0.1414,-0.0,-0.0,-0.0,-0.0,-0.0,-0.0,-0.0,-0.0,-0.8804,-0.8804,-0.8804,-0.8804,-0.8804,-0.8804,-0.8804,-0.8804,-0.799,-0.5823,-0.4897,-0.4519,-0.4519,-0.4519,-0.4519,-0.4519,-0.4519,-0.4519,-0.4519,-0.4519,-0.4522,-0.448,-0.4298,-0.4242,-0.448,-0.4525,-0.4522,-0.4519,-0.4519,-0.4519,-0.4519,-0.4519,-0.4519,-0.4519,-0.4519,-0.4519,-0.4519,-0.4519,-0.4525,-0.4484,-0.4525,-0.4477,-0.4494,-0.4473,-0.4477,-0.4487,-0.4477,-0.4484,-0.432,-0.3128,-0.2734,-0.2959,-0.415,-0.3697,-0.2959,-0.4147,-0.4487,-0.4487,-0.4487,-0.4494,-0.4497,-0.4504,-0.4511,-0.4392,-0.403,-0.4252,-0.448,-0.4473,-0.4522,-0.4522,-0.4525,-0.4522,-0.4522,-0.4522,-0.4522,-0.4522,-0.4519,-0.4519,-0.4505,-0.4529,-0.4525,-0.4453,-0.4419,-0.4446,-0.4426,-0.4217,-0.4395,-0.4429,-0.4264,-0.4392,-0.445,-0.4473,-0.4522,-0.4525,-0.4487,-0.448,-0.4498,-0.4521,-0.3395,-0.3064,-0.3351,-0.3351,-0.41,-0.541,-0.541,-0.3845,-0.1212,-0.0337,-0.0,-0.0,-0.0,-0.0,-0.0,-0.0,-0.0,-0.0,-0.8804,-0.8804,-0.8804,-0.8804,-0.8804,-0.8804,-0.8804,-0.7664,-0.6253,-0.468,-0.4519,-0.4519,-0.4519,-0.4519,-0.4519,-0.4519,-0.4519,-0.4519,-0.4519,-0.4519,-0.4522,-0.4525,-0.4522,-0.4522,-0.4525,-0.4522,-0.4519,-0.4519,-0.4519,-0.4519,-0.4519,-0.4519,-0.4519,-0.4519,-0.4519,-0.4519,-0.4519,-0.4519,-0.4525,-0.448,-0.4473,-0.4477,-0.4487,-0.4473,-0.4477,-0.4487,-0.448,-0.449,-0.4389,-0.3535,-0.2348,-0.1563,-0.3822,-0.3937,-0.3251,-0.3423,-0.3477,-0.3469,-0.3469,-0.3984,-0.4333,-0.3646,-0.3984,-0.4487,-0.4473,-0.4525,-0.4525,-0.4519,-0.4519,-0.4519,-0.4519,-0.4519,-0.4519,-0.4519,-0.4519,-0.4519,-0.4525,-0.4525,-0.4525,-0.4525,-0.4525,-0.4525,-0.4525,-0.4525,-0.4443,-0.4321,-0.3767,-0.3382,-0.3268,-0.4055,-0.449,-0.448,-0.3796,-0.3799,-0.4497,-0.3805,-0.3792,-0.4486,-0.3628,-0.2615,-0.1448,-0.1448,-0.1991,-0.2965,-0.2965,-0.1818,-0.0,-0.0,-0.0,-0.0,-0.0,-0.0,-0.0,-0.0,-0.0,-0.0,-0.8804,-0.8804,-0.8804,-0.8804,-0.8804,-0.8804,-0.8804,-0.6362,-0.4519,-0.4519,-0.4519,-0.4519,-0.4519,-0.4519,-0.4519,-0.4519,-0.4519,-0.4519,-0.4519,-0.4519,-0.4519,-0.4519,-0.4519,-0.4519,-0.4519,-0.4519,-0.4519,-0.4519,-0.4519,-0.4519,-0.4519,-0.4519,-0.4519,-0.4519,-0.4519,-0.4519,-0.4519,-0.4519,-0.4522,-0.4477,-0.4477,-0.4477,-0.448,-0.448,-0.448,-0.4484,-0.4484,-0.4212,-0.3828,-0.3828,-0.2128,-0.0447,-0.3039,-0.4123,-0.4172,-0.2359,-0.1847,-0.1842,-0.1842,-0.28,-0.3599,-0.2738,-0.3516,-0.4522,-0.4519,-0.4519,-0.4519,-0.4519,-0.4519,-0.4519,-0.4519,-0.4519,-0.4522,-0.4522,-0.4522,-0.4525,-0.448,-0.4311,-0.4141,-0.4141,-0.4366,-0.4484,-0.4484,-0.4311,-0.4258,-0.4497,-0.3302,-0.2458,-0.2233,-0.3644,-0.4497,-0.4484,-0.3016,-0.2961,-0.4497,-0.274,-0.2503,-0.3842,-0.3842,-0.2491,-0.0,-0.0,-0.0,-0.0,-0.0,-0.0,-0.0,-0.0,-0.0,-0.0,-0.0,-0.0,-0.0,-0.0,-0.0,-0.0,-0.8804,-0.8804,-0.8804,-0.8804,-0.8804,-0.8804,-0.8804,-0.6362,-0.4519,-0.4519,-0.4519,-0.4519,-0.4519,-0.4519,-0.4519,-0.4519,-0.4519,-0.4519,-0.4519,-0.4519,-0.4519,-0.4519,-0.4519,-0.4519,-0.4519,-0.4519,-0.4519,-0.4519,-0.4519,-0.4519,-0.4519,-0.4519,-0.4519,-0.4519,-0.4519,-0.4519,-0.4519,-0.4519,-0.4519,-0.4522,-0.4522,-0.4525,-0.448,-0.448,-0.449,-0.4507,-0.4507,-0.2863,-0.0672,-0.0672,-0.0392,-0.0056,-0.0561,-0.2473,-0.3955,-0.1178,-0.0336,-0.0336,-0.0336,-0.0504,-0.1232,-0.3588,-0.432,-0.4487,-0.4522,-0.4519,-0.4519,-0.4519,-0.4519,-0.4519,-0.4519,-0.4525,-0.4477,-0.4477,-0.4484,-0.449,-0.4494,-0.3355,-0.2565,-0.2565,-0.3694,-0.4494,-0.4494,-0.3299,-0.3077,-0.4396,-0.4281,-0.3593,-0.2294,-0.366,-0.4521,-0.4507,-0.3021,-0.2965,-0.4511,-0.1737,-0.0456,-0.0707,-0.0707,-0.048,-0.0,-0.0,-0.0,-0.0,-0.0,-0.0,-0.0,-0.0,-0.0,-0.0,-0.0,-0.0,-0.0,-0.0,-0.0,-0.0,-0.8804,-0.8804,-0.8804,-0.8804,-0.8804,-0.8804,-0.8804,-0.6362,-0.4519,-0.4519,-0.4519,-0.4519,-0.4519,-0.4519,-0.4791,-0.5555,-0.5386,-0.5386,-0.5605,-0.4901,-0.4519,-0.4519,-0.4519,-0.4519,-0.4519,-0.4519,-0.4519,-0.4519,-0.4519,-0.4519,-0.4519,-0.4519,-0.4519,-0.4519,-0.4519,-0.4519,-0.4519,-0.4519,-0.4519,-0.4519,-0.4519,-0.4525,-0.448,-0.448,-0.4494,-0.4514,-0.4514,-0.2581,-0.0,-0.0,-0.0,-0.0,-0.0,-0.0954,-0.1797,-0.0393,-0.0,-0.0,-0.0,-0.0,-0.0503,-0.2738,-0.3863,-0.4484,-0.4522,-0.4519,-0.4519,-0.4519,-0.4522,-0.4525,-0.4525,-0.448,-0.4203,-0.3408,-0.3241,-0.353,-0.4389,-0.3875,-0.2854,-0.1228,-0.1619,-0.2742,-0.4333,-0.3875,-0.3084,-0.2132,-0.0559,0.067,0.1398,-0.0056,-0.0893,-0.0892,-0.0949,-0.1343,-0.2076,-0.0672,-0.0,-0.0,-0.0,-0.0,-0.0,-0.0,-0.0,-0.0,-0.0,0.112,0.2774,0.0804,-0.0,-0.0,-0.0,-0.0,-0.0,-0.0,-0.0,-0.0,-0.8804,-0.8804,-0.8804,-0.8804,-0.8804,-0.8804,-0.8804,-0.6362,-0.4519,-0.4519,-0.4519,-0.4519,-0.4519,-0.5117,-0.5823,-0.6534,-0.6362,-0.6362,-0.6588,-0.5609,-0.5007,-0.5007,-0.4842,-0.468,-0.4519,-0.4519,-0.4519,-0.4519,-0.4519,-0.4519,-0.4519,-0.4519,-0.4519,-0.4519,-0.4519,-0.4519,-0.4519,-0.4519,-0.4519,-0.4519,-0.4519,-0.4522,-0.4473,-0.4249,-0.4147,-0.4163,-0.3993,-0.2242,-0.0,-0.0,-0.0,-0.0,-0.0,-0.0,-0.0,-0.0,-0.0,-0.0,-0.0,-0.0,-0.0279,-0.1395,-0.3128,-0.448,-0.4525,-0.4522,-0.4522,-0.4522,-0.4477,-0.4369,-0.4027,-0.4265,-0.4098,-0.2907,-0.2122,-0.2124,-0.3258,-0.3431,-0.2579,-0.028,0.0615,0.0112,-0.2183,-0.2747,-0.1959,0.0336,0.2635,0.411,0.4455,0.3363,0.2738,0.2738,0.0951,-0.0,-0.0,-0.0,-0.0,-0.0,-0.0,-0.0,-0.0,-0.0,0.0358,0.104,0.1073,0.2247,0.4022,0.2051,0.0735,-0.0,-0.0,-0.0,-0.0,-0.0,-0.0,-0.0,-0.8804,-0.8804,-0.8804,-0.8804,-0.8804,-0.8804,-0.8804,-0.6362,-0.4519,-0.4519,-0.4519,-0.4519,-0.4519,-0.6902,-0.799,-0.6696,-0.702,-0.7074,-0.6642,-0.648,-0.6426,-0.6426,-0.5764,-0.5109,-0.4519,-0.4519,-0.4519,-0.4519,-0.4519,-0.4519,-0.4519,-0.4519,-0.4519,-0.4519,-0.4519,-0.4519,-0.4519,-0.4519,-0.4519,-0.4519,-0.4519,-0.4519,-0.4405,-0.3456,-0.3121,-0.3065,-0.2567,-0.1339,-0.0,-0.0,-0.0,-0.0,-0.0,-0.0,-0.0,-0.0,-0.0,-0.0,-0.0,-0.0,-0.0,-0.0112,-0.2347,-0.4494,-0.448,-0.4477,-0.4477,-0.4477,-0.4487,-0.4039,-0.2623,-0.3535,-0.4455,-0.434,-0.1962,-0.0224,-0.0336,-0.0336,-0.0224,-0.0,0.2469,0.4054,0.3884,0.2571,0.1783,0.2007,0.2232,0.3019,0.4442,0.4383,0.433,0.434,0.151,-0.0,-0.0,-0.0,-0.0,-0.0,-0.0,-0.0,-0.0,-0.0,0.1534,0.4163,0.4172,0.2706,0.0644,0.3761,0.3031,-0.0,-0.0,-0.0,-0.0,-0.0,-0.0,-0.0,-0.8804,-0.8804,-0.8804,-0.8804,-0.8804,-0.8804,-0.8804,-0.6362,-0.4519,-0.4519,-0.6036,-0.7176,-0.7176,-0.8156,-0.8586,-0.799,-0.8156,-0.7996,-0.7343,-0.7289,-0.6853,-0.5977,-0.5273,-0.4948,-0.5113,-0.5109,-0.5328,-0.5828,-0.5828,-0.5828,-0.5769,-0.5332,-0.5109,-0.5109,-0.4677,-0.4519,-0.4519,-0.4519,-0.4519,-0.4519,-0.4519,-0.4522,-0.447,-0.4079,-0.3913,-0.3919,-0.3697,-0.3246,-0.2629,-0.1673,-0.0781,-0.0,-0.0,-0.0,-0.0,-0.0,-0.0,-0.0,-0.0,-0.0,-0.0,-0.0,-0.0837,-0.2178,-0.4092,-0.449,-0.4203,-0.3294,-0.3814,-0.4333,-0.3708,-0.2579,-0.1682,-0.1682,-0.0728,-0.0,-0.0,-0.0,-0.0,-0.0,0.1009,0.2469,0.434,0.3993,0.3646,0.3641,0.3635,0.386,0.4484,0.4487,0.449,0.4504,0.3368,0.1905,-0.0,-0.0,-0.0,-0.0,-0.0,-0.0,-0.0,-0.0,0.1657,0.4492,0.4526,0.3939,0.2997,0.2353,0.2538,0.3097,0.087,-0.0,-0.0,-0.0,-0.0,-0.0,-0.8804,-0.8804,-0.8804,-0.8804,-0.8804,-0.8804,-0.8804,-0.7122,-0.5873,-0.5873,-0.7551,-0.8804,-0.8804,-0.8804,-0.8804,-0.8804,-0.8804,-0.848,-0.7723,-0.7509,-0.6907,-0.5873,-0.5386,-0.5386,-0.5814,-0.5873,-0.6091,-0.6588,-0.6588,-0.6588,-0.6588,-0.5873,-0.5487,-0.5487,-0.4787,-0.4519,-0.4519,-0.4519,-0.4519,-0.4519,-0.4519,-0.4629,-0.4798,-0.4798,-0.4971,-0.5144,-0.5144,-0.5085,-0.4743,-0.3392,-0.2225,-0.1336,-0.0837,-0.0391,-0.0,-0.0,-0.0,-0.0,-0.0,-0.0,-0.0,-0.0,-0.0,-0.0559,-0.2627,-0.3816,-0.4216,-0.3135,-0.3028,-0.3091,-0.3091,-0.1401,-0.0,-0.0,-0.0,-0.0,-0.0,-0.0,-0.0,-0.0,-0.0,0.1008,0.3538,0.4219,0.4497,0.4487,0.448,0.448,0.4484,0.4484,0.449,0.4501,0.4511,0.3035,0.0056,-0.0,-0.0,-0.0,-0.0,-0.0,-0.0,-0.0,0.112,0.3149,0.4104,0.4581,0.4572,0.2369,0.2306,0.3441,0.0999,-0.0,-0.0,-0.0,-0.0,-0.0,-0.8804,-0.8804,-0.8804,-0.8804,-0.8804,-0.8804,-0.8804,-0.8804,-0.8804,-0.8804,-0.8811,-0.8804,-0.8804,-0.8811,-0.8811,-0.8811,-0.8804,-0.848,-0.7723,-0.702,-0.6588,-0.6588,-0.6588,-0.6588,-0.6588,-0.6588,-0.6588,-0.6642,-0.6642,-0.6642,-0.6588,-0.5869,-0.5542,-0.5483,-0.4787,-0.4519,-0.4519,-0.4519,-0.4519,-0.4519,-0.4519,-0.4893,-0.5487,-0.5487,-0.5982,-0.6588,-0.6588,-0.6298,-0.5734,-0.4809,-0.4491,-0.4223,-0.2674,-0.1172,-0.0,-0.0,-0.0,-0.0,-0.0,-0.0,-0.0,-0.0,-0.0,-0.0,-0.0,-0.2296,-0.4458,-0.4458,-0.2076,-0.0,-0.0,-0.0,-0.0,-0.0,-0.0,-0.0,-0.0,-0.0,-0.0,-0.0,-0.0,0.0558,0.2063,0.3577,0.4473,0.4519,0.4473,0.4484,0.4497,0.4497,0.4501,0.4514,0.4514,0.3091,0.0056,-0.0,-0.0,0.0056,-0.0,-0.0,-0.0,-0.0,-0.0,0.0168,0.3144,0.4482,0.451,0.447,0.2704,-0.0,-0.0,-0.0,-0.0,-0.0,-0.0,-0.0,-0.9166,-0.8804,-0.8804,-0.8804,-0.8804,-0.8804,-0.8804,-0.8804,-0.8804,-0.8804,-0.9361,-0.9762,-0.9762,-0.9614,-0.951,-0.951,-0.9061,-0.848,-0.7723,-0.702,-0.6804,-0.7348,-0.6858,-0.6858,-0.7343,-0.7396,-0.7616,-0.8156,-0.8156,-0.8156,-0.8156,-0.7391,-0.7069,-0.7009,-0.576,-0.5492,-0.5932,-0.4901,-0.5062,-0.5932,-0.5382,-0.5655,-0.6258,-0.6258,-0.6421,-0.6588,-0.6588,-0.6199,-0.5588,-0.5316,-0.4893,-0.4415,-0.3978,-0.2066,-0.0,-0.0,-0.0,-0.0,-0.0,-0.0,-0.0,-0.0,-0.0,-0.0,-0.0,-0.0672,-0.1345,-0.1345,-0.0617,-0.0,-0.0,-0.0,-0.0,-0.0,-0.0,-0.0,-0.0,-0.0,-0.0,-0.0,-0.0,0.1008,0.3538,0.4219,0.4497,0.4487,0.3522,0.2903,0.2905,0.3931,0.4511,0.4514,0.4521,0.4064,0.3147,0.1065,0.1065,0.3147,0.1009,-0.0,-0.0,-0.0,-0.0,0.0056,0.0952,0.254,0.4362,0.2242,0.0791,-0.0,-0.0,-0.0,-0.0,-0.0,-0.0,-0.0,-1.0744,-0.9569,-0.8804,-0.8804,-0.8804,-0.8804,-0.8804,-0.8804,-0.8804,-0.8804,-0.9614,-1.0167,-1.0064,-0.9917,-0.9814,-0.9814,-0.8942,-0.8156,-0.7723,-0.7545,-0.7641,-0.8078,-0.8218,-0.8224,-0.8156,-0.8156,-0.8374,-0.8804,-0.8804,-0.8804,-0.8804,-0.8049,-0.7723,-0.767,-0.647,-0.6204,-0.6534,-0.5719,-0.5828,-0.6588,-0.6091,-0.6362,-0.702,-0.702,-0.7235,-0.745,-0.7128,-0.674,-0.6303,-0.5706,-0.5062,-0.4477,-0.449,-0.3249,-0.1564,-0.0335,-0.0,-0.0,-0.0,-0.0,-0.0,-0.0,-0.0,-0.0,-0.0,-0.0,-0.0,-0.0,-0.0,-0.0,-0.0,-0.0,-0.0,-0.0,-0.0,-0.0,-0.0,-0.0,-0.0,-0.0,-0.0,0.0728,0.2523,0.3256,0.3822,0.4445,0.3646,0.2573,0.1397,0.2242,0.2695,0.2695,0.389,0.4521,0.4514,0.2691,0.2408,0.3591,0.2355,0.1175,-0.0,-0.0,-0.0,-0.0,-0.0,0.1009,0.2589,0.0755,-0.0,-0.0,-0.0,-0.0,-0.0,-0.0,-0.0877,-0.2159,-1.2578,-1.0541,-0.8804,-0.8804,-0.8804,-0.8804,-0.8804,-0.8804,-0.8804,-0.891,-0.9718,-1.0167,-1.0012,-0.9961,-0.9961,-0.9917,-0.8613,-0.783,-0.7877,-0.8435,-0.8835,-0.8888,-1.0136,-1.0218,-0.891,-0.891,-0.891,-0.891,-0.8804,-0.8804,-0.8804,-0.8103,-0.7777,-0.7777,-0.702,-0.675,-0.6804,-0.6642,-0.6696,-0.6804,-0.675,-0.7128,-0.7777,-0.7723,-0.8103,-0.8586,-0.7883,-0.7557,-0.7283,-0.5869,-0.5003,-0.4522,-0.4487,-0.4497,-0.3987,-0.1232,-0.0224,-0.0,-0.0,-0.0,-0.0,-0.0,-0.0,-0.0,-0.0,-0.0,-0.0,-0.0,-0.0,-0.0,-0.0,-0.0,-0.0,-0.0,-0.0,-0.0,-0.0,-0.0,-0.0,-0.0,-0.0,-0.0,-0.0,0.123,0.2579,0.3999,0.4113,0.2921,0.0168,-0.0,-0.0,-0.0,0.2921,0.4514,0.4514,0.4504,0.3811,0.2399,0.3822,0.2974,0.0167,0.0056,-0.0,-0.0,-0.0,-0.0,-0.0,-0.0,-0.0,-0.0,-0.0,-0.0193,-0.0454,-0.0466,-0.256,-0.5373,-1.0131,-0.9218,-0.8804,-0.8804,-0.8804,-0.8804,-0.8804,-0.8804,-0.9061,-0.9814,-1.0364,-1.0864,-1.1316,-1.1366,-1.1166,-1.0618,-0.9347,-0.8791,-0.9295,-0.9496,-0.9799,-1.034,-1.0661,-1.0415,-0.9614,-0.9562,-0.9562,-0.9562,-0.9061,-0.8804,-0.8804,-0.8646,-0.854,-0.8533,-0.7777,-0.7777,-0.8262,-0.7074,-0.7289,-0.8262,-0.767,-0.7883,-0.848,-0.7937,-0.7777,-0.783,-0.7128,-0.647,-0.5869,-0.5003,-0.4632,-0.4477,-0.448,-0.4494,-0.4396,-0.3713,-0.185,-0.0,-0.0,-0.0,-0.0,-0.0,-0.0,-0.0,-0.0,-0.0,-0.0,-0.0,-0.0,-0.0,-0.0,-0.0,-0.0,-0.0,-0.0,-0.0,-0.0,-0.0,-0.0,-0.0,-0.0,-0.0,-0.0,0.028,0.0616,0.0953,0.0953,0.0672,0.0056,-0.0,-0.0,-0.0,0.2927,0.4521,0.4514,0.4511,0.433,0.4027,0.433,0.3538,0.1673,0.0504,-0.0,-0.0,-0.0,-0.0,-0.0,-0.0,-0.0,-0.0,-0.0,-0.1737,-0.4229,-0.4248,-0.4716,-0.542,-0.9316,-0.8804,-0.8804,-0.8804,-0.8804,-0.8804,-0.8804,-0.9159,-0.9614,-0.9969,-1.0771,-1.1416,-1.1783,-1.1823,-1.1416,-1.0415,-0.9413,-0.9061,-0.9762,-1.0115,-1.0568,-1.1266,-1.1266,-1.1116,-1.0762,-1.0115,-0.9666,-0.9309,-0.8956,-0.8804,-0.8804,-0.8804,-0.8804,-0.8804,-0.8374,-0.8427,-0.8752,-0.799,-0.8103,-0.8752,-0.7996,-0.7943,-0.8209,-0.7456,-0.7182,-0.7074,-0.6362,-0.5601,-0.4948,-0.4625,-0.4525,-0.4366,-0.3633,-0.3928,-0.4228,-0.2751,-0.1233,-0.0,-0.0,-0.0,-0.0,-0.0,-0.0,-0.0,-0.0,-0.0,-0.0,-0.0,-0.0,-0.0,-0.0,-0.0,-0.0,-0.0,-0.0,-0.0,-0.0,-0.0,-0.0,-0.0,-0.0,-0.0,-0.0,-0.0,-0.0,-0.0,-0.0,-0.0,-0.0,-0.0,-0.0,-0.0,0.1514,0.3035,0.4514,0.3764,0.3416,0.3408,0.416,0.4051,0.3195,0.1008,-0.0,-0.0,-0.0,-0.0,-0.0,-0.0,-0.0,-0.0115,-0.1581,-0.3318,-0.4882,-0.4296,-0.4677,-0.5406,-0.9932,-0.9113,-0.8857,-0.9008,-0.891,-0.8857,-0.8956,-0.9614,-1.0115,-1.0167,-1.1116,-1.1873,-1.195,-1.1783,-1.1216,-1.0218,-0.9309,-0.9106,-0.9917,-1.0517,-1.1065,-1.1616,-1.1765,-1.1715,-1.1466,-1.0364,-0.951,-0.8956,-0.8857,-0.8804,-0.8804,-0.8804,-0.8804,-0.8804,-0.8804,-0.8804,-0.8804,-0.8646,-0.8593,-0.8533,-0.783,-0.7503,-0.745,-0.6691,-0.6421,-0.6312,-0.5601,-0.4948,-0.4519,-0.4519,-0.4525,-0.4255,-0.2679,-0.2912,-0.3261,-0.0728,-0.0,-0.0,-0.0,-0.0,-0.0,-0.0,-0.0,-0.0,-0.0,-0.0,-0.0,-0.0,-0.0,-0.0,-0.0,-0.0,-0.0,-0.0,-0.0,-0.0,-0.0,-0.0,-0.0,-0.0,-0.0,-0.0,-0.0,-0.0,-0.0,-0.0,-0.0,-0.0,-0.0,-0.0,-0.0,-0.0,-0.0,0.1174,0.3713,0.2687,0.2178,0.2233,0.3766,0.4514,0.4399,0.1401,-0.0,-0.0,-0.0,-0.0,-0.0,-0.0,-0.028,-0.1011,-0.3537,-0.4478,-0.4411,-0.3407,-0.4069,-0.5393,-1.2421,-1.0438,-0.9061,-0.9865,-0.9361,-0.9008,-0.9562,-0.9762,-1.0261,-1.1366,-1.1665,-1.203,-1.2666,-1.1642,-1.1116,-1.1516,-0.9865,-0.9309,-1.0568,-1.0771,-1.0864,-1.0914,-1.1516,-1.1266,-1.0115,-0.9917,-0.9762,-0.9666,-0.9061,-0.8804,-0.8804,-0.8804,-0.8804,-0.8804,-0.8804,-0.8804,-0.8752,-0.8103,-0.783,-0.7777,-0.702,-0.675,-0.6642,-0.5928,-0.5651,-0.5542,-0.4897,-0.457,-0.4519,-0.4519,-0.4477,-0.4209,-0.2681,-0.1453,-0.0505,-0.0112,-0.0,-0.0,-0.0,-0.0,-0.0,-0.0,-0.0,-0.0,-0.0,-0.0,-0.0,-0.0,-0.0,-0.0,-0.0,-0.0,-0.0,-0.0,-0.0,-0.0,-0.0,-0.0,-0.0,-0.0,-0.0,-0.0,-0.0,-0.0,-0.0,-0.0,-0.0,-0.0,-0.0,-0.0,-0.0,-0.0,-0.0,0.0168,0.0617,0.1684,0.2189,0.2245,0.3781,0.4524,0.4399,0.1401,-0.0,-0.0,-0.0,-0.0,-0.0,-0.0,-0.1514,-0.3943,-0.4363,-0.4502,-0.4523,-0.4556,-0.4931,-0.5382,-1.2881,-1.1091,-0.971,-1.0115,-0.9413,-0.9008,-0.971,-1.0115,-1.072,-1.1665,-1.2187,-1.2559,-1.2871,-1.199,-1.1316,-1.1266,-1.0415,-1.0167,-1.0762,-1.0813,-1.0965,-1.1366,-1.0914,-1.0415,-0.9814,-0.9413,-0.9263,-0.9263,-0.8962,-0.8804,-0.8804,-0.8804,-0.8804,-0.8804,-0.8804,-0.8586,-0.8156,-0.783,-0.745,-0.702,-0.6253,-0.5982,-0.5928,-0.5218,-0.4948,-0.4893,-0.4625,-0.4519,-0.4519,-0.4525,-0.4484,-0.4383,-0.3702,-0.1903,-0.0,-0.0,-0.0,-0.0,-0.0,-0.0,-0.0,-0.0,-0.0,-0.0,-0.0,-0.0,-0.0,-0.0,-0.0,-0.0,-0.0,-0.0,-0.0,-0.0,-0.0,-0.0,-0.0,-0.0,-0.0,-0.0,-0.0,-0.0,-0.0,-0.0,-0.0,-0.0,-0.0,-0.0,-0.0,-0.1625,-0.2525,-0.2525,-0.1679,-0.1229,-0.1229,0.0224,0.0952,0.0952,0.1684,0.1965,0.1964,0.0617,-0.0,-0.0112,-0.1794,-0.2525,-0.2469,-0.1566,-0.2012,-0.3307,-0.4154,-0.4522,-0.4604,-0.4803,-0.4424,-0.4004]},{"header":{"parameterUnit":"m.s-1","parameterCategory":1,"la1":30.6,"la2":28.766,"lo1":-90.7593,"lo2":-88.6598,"dy":0.0162,"dx":0.0183,"nx":116,"ny":114,"refTime":"2024-06-24T00:00:00:Z","depth":0,"parameterNumber":3,"parameterNumberName":"V-component_of_WINDS"},"data":[0.0,0.0,0.0,0.0,0.0,0.0,0.0,0.0,0.0,0.0,0.0,0.0,0.0,0.0,0.0,0.0,0.0,0.0,0.0,0.0,0.0,0.0,0.0,0.0,0.0,0.0,0.0,0.0,0.0,0.0,0.0,0.0,0.0,0.0,0.0,0.0,0.0,0.0,0.0,0.0,0.0,0.0,0.0,0.0,0.0,0.0,0.0,0.0,0.0,0.0,0.0,0.0,0.0,0.0,0.0,0.0,0.0,0.0,0.0,0.0,0.0,0.0,0.0,0.0,0.0,0.0,0.0,0.0,0.0,0.0,0.0,0.0,0.0,0.0,0.0,0.0,0.0,0.0,0.0,0.0,0.0,0.0,0.0,0.0,0.0,0.0,0.0,0.0,0.0,0.0,0.0,0.0,0.0,0.0,0.0,0.0,0.0,0.0,0.0,0.0,0.0,0.0,0.0,0.0,0.0,0.0,0.0,0.0,0.0,0.0,0.0,0.0,0.0,0.0,0.0,0.0,0.0,0.0,0.0,0.0,0.0,0.0,0.0,0.0,0.0,0.0,0.0,0.0,0.0,0.0,0.0,0.0,0.0,0.0,0.0,0.0,0.0,0.0,0.0,0.0,0.0,0.0,0.0,0.0,0.0,0.0,0.0,0.0,0.0,0.0,0.0,0.0,0.0,0.0,0.0,0.0,0.0,0.0,0.0,0.0,0.0,0.0,0.0,0.0,0.0,0.0,0.0,0.0,0.0,0.0,0.0,0.0,0.0,0.0,0.0,0.0,0.0,0.0,0.0,0.0,0.0,0.0,0.0,0.0,0.0,0.0,0.0,0.0,0.0,0.0,0.0,0.0,0.0,0.0,0.0,0.0,0.0,0.0,0.0,0.0,0.0,0.0,0.0,0.0,0.0,0.0,0.0,0.0,0.0,0.0,0.0,0.0,0.0,0.0,0.0,0.0,0.0,0.0,0.0,0.0,0.0,0.0,0.0,0.0,0.0,0.0,0.0,0.0,0.0,0.0,0.0,0.0,0.0,0.0,0.0,0.0,0.0,0.0,0.0,0.0,0.0,0.0,0.0,0.0,0.0,0.0,0.0,0.0,0.0,0.0,0.0,0.0,0.0,0.0,0.0,0.0,0.0,0.0,0.0,0.0,0.0,0.0,0.0,0.0,0.0,0.0,0.0,0.0,0.0,0.0,0.0,0.0,0.0,0.0,0.0,0.0,0.0,0.0,0.0,0.0,0.0,0.0,0.0,0.0,0.0,0.0,0.0,0.0,0.0,0.0,0.0,0.0,0.0,0.0,0.0,0.0,0.0,0.0,0.0,0.0,0.0,0.0,0.0,0.0,0.0,0.0,0.0,0.0,0.0,0.0,0.0,0.0,0.0,0.0,0.0,0.0,0.0,0.0,0.0,0.0,0.0,0.0,0.0,0.0,0.0,0.0,0.0,0.0,0.0,0.0,0.0,0.0,0.0,0.0,0.0,0.0,0.0,0.0,0.0,0.0,0.0,0.0,0.0,0.0,0.0,0.0,0.0,0.0,0.0,0.0,0.0,0.0,0.0,0.0,0.0,0.0,0.0,0.0,0.0,0.0,0.0,0.0,0.0,0.0,0.0,0.0,0.0,0.0,0.0,0.0,0.0,0.0,0.0,0.0,0.0,0.0,0.0,0.0,0.0,0.0,0.0,0.0,0.0,0.0,0.0,0.0,0.0,0.0,0.0,0.0,0.0,0.0,0.0,0.0,0.0,0.0,0.0,0.0,0.0,0.0,0.0,0.0,0.0,0.0,0.0,0.0,0.0,0.0,0.0,0.0,0.0,0.0,0.0,0.0,0.0,0.0,0.0,0.0,0.0,0.0,0.0,0.0,0.0,0.0,0.0,0.0,0.0,0.0,0.0,0.0,0.0,0.0,0.0,0.0,0.0,0.0,0.0,0.0,0.0,0.0,0.0,0.0,0.0,0.0,0.0,0.0,0.0,0.0,0.0,0.0,0.0,0.0,0.0,0.0,0.0,0.0,0.0,0.0,0.0,0.0,0.0,0.0,0.0,0.0,0.0,0.0,0.0,0.0,0.0,0.0,0.0,0.0,0.0,0.0,0.0,0.0,0.0,0.0,0.0,0.0,0.0,0.0,0.0,0.0,0.0,0.0,0.0,0.0,0.0,0.0,0.0,0.0,0.0,0.0,0.0,0.0,0.0,0.0,0.0,0.0,0.0,0.0,0.0,0.0,0.0,0.0,0.0,0.0,0.0,0.0,0.0,0.0,0.0,0.0,0.0,0.0,0.0,0.0,0.0,0.0,0.0,0.0,0.0,0.0,0.0,0.0,0.0,0.0,0.0,0.0,0.0,0.0,0.0,0.0,0.0,0.0,0.0,0.0,0.0,0.0,0.0,0.0,0.0,0.0,0.0,0.0,0.0,0.0,0.0,0.0,0.0,0.0,0.0,0.0,0.0,0.0,0.0,0.0,0.0,0.0,0.0,0.0,0.0,0.0,0.0,0.0,0.0,0.0,0.0,0.0,0.0,0.0,0.0,0.0,0.0,0.0,0.0,0.0,0.0,0.0,0.0,0.0,0.0,0.0,0.0,0.0,0.0,0.0,0.0,0.0,0.0,0.0,0.0,0.0,0.0,0.0,0.0,0.0,0.0,0.0,0.0,0.0,0.0,0.0,0.0,0.0,0.0,0.0,0.0,0.0,0.0,0.0,0.0,0.0,0.0,0.0,0.0,0.0,0.0,0.0,0.0,0.0,0.0,0.0,0.0,0.0,0.0,0.0,0.0,0.0,0.0,0.0,0.0,0.0,0.0,0.0,0.0,0.0,0.0,0.0,0.0,0.0,0.0,0.0,0.0,0.0,0.0,0.0,0.0,0.0,0.0,0.0,0.0,0.0,0.0,0.0,0.0,0.0,0.0,0.0,0.0,0.0,0.0,0.0,0.0,0.0,0.0,0.0,0.0,0.0,0.0,0.0,0.0,0.0,0.0,0.0,0.0,0.0,0.0,0.0,0.0,0.0,0.0,0.0,0.0,0.0,0.0,0.0,0.0,0.0,0.0,0.0,0.0,0.0,0.0,0.0,0.0,0.0,0.0,0.0,0.0,0.0,0.0,0.0,0.0,0.0,0.0,0.0,0.0,0.0,0.0,0.0,0.0,0.0,0.0,0.0,0.0,0.0,0.0,0.0,0.0,0.0,0.0,0.0,0.0,0.0,0.0,0.0,0.0,0.0,0.0,0.0,0.0,0.0,0.0,0.0,0.0,0.0,0.0,0.0,0.0,0.0,0.0,0.0,0.0,0.0,0.0,0.0,0.0,0.0,0.0,0.0,0.0,0.0,0.0,0.0,0.0,0.0,0.0,0.0,0.0,0.0,0.0,0.0,0.0,0.0,0.0,0.0,0.0,0.0,0.0,0.0,0.0,0.0,0.0,0.0,0.0,0.0,0.0,0.0,0.0,0.0,0.0,0.0,0.0,0.0,0.0,0.0,0.0,0.0,0.0,0.0,0.0,0.0,0.0,0.0,0.0,0.0,0.0,0.0,0.0,0.0,0.0,0.0,0.0,0.0,0.0,0.0,0.0,0.0,0.0,0.0,0.0,0.0,0.0,0.0,0.0,0.0,0.0,0.0,0.0,0.0,0.0,0.0,0.0,0.0,0.0,0.0,0.0,0.0,0.0,0.0,0.0,0.0,0.0,0.0,0.0,0.0,0.0,0.0,0.0,0.0,0.0,0.0,0.0,0.0,0.0,0.0,0.0,0.0,0.0,0.0,0.0,0.0,0.0,0.0,0.0,0.0,0.0,0.0,0.0,0.0,0.0,0.0,0.0,0.0,0.0,0.0,0.0,0.0,0.0,0.0,0.0,0.0,0.0,0.0,0.0,0.0,0.0,0.0,0.0,0.0,0.0,0.0,0.0,0.0,0.0,0.0,0.0,0.0,0.0,0.0,0.0,0.0,0.0,0.0,0.0,0.0,0.0,0.0,0.0,0.0,0.0,0.0,0.0,0.0,0.0,0.0,0.0,0.0,0.0,0.0,0.0,0.0,0.0,0.0,0.0,0.0,0.0,0.0,0.0,0.0,0.0,0.0,0.0,0.0,0.0,0.0,0.0,0.0,0.0,0.0,0.0,0.0,0.0,0.0,0.0,0.0,0.0,0.0,0.0,0.0,0.0,0.0,0.0,0.0,0.0,0.0,0.0,0.0,0.0,0.0,0.0,0.0,0.0,0.0,0.0,0.0,0.0,0.0,0.0,0.0,0.0,0.0,0.0,0.0,0.0,0.0,0.0,0.0,0.0,0.0,0.0,0.0,0.0,0.0,0.0,0.0,0.0,0.0,0.0,0.0,0.0,0.0,0.0,0.0,0.0,0.0,0.0,0.0,0.0,0.0,0.0,0.0,0.0,0.0,0.0,0.0,0.0,0.0,0.0,0.0,0.0,0.0,0.0,0.0,0.0,0.0,0.0,0.0,0.0,0.0,0.0,0.0,0.0,0.0,0.0,0.0,0.0,0.0,0.0,0.0,0.0,0.0,0.0,0.0,0.0,0.0,0.0,0.0,0.0,0.0,0.0,0.0,0.0,0.0,0.0,0.0,0.0,0.0,0.0,0.0,0.0,0.0,0.0,0.0,0.0,0.0,0.0,0.0,0.0,0.0,0.0,0.0,0.0,0.0,0.0,0.0,0.0,0.0,0.0,0.0,0.0,0.0,0.0,0.0,0.0,0.0,0.0,0.0,0.0,0.0,0.0,0.0,0.0,0.0,0.0,0.0,0.0,0.0,0.0,0.0,0.0,0.0,0.0,0.0,0.0,0.0,0.0,0.0,0.0,0.0,0.0,0.0,0.0,0.0,0.0,0.0,0.0,0.0,0.0,0.0,0.0,0.0,0.0,0.0,0.0,0.0,0.0,0.0,0.0,0.0,0.0,0.0,0.0,0.0,0.0,0.0,0.0,0.0,0.0,0.0,0.0,0.0,0.0,0.0,0.0,0.0,0.0,0.0,0.0,0.0,0.0,0.0,0.0,0.0,0.0,0.0,0.0,0.0,0.0,0.0,0.0,0.0,0.0,0.0,0.0,0.0,0.0,0.0,0.0,0.0,0.0,0.0,0.0,0.0,0.0,0.0,0.0,0.0,0.0,0.0,0.0,0.0,0.0,0.0,0.0,0.0,0.0,0.0,0.0,0.0,0.0,0.0,0.0,0.0,0.0,0.0,0.0,0.0,0.0,0.0,0.0,0.0,0.0,0.0,0.0,0.0,0.0,0.0,0.0,0.0,0.0,0.0,0.0,0.0,0.0,0.0,0.0,0.0,0.0,0.0,0.0,0.0,0.0,0.0,0.0,0.0,0.0,0.0,0.0,0.0,0.0,0.0,0.0,0.0,0.0,0.0,0.0,0.0,0.0,0.0,0.0,0.0,0.0,0.0,0.0,0.0,0.0,0.0,0.0,0.0,0.0,0.0,0.0,0.0,0.0,0.0,0.0,0.0,0.0,0.0,0.0,0.0,0.0,0.0,0.0,0.0,0.0,0.0,0.0,0.0,0.0,0.0,0.0,0.0,0.0,0.0,0.0,0.0,0.0,0.0,0.0,0.0,0.0,0.0,0.0,0.0,0.0,0.0,0.0,0.0,0.0,0.0,0.0,0.0,0.0,0.0,0.0,0.0,0.0,0.0,0.0,0.0,0.0,0.0,0.0,0.0,0.0,0.0,0.0,0.0,0.0,0.0,0.0,0.0,0.0,0.0,0.0,0.0,0.0,0.0,0.0,0.0,0.0,0.0,0.0,0.0,0.0,0.0,0.0,0.0,0.0,0.0,0.0,0.0,0.0,0.0,0.0,0.0,0.0,0.0,0.0,0.0,0.0,0.0,0.0,0.0,0.0,0.0,0.0,0.0,0.0,0.0,0.0,0.0,0.0,0.0,0.0,0.0,0.0,0.0,0.0,0.0,0.0,0.0,0.0,0.0,0.0,0.0,0.0,0.0,0.0,0.0,0.0,0.0,0.0,0.0,0.0,0.0,0.0,0.0,0.0,0.0,0.0,0.0,0.0,0.0,0.0,0.0,0.0,0.0,0.0,0.0,0.0,0.0,0.0,0.0,0.0,0.0,-2.1273,0.0,0.0,0.0,0.0,0.0,0.0,0.0,0.0,0.0,0.0,0.0,0.0,0.0,0.0,0.0,0.0,0.0,0.0,0.0,0.0,0.0,0.0,0.0,0.0,-1.0197,-1.0193,-1.0202,-1.0191,-1.0234,-1.0293,-1.0293,0.0,0.0,-1.0293,-1.0293,-1.0293,-1.0224,-1.0414,-1.0826,-1.0826,-1.1477,-1.2695,-1.2695,-1.2228,-1.1405,0.0,0.0,0.0,0.0,0.0,0.0,0.0,0.0,0.0,0.0,0.0,0.0,0.0,0.0,0.0,0.0,0.0,0.0,0.0,0.0,0.0,0.0,0.0,0.0,0.0,0.0,0.0,0.0,0.0,0.0,0.0,0.0,0.0,0.0,0.0,0.0,0.0,0.0,0.0,0.0,0.0,0.0,0.0,0.0,0.0,0.0,0.0,0.0,0.0,0.0,0.0,0.0,0.0,0.0,0.0,0.0,0.0,0.0,0.0,0.0,0.0,0.0,0.0,0.0,0.0,0.0,0.0,0.0,0.0,0.0,-2.4361,-2.2947,0.0,0.0,0.0,0.0,0.0,0.0,0.0,0.0,0.0,0.0,0.0,0.0,0.0,0.0,0.0,0.0,0.0,0.0,0.0,0.0,0.0,-1.0194,-1.0194,-1.0194,-1.021,-1.0203,-1.0198,-1.0234,-1.0293,-1.0293,-1.0293,-1.0293,-1.0293,-1.0293,-1.0293,-1.0382,-1.0787,-1.1501,-1.1934,-1.2974,-1.4557,-1.5432,-1.5119,-1.3805,-1.3371,0.0,0.0,0.0,0.0,0.0,0.0,0.0,0.0,0.0,0.0,0.0,0.0,0.0,0.0,0.0,0.0,0.0,0.0,0.0,0.0,0.0,0.0,0.0,0.0,0.0,0.0,0.0,0.0,0.0,0.0,0.0,0.0,0.0,0.0,0.0,0.0,0.0,0.0,0.0,0.0,0.0,0.0,0.0,0.0,0.0,0.0,0.0,0.0,0.0,0.0,0.0,0.0,0.0,0.0,0.0,0.0,0.0,0.0,0.0,0.0,0.0,0.0,0.0,-2.9602,-3.0448,-3.1282,-3.1282,-3.1282,-3.1129,-2.8302,-2.7159,-2.714,-2.5447,0.0,0.0,0.0,0.0,0.0,0.0,0.0,0.0,0.0,0.0,0.0,0.0,0.0,0.0,0.0,0.0,0.0,0.0,0.0,-1.0194,-1.0194,-1.0194,-1.0199,-1.0209,-1.0195,-1.0234,-1.0293,-1.0293,-1.0293,-1.0293,-1.0293,-1.0293,-1.0293,-1.0972,-1.1382,-1.1501,-1.371,-1.5303,-1.6283,-1.7149,-1.7849,-1.8258,-1.6025,-1.5059,-1.4998,0.0,0.0,0.0,0.0,0.0,0.0,0.0,0.0,0.0,0.0,0.0,0.0,0.0,0.0,0.0,0.0,0.0,0.0,0.0,0.0,0.0,0.0,0.0,0.0,0.0,0.0,0.0,0.0,0.0,0.0,0.0,0.0,0.0,0.0,0.0,0.0,0.0,0.0,0.0,0.0,0.0,-1.7734,-1.9581,0.0,0.0,0.0,0.0,0.0,0.0,0.0,0.0,0.0,0.0,0.0,0.0,0.0,-2.8044,-2.939,-3.0487,-3.1448,-3.2256,-3.3122,-3.3987,-3.482,-3.482,-3.482,-3.4801,-3.4339,0.0,-2.9775,-2.8082,0.0,0.0,0.0,0.0,0.0,0.0,0.0,0.0,0.0,0.0,0.0,0.0,0.0,0.0,0.0,0.0,0.0,0.0,0.0,0.0,0.0,-1.0635,-1.0922,-1.0937,-1.1406,-1.1523,-1.1055,-1.1035,-1.0801,-1.0312,-1.0762,-1.1035,-1.1035,-1.2294,-1.3434,-1.4412,-1.7013,-1.8473,-1.8888,-2.0199,-2.1021,-2.1335,-2.0238,-1.8911,-1.748,-1.6562,0.0,0.0,0.0,0.0,0.0,0.0,0.0,0.0,0.0,0.0,0.0,0.0,0.0,0.0,0.0,0.0,0.0,0.0,0.0,0.0,0.0,0.0,0.0,0.0,0.0,0.0,0.0,0.0,0.0,0.0,0.0,0.0,0.0,0.0,0.0,0.0,0.0,0.0,0.0,-1.7619,-1.9792,-2.1504,-2.137,-2.0935,0.0,0.0,0.0,0.0,0.0,0.0,0.0,0.0,0.0,-2.9967,-3.0467,-3.1295,-3.2526,-3.3853,-3.4699,-3.5045,-3.5911,-3.6546,-3.6911,-3.6911,-3.6911,-3.6911,-3.6911,-3.6065,-3.4468,-3.1814,-3.0717,-3.0544,0.0,0.0,0.0,0.0,-2.8909,-2.9025,0.0,0.0,0.0,0.0,0.0,0.0,0.0,0.0,0.0,0.0,0.0,0.0,-1.0527,-1.1133,-1.1621,-1.1836,-1.25,-1.2617,-1.1973,-1.1719,-1.1309,-1.0664,-1.123,-1.1562,-1.1562,-1.3672,-1.5723,-1.7695,-1.9863,-2.1055,-2.1289,-2.2519,-2.3223,-2.3437,-2.3437,-2.2227,-2.0137,-1.9031,-1.7692,-1.6131,0.0,0.0,0.0,0.0,0.0,0.0,0.0,0.0,0.0,0.0,0.0,0.0,0.0,0.0,0.0,0.0,0.0,0.0,0.0,0.0,0.0,0.0,0.0,0.0,0.0,0.0,0.0,0.0,0.0,0.0,0.0,0.0,0.0,0.0,0.0,0.0,0.0,-2.0042,-2.1812,-2.3274,-2.3639,-2.3428,0.0,0.0,0.0,0.0,0.0,0.0,-2.9102,-2.9948,-3.1198,-3.2929,-3.3564,-3.4295,-3.5161,-3.6411,-3.7142,-3.7373,-3.8027,-3.843,-3.8642,-3.8873,-3.8969,-3.8988,-3.9219,-3.9296,-3.9027,-3.5372,-3.3872,-3.3737,-3.2275,-3.1686,-3.1782,-3.2429,-3.2679,-3.2852,0.0,0.0,0.0,0.0,0.0,0.0,0.0,0.0,0.0,0.0,0.0,-1.0547,-1.1426,-1.1562,-1.1934,-1.2754,-1.2871,-1.2871,-1.2832,-1.2051,-1.1582,-1.1543,-1.1523,-1.1504,-1.1504,-1.4824,-1.7832,-2.0391,-2.1367,-2.2266,-2.3066,-2.3086,-2.3535,-2.4336,-2.4336,-2.3809,-2.2792,-2.1089,-1.9838,-1.8774,-1.6208,0.0,0.0,0.0,0.0,0.0,0.0,0.0,0.0,0.0,0.0,0.0,0.0,0.0,0.0,0.0,0.0,0.0,0.0,0.0,0.0,0.0,0.0,0.0,0.0,0.0,0.0,0.0,0.0,0.0,0.0,0.0,0.0,0.0,0.0,0.0,0.0,0.0,0.0,-2.5072,-2.5909,0.0,0.0,0.0,0.0,-2.764,-2.9967,-3.1756,-3.2602,-3.3468,-3.4699,-3.6411,-3.6488,-3.693,-3.7796,-3.7892,-3.8354,-3.9161,-3.92,-3.9623,-4.0392,-4.1239,-4.1623,-4.1662,-4.2489,-4.2835,-4.2508,-3.8257,-3.6507,-3.643,-3.5584,-3.5224,-3.5243,-3.5295,-3.5315,-3.5334,0.0,0.0,0.0,-1.0293,-1.0293,-1.0293,-1.0293,-1.0273,-1.0273,-1.0293,-1.0762,-1.123,-1.1562,-1.2559,-1.332,-1.3652,-1.4199,-1.4277,-1.3711,-1.3379,-1.3203,-1.3203,-1.3725,-1.5016,-1.7179,-1.8447,-2.0117,-2.2207,-2.3047,-2.3633,-2.3984,-2.4512,-2.4941,-2.5234,-2.5234,-2.5059,-2.4707,-2.3517,-2.2149,-2.0636,-1.8627,-1.7247,0.0,0.0,0.0,0.0,0.0,0.0,0.0,0.0,0.0,0.0,0.0,0.0,0.0,0.0,0.0,0.0,0.0,0.0,0.0,0.0,0.0,0.0,0.0,0.0,0.0,0.0,0.0,0.0,0.0,0.0,0.0,0.0,0.0,0.0,0.0,0.0,0.0,-2.7582,-2.8506,0.0,-2.861,-2.966,-3.0564,-3.1083,-3.3006,-3.4507,-3.5295,-3.6161,-3.718,-3.8334,-3.8873,-3.9565,-4.045,-4.1008,-4.1431,-4.1739,-4.1739,-4.1893,-4.2181,-4.2489,-4.2643,-4.2643,-4.297,-4.3104,-4.2989,-4.145,-4.0489,-3.9912,-3.9046,-3.8719,-3.8719,-3.8719,-3.9065,-3.9565,-1.0195,-1.0293,0.0,-1.0293,-1.0293,-1.0293,-1.0293,-1.0293,-1.0293,-1.0293,-1.1055,-1.1719,-1.2012,-1.3262,-1.4219,-1.4512,-1.5078,-1.5156,-1.457,-1.4258,-1.4097,-1.4073,-1.5168,-1.7202,-2.0308,-2.0938,-2.1997,-2.3504,-2.4331,-2.4766,-2.4844,-2.543,-2.5703,-2.5703,-2.5703,-2.5703,-2.5664,-2.5078,-2.3984,-2.246,-2.0768,-1.9685,-1.8871,0.0,0.0,0.0,0.0,0.0,0.0,0.0,0.0,0.0,0.0,0.0,0.0,0.0,0.0,0.0,0.0,0.0,0.0,0.0,0.0,0.0,0.0,0.0,0.0,0.0,0.0,0.0,0.0,0.0,0.0,0.0,0.0,0.0,0.0,0.0,-2.7967,-2.9371,-3.0814,-3.1564,-3.1275,-3.2545,-3.3622,-3.4141,-3.5795,-3.7142,-3.795,-3.8815,-3.9681,-4.0546,-4.1104,-4.1643,-4.2239,-4.2816,-4.3104,-4.3104,-4.3104,-4.3104,-4.3104,-4.3374,-4.3508,-4.3528,-4.3816,-4.3932,-4.3932,-4.3932,-4.3605,-4.297,-4.1816,-4.1373,-4.1373,-4.1373,-4.1739,-4.2239,-1.0293,-1.0293,-1.0293,-1.0293,-1.0293,-1.0293,-1.0293,-1.0293,-1.0293,-1.0293,-1.1074,-1.1953,-1.2812,-1.3633,-1.4473,-1.5332,-1.5391,-1.5391,-1.539,-1.4609,-1.4155,-1.4153,-1.5765,-1.7846,-2.0361,-2.2086,-2.34,-2.4332,-2.5191,-2.5625,-2.5703,-2.5703,-2.5703,-2.5703,-2.5703,-2.5703,-2.5703,-2.5703,-2.5215,-2.4297,-2.2578,-2.1844,-2.1601,0.0,0.0,0.0,0.0,0.0,0.0,0.0,0.0,0.0,0.0,0.0,0.0,0.0,0.0,0.0,0.0,0.0,0.0,0.0,0.0,0.0,0.0,0.0,0.0,0.0,0.0,0.0,0.0,0.0,0.0,0.0,0.0,0.0,-2.5457,-2.7621,-2.9544,-3.0436,-3.2756,-3.3949,-3.3141,-3.5315,-3.6796,-3.6815,-3.8411,-3.9719,-4.0527,-4.1373,-4.2239,-4.3066,-4.3124,-4.3143,-4.3143,-4.3162,-4.3181,-4.3181,-4.3181,-4.3181,-4.3201,-4.3989,-4.4335,-4.4393,-4.522,-4.5586,-4.5586,-4.5586,-4.5586,-4.5432,-4.3816,-4.3181,-4.3181,-4.3181,-4.3181,-4.3181,-1.0176,-1.0293,-1.0293,-1.0293,-1.0293,-1.0293,-1.0293,-1.0293,-1.0293,-1.0293,-1.1602,-1.2637,-1.2871,-1.418,-1.5137,-1.5371,-1.5391,-1.54,-1.5396,-1.5186,-1.5835,-1.7613,-1.9261,-2.1065,-2.3073,-2.3592,-2.4293,-2.5245,-2.5483,-2.5625,-2.5703,-2.5703,-2.5703,-2.5703,-2.5703,-2.5703,-2.5703,-2.5703,-2.5566,-2.5254,-2.4121,-2.3671,-2.3471,0.0,0.0,0.0,0.0,0.0,0.0,0.0,0.0,0.0,0.0,0.0,0.0,0.0,0.0,0.0,0.0,0.0,0.0,0.0,0.0,0.0,0.0,0.0,0.0,0.0,0.0,0.0,0.0,0.0,0.0,0.0,-2.7072,-2.8994,-2.8994,-3.066,-3.241,-3.393,-3.5238,-3.618,-3.6565,-3.7796,-3.8834,-3.9411,-4.0489,-4.1489,-4.2335,-4.2604,-4.2854,-4.3085,-4.3662,-4.397,-4.397,-4.4605,-4.4913,-4.4913,-4.4913,-4.4913,-4.4913,-4.5143,-4.524,-4.5259,-4.549,-4.5586,-4.5586,-4.5586,-4.5586,-4.5547,-4.5086,-4.4913,-4.4913,-4.4913,-4.4913,-4.4913,-1.0195,-1.0293,-1.0293,-1.0293,-1.0293,-1.0293,-1.0293,-1.0293,-1.0293,-1.0293,-1.1816,-1.2891,-1.2891,-1.4394,-1.5391,-1.5391,-1.5723,-1.5783,-1.5372,-1.5669,-1.6996,-1.9529,-2.085,-2.2392,-2.4197,-2.4566,-2.5038,-2.5607,-2.5592,-2.5616,-2.5652,-2.5652,-2.5639,-2.5629,-2.5643,-2.5664,-2.5664,-2.5684,-2.5703,-2.5664,-2.5156,-2.4941,-2.4785,-2.3418,-2.2894,-2.278,-2.1928,-2.1427,-2.1133,-2.1133,0.0,0.0,0.0,0.0,0.0,0.0,0.0,0.0,0.0,0.0,0.0,0.0,0.0,0.0,0.0,0.0,0.0,0.0,0.0,0.0,0.0,0.0,0.0,0.0,-2.9756,-3.2122,-3.2487,-3.3391,-3.4641,-3.6353,-3.7276,-3.8123,-3.8969,-3.9835,-4.0681,-4.1527,-4.2066,-4.272,-4.3566,-4.3605,-4.3778,-4.4143,-4.4605,-4.4836,-4.4836,-4.5336,-4.5586,-4.5586,-4.5586,-4.5586,-4.5586,-4.5586,-4.5586,-4.5586,-4.5586,-4.5586,-4.5586,-4.5586,-4.5586,-4.5586,0.0,0.0,0.0,0.0,-4.5586,-4.5586,-1.0293,-1.0293,-1.0293,-1.0293,-1.0293,-1.0293,-1.0293,-1.0293,-1.0293,-1.0293,-1.1738,-1.2754,-1.2754,-1.4258,-1.5254,-1.5254,-1.6133,-1.6389,-1.5648,-1.6451,-1.8024,-2.0435,-2.1411,-2.2697,-2.4405,-2.5158,-2.5547,-2.5605,-2.5605,-2.5616,-2.5601,-2.5601,-2.5584,-2.5512,-2.5681,-2.5759,-2.5762,-2.5937,-2.5996,-2.5977,-2.5898,-2.5781,-2.5625,-2.4844,-2.4551,-2.4453,-2.373,-2.2988,-2.2324,-2.2321,0.0,0.0,0.0,0.0,0.0,0.0,0.0,0.0,0.0,0.0,0.0,0.0,0.0,0.0,0.0,0.0,0.0,0.0,0.0,0.0,0.0,0.0,0.0,0.0,-3.2295,-3.4718,-3.5776,-3.593,-3.6488,-3.7969,-3.8911,-3.9738,-4.0566,-4.1431,-4.2297,-4.3162,-4.3239,-4.3585,-4.4393,0.0,0.0,0.0,0.0,-4.5586,-4.5586,-4.5586,-4.5586,-4.5586,-4.5586,-4.5586,-4.5586,-4.5586,-4.5586,-4.5586,-4.5586,-4.5586,-4.5586,-4.5586,-4.5586,-4.5586,-4.5586,-4.5586,-4.5586,-4.5586,-4.5586,-4.5586,-1.0293,-1.0293,-1.0293,-1.0293,-1.0293,-1.0293,-1.0293,-1.0293,-1.0293,-1.0293,-1.1211,-1.1855,-1.1855,-1.3359,-1.4355,-1.4355,-1.5781,-1.6896,-1.7366,-1.882,-2.0154,-2.1317,-2.2913,-2.4262,-2.5336,-2.5506,-2.5605,-2.5684,-2.5684,-2.5655,-2.5601,-2.5659,-2.563,-2.5599,-2.6392,-2.6739,-2.6777,-2.748,-2.7793,-2.7734,-2.7031,-2.6328,-2.5684,-2.5508,-2.5449,-2.543,-2.5273,-2.5117,-2.4958,-2.4904,-2.43,-2.3427,-2.2552,-2.1804,0.0,0.0,0.0,0.0,0.0,0.0,0.0,0.0,0.0,0.0,0.0,0.0,0.0,0.0,0.0,0.0,0.0,0.0,0.0,-3.2679,-3.4353,-3.6026,-3.8257,-3.8565,-3.8681,-3.9008,-3.9758,-4.0604,-4.147,-4.2335,-4.3181,-4.4008,-4.4066,-4.4432,-4.5297,-4.5336,-4.5432,-4.5586,-4.5586,-4.5586,-4.5586,-4.5586,-4.5586,-4.5586,-4.5586,0.0,-4.5586,-4.5586,-4.5586,-4.5586,-4.5586,-4.5586,-4.5586,-4.5586,-4.5586,-4.5586,-4.5586,-4.5586,-4.5586,-4.5586,-4.5586,-4.5586,-1.0215,-1.0293,-1.0293,-1.0293,-1.0293,-1.0293,-1.0293,-1.0293,-1.0293,-1.0293,-1.1055,-1.1602,-1.1602,-1.2734,-1.3496,-1.3496,-1.5059,-1.6754,-1.8448,-1.9704,-2.0991,-2.2286,-2.3625,-2.4766,-2.5625,-2.5644,-2.5664,-2.5703,-2.5703,-2.5672,-2.56,-2.5642,-2.585,-2.6226,-2.6727,-2.7199,-2.7629,-2.8099,-2.8301,-2.8262,-2.7832,-2.7129,-2.6309,-2.5879,-2.5703,-2.5703,-2.5703,-2.5685,-2.5643,-2.5608,-2.5284,-2.4755,-2.3875,-2.3299,-2.2704,0.0,0.0,0.0,0.0,0.0,0.0,0.0,0.0,0.0,0.0,0.0,0.0,0.0,0.0,-2.7381,-2.9929,0.0,-3.2487,-3.5045,-3.6546,-3.7853,-3.9123,-4.0027,-4.0546,-4.0546,-4.0912,-4.1643,-4.2931,-4.3431,-4.4047,-4.4893,-4.4951,-4.5143,-4.5566,-4.5586,-4.5586,-4.5586,-4.5586,-4.5586,-4.5586,-4.5586,-4.5586,-4.5586,-4.5586,-4.5586,-4.5586,-4.5586,-4.5586,-4.5586,-4.5586,-4.5586,-4.5586,-4.5586,-4.5586,-4.5586,-4.5586,-4.5586,-4.5586,-4.5586,-4.5586,-4.5586,-1.0156,-1.0293,-1.0293,-1.0293,-1.0293,-1.0293,-1.0293,-1.0293,-1.0293,-1.0293,-1.0918,-1.1348,-1.1348,-1.2129,-1.2852,-1.334,-1.4766,-1.6659,-1.9039,-2.0283,-2.1584,-2.3047,-2.4102,-2.498,-2.5684,-2.5703,-2.5703,-2.5703,-2.5703,-2.5664,-2.5605,-2.5604,-2.5963,-2.6584,-2.6985,-2.7555,-2.8245,-2.8633,-2.8809,-2.8789,-2.8613,-2.8125,-2.7383,-2.634,-2.5824,-2.5687,-2.5687,-2.5644,-2.5571,-2.5563,-2.5524,-2.537,-2.463,-2.4408,-2.4255,-2.3448,-2.268,0.0,0.0,0.0,0.0,0.0,0.0,0.0,0.0,0.0,-2.7236,-2.8824,-2.9806,-3.1037,-3.3282,-3.427,-3.529,-3.6949,-3.858,-3.9657,-3.9758,-4.1104,-4.2124,-4.2297,-4.2297,-4.2816,-4.4162,-4.4451,-4.4836,-4.5547,-4.5586,-4.5586,-4.5586,-4.5586,-4.5586,-4.5586,-4.5586,-4.5586,-4.5586,-4.5586,-4.5586,-4.5586,-4.5586,-4.5586,-4.5586,-4.5586,-4.5586,-4.5586,-4.5586,-4.5586,-4.5586,-4.5586,-4.5586,-4.5586,-4.5586,-4.5586,-4.5586,-4.5586,-4.5586,-4.5586,-1.0273,-1.0293,-1.0293,-1.0293,-1.0293,-1.0293,-1.0293,-1.0293,-1.0293,-1.0293,-1.0371,-1.0449,-1.0449,-1.1211,-1.2656,-1.4922,-1.5957,-1.7246,-1.9078,-2.1461,-2.2889,-2.3086,-2.4687,-2.5605,-2.5703,-2.5703,-2.5703,-2.5703,-2.5703,-2.5664,-2.5605,-2.5662,-2.5714,-2.5802,-2.7413,-2.8199,-2.8394,-2.9941,-3.0605,-3.0547,-2.9766,-2.9394,-2.9119,-2.7414,-2.6301,-2.5608,-2.5608,-2.5568,-2.5504,-2.5444,-2.5428,-2.539,-2.5226,-2.5187,-2.5014,-2.4216,0.0,-2.3821,-2.3821,-2.4332,-2.5072,-2.5967,-2.6832,-2.8063,0.0,0.0,-3.2365,-3.346,-3.4308,-3.5213,-3.6331,-3.6614,-3.7209,-3.8845,-3.9995,-4.0915,-4.1431,-4.239,-4.333,-4.4102,-4.4102,-4.4085,-4.4278,-4.4989,-4.549,-4.5586,-4.5586,-4.5586,-4.5586,-4.5586,-4.5586,-4.5586,-4.5586,-4.5586,-4.5586,-4.5586,-4.5586,-4.5586,-4.5586,-4.5586,-4.5586,-4.5586,-4.5586,-4.5586,-4.5586,-4.5586,-4.5586,-4.5586,-4.5586,-4.5586,-4.5586,-4.5586,-4.5586,-4.5586,-4.5586,-4.5586,-1.0293,-1.0293,-1.0293,-1.0293,-1.0293,-1.0293,-1.0293,-1.0293,-1.0293,-1.0293,-1.0293,-1.0293,-1.0293,-1.0625,-1.168,-1.3769,-1.5137,-1.6641,-1.8398,-2.1426,-2.3144,-2.3105,-2.4766,-2.5703,-2.5703,-2.5703,-2.5703,-2.5703,-2.5703,-2.5684,-2.5664,-2.5684,-2.5968,-2.6459,-2.7748,-2.8574,-2.9141,-3.0371,-3.0898,-3.0879,-3.0508,-2.9746,-2.8768,-2.7961,-2.6776,-2.5543,-2.5543,-2.5493,0.0,-2.5399,-2.537,-2.5341,-2.5303,-2.5303,-2.5226,-2.4909,-2.5159,0.0,-2.6746,-2.7255,-2.7717,0.0,-2.9467,-3.0506,-3.2045,-3.3096,-3.418,-3.5566,-3.6555,-3.7453,-3.8345,-3.8937,-3.9646,0.0,-4.1751,-4.243,-4.2695,-4.3062,-4.3448,-4.3814,-4.4264,-4.4711,-4.5139,-4.5432,-4.5586,-4.5586,-4.5586,-4.5586,-4.5586,-4.5586,-4.5586,-4.5586,-4.5586,-4.5586,-4.5586,-4.5586,-4.5586,-4.5586,-4.5586,-4.5586,-4.5586,-4.5586,-4.5586,-4.5586,-4.5586,-4.5586,-4.5586,-4.5586,-4.5586,-4.5586,-4.5586,-4.5586,-4.5586,-4.5586,-4.5586,-4.5586,-1.0293,-1.0293,-1.0293,-1.0293,-1.0293,-1.0293,-1.0293,-1.0293,-1.0293,-1.0293,-1.0293,-1.0293,-1.0293,-1.0293,-1.0996,-1.2754,-1.4219,-1.5879,-1.7871,-2.0801,-2.2676,-2.3086,-2.4531,-2.5449,-2.5684,-2.5703,-2.5703,-2.5703,-2.5703,-2.5703,-2.5703,-2.5703,-2.6172,-2.7031,-2.7656,-2.8555,-2.9648,-3.0273,-3.0684,-3.0898,-3.0898,-3.0,-2.8612,-2.8318,-2.7229,-2.5823,-2.5563,-2.5428,-2.5341,-2.513,-2.5168,-2.5264,-2.5043,-2.513,-2.5341,-2.5591,-2.6274,-2.7217,-2.8429,0.0,0.0,-3.0575,-3.1826,-3.2974,-3.357,-3.4815,-3.6177,-3.7409,-3.8407,-3.9252,-3.992,-4.0564,-4.1242,-4.2031,-4.2896,-4.3548,-4.3728,-4.3757,-4.3852,-4.4083,-4.4415,-4.496,-4.5753,-4.5719,-4.5624,-4.5586,-4.5586,-4.5586,-4.5586,-4.5586,-4.5586,-4.5586,-4.5586,-4.5586,-4.5586,-4.5586,-4.5605,-4.5643,-4.5643,-4.5796,-4.6046,-4.6026,-4.6123,-4.6334,-4.6067,-4.6086,-4.6278,-4.6278,-4.6278,-4.6278,-4.6278,-4.6278,-4.6259,-4.6028,-4.5797,-4.5586,-1.0293,-1.0293,-1.0293,-1.0293,-1.0293,-1.0293,-1.0293,-1.0293,-1.0293,-1.0293,-1.0293,-1.0293,-1.0293,-1.0293,-1.0996,-1.2754,-1.3652,-1.5234,-1.7832,-1.9687,-2.1406,-2.3027,-2.3965,-2.4844,-2.5684,-2.5703,-2.5703,-2.5703,-2.5703,-2.5703,-2.5703,-2.5703,-2.6172,-2.6992,-2.7031,-2.7988,-2.9609,-2.9629,-3.0137,-3.0898,-3.0898,-3.0351,-2.9451,-2.8551,-2.7605,-2.6631,-2.5726,-2.537,-2.5187,-2.4389,-2.4649,-2.5168,-2.437,-2.4668,0.0,-2.6313,-2.7178,-2.7871,0.0,0.0,-3.0667,-3.1542,-3.3742,-3.5682,-3.5701,-3.7654,-3.9471,-3.959,-4.0314,-4.097,-4.1121,-4.1172,-4.1426,-4.2168,-4.3085,-4.3913,-4.4565,-4.4731,-4.5004,-4.5738,-4.5032,-4.4873,-4.5794,-4.5834,-4.5738,-4.5605,-4.5586,-4.5586,-4.5586,-4.5586,-4.5586,-4.5586,-4.5586,-4.5586,-4.5586,-4.5586,-4.568,-4.5796,-4.5796,-4.6275,-4.7159,-4.7082,-4.7468,-4.818,-4.7259,-4.7298,-4.8029,-4.8029,-4.8029,-4.8029,-4.8029,-4.8029,-4.7932,-4.7163,-4.6336,-4.5586,-1.0293,-1.0293,-1.0293,-1.0293,-1.0293,-1.0293,-1.0293,-1.0293,-1.0293,-1.0293,-1.0293,0.0,0.0,0.0,0.0,0.0,-1.3633,-1.4961,-1.6992,-1.9316,-2.0859,-2.1426,-2.334,-2.4531,-2.4824,-2.5391,-2.5703,-2.5703,-2.5703,-2.5703,-2.5703,-2.5703,-2.5859,-2.6152,-2.6738,-2.7324,-2.791,-2.8496,-2.9238,-2.998,-2.9414,-2.9004,-2.8632,-2.7691,-2.6417,-2.5091,0.0,-2.4553,-2.4476,-2.4236,-2.4353,-2.4626,-2.4927,0.0,0.0,-2.7159,-2.7806,-2.8404,-3.0102,0.0,-3.2643,-3.4096,-3.5538,-3.6889,-3.8052,-3.9027,-3.9658,-3.9706,-4.0005,-4.011,-3.9569,-4.043,-4.1465,-4.2246,-4.3594,-4.4843,-4.5651,-4.5207,-4.4932,-4.5259,-4.4941,0.0,-4.5143,0.0,0.0,-4.5738,-4.5643,-4.5586,-4.5586,-4.5586,-4.5624,-4.5738,-4.5738,-4.5757,-4.5796,-4.5796,-4.6103,-4.6737,-4.7307,-4.7769,-4.806,-4.8041,-4.8178,-4.8428,-4.8085,-4.8125,-4.8355,-4.8355,-4.8355,-4.8355,-4.8279,-4.8221,-4.8202,-4.7931,-4.7643,-4.7219,-1.0293,-1.0293,-1.0293,-1.0293,-1.0293,0.0,0.0,0.0,0.0,0.0,0.0,0.0,0.0,0.0,0.0,0.0,0.0,-1.4394,-1.6113,-1.8105,-1.9629,-2.0566,-2.1875,-2.3008,-2.3945,-2.4219,-2.4648,-2.5234,-2.5234,-2.5391,-2.5703,-2.5703,-2.5879,-2.6172,-2.6426,-2.6875,-2.748,-2.7734,-2.834,-2.9082,-2.8535,-2.8105,-2.7773,-2.7168,-2.6027,0.0,-2.4042,-2.3957,-2.413,-2.3899,-2.3987,-2.4296,-2.4888,-2.5696,-2.666,-2.7774,-2.8545,-2.9588,-3.2141,-3.3248,-3.4185,-3.6221,-3.7384,-3.8326,-3.9442,-3.9747,-3.9684,-3.9374,-3.9121,-3.8809,-3.8242,-3.9043,-4.0371,-4.2129,-4.334,-4.459,-4.6094,-4.5488,-4.4996,-4.5351,-4.503,-4.4914,0.0,0.0,0.0,-4.5815,-4.5757,-4.5719,-4.5719,-4.5719,-4.5757,-4.5834,-4.5847,-4.5863,-4.5902,-4.6211,-4.6828,-4.7754,-4.8681,-4.9112,-4.9112,-4.9054,-4.9189,-4.9454,-4.9121,-4.9146,-4.944,-4.944,-4.944,-4.9421,-4.9328,-4.9288,-4.926,-4.8951,-4.8846,-4.8593,-1.0273,-1.0293,-1.0293,0.0,0.0,0.0,0.0,0.0,0.0,0.0,0.0,0.0,0.0,0.0,0.0,0.0,0.0,0.0,-1.5215,-1.6152,-1.7754,-2.0293,-1.9687,-2.0488,-2.3008,-2.2305,-2.2695,-2.4336,-2.4336,-2.4766,-2.5566,-2.5566,-2.6035,-2.6836,-2.5996,-2.6582,-2.8105,-2.7285,-2.7402,-2.8164,-2.8164,-2.7676,-2.6934,-2.6934,-2.6328,-2.527,-2.3678,-2.3573,-2.4082,-2.3342,0.0,0.0,0.0,0.0,0.0,-2.8281,-2.9537,-3.1446,-3.3916,-3.4678,-3.5388,-3.7861,-3.9182,-3.9902,-3.9902,-3.9863,-3.957,-3.8652,-3.7773,-3.7148,-3.7051,0.0,-3.8379,-4.168,-4.2344,-4.3359,-4.5937,-4.5586,-4.5312,0.0,0.0,0.0,0.0,0.0,0.0,-4.5935,0.0,-4.5907,-4.5907,-4.5907,-4.589,-4.5911,-4.5956,-4.5977,-4.5994,-4.6897,-4.7842,-4.88,-4.9786,-5.0254,-5.0254,-5.0137,-5.0488,-5.1152,-5.0277,-5.0352,-5.1113,-5.1113,-5.1113,-5.1113,-5.1113,-5.1121,-5.099,-5.0183,-4.9865,-4.9632,0.0,0.0,0.0,0.0,0.0,0.0,0.0,0.0,0.0,0.0,0.0,0.0,0.0,0.0,0.0,0.0,0.0,0.0,-1.4316,-1.5254,-1.6328,-1.7637,-1.873,-1.9922,-2.123,-2.168,-2.2402,-2.3437,-2.3437,-2.3574,-2.3848,-2.3848,-2.4277,-2.5059,-2.4824,-2.5332,-2.6348,-2.6133,-2.6152,-2.6367,-2.6367,-2.623,-2.6035,-2.6035,-2.5117,-2.3766,-2.3323,-2.2882,0.0,0.0,0.0,0.0,0.0,0.0,-2.9467,0.0,0.0,-3.3958,-3.5268,-3.6571,-3.789,-3.9188,-3.9719,-3.9902,-3.9902,-3.9394,-3.8496,-3.6973,-3.5976,-3.498,-3.373,0.0,0.0,-3.9316,-4.1719,0.0,-4.6016,-4.6016,0.0,-4.621,0.0,-4.5911,-4.6219,-4.6228,0.0,0.0,-4.6005,-4.5897,-4.5897,-4.5897,-4.5945,-4.6063,-4.668,-4.7073,-4.7176,-4.868,-4.955,-4.982,-5.0699,-5.1094,-5.1094,-5.1055,-5.1152,-5.1348,-5.1109,-5.1121,-5.1316,-5.1316,-5.1316,-5.1316,-5.1218,-5.1167,-5.1154,-5.0909,-5.0835,-5.0711,0.0,0.0,0.0,0.0,0.0,0.0,0.0,0.0,0.0,0.0,0.0,0.0,0.0,0.0,0.0,0.0,0.0,0.0,0.0,-1.4141,-1.5215,-1.6094,-1.707,-1.8184,-1.9434,-1.9941,-2.0605,-2.1426,-2.2207,-2.2598,-2.2637,-2.2988,-2.3398,-2.3828,-2.3867,-2.4121,-2.4551,-2.4551,-2.457,0.0,0.0,-2.459,-2.4551,-2.459,-2.4023,-2.3144,-2.2773,0.0,0.0,0.0,0.0,-2.7715,-2.8594,-2.9726,-3.0996,-3.2344,0.0,-3.5547,-3.6797,-3.8125,-3.9375,-4.0254,-4.0176,-3.9707,-3.8926,-3.7793,-3.6289,-3.4199,-3.3066,0.0,-3.123,-3.3242,0.0,0.0,0.0,0.0,-4.543,-4.5996,-4.6211,0.0,-4.6234,0.0,-4.629,-4.63,-4.63,0.0,-4.615,-4.608,-4.608,-4.608,-4.6294,-4.6747,-4.7233,-4.7892,-4.873,-4.9707,-5.0371,-5.0723,-5.1172,-5.1406,-5.1406,-5.1406,-5.1406,-5.1406,-5.1406,-5.1406,-5.1406,-5.1406,-5.1406,-5.1387,-5.1328,-5.1289,-5.1287,-5.1284,-5.1291,-5.124,0.0,0.0,0.0,0.0,0.0,0.0,0.0,0.0,0.0,0.0,0.0,0.0,0.0,0.0,0.0,0.0,0.0,0.0,0.0,0.0,-1.4336,-1.5195,-1.5332,-1.6152,-1.7793,-1.7832,-1.8242,-1.9121,-2.0644,-2.1387,-2.1406,-2.2109,-2.2559,-2.2773,-2.2832,-2.2949,-2.3105,-2.3105,-2.3086,-2.3047,-2.3144,-2.3086,-2.2969,0.0,-2.3125,0.0,0.0,0.0,0.0,0.0,-2.7754,-2.8633,-2.9629,-3.1133,-3.2695,-3.3516,-3.498,-3.668,-3.8184,-3.9316,-4.0234,-4.0879,-4.0371,-3.9238,-3.7383,-3.5605,-3.3672,-3.123,0.0,-2.9394,-2.9277,-3.0879,-3.3242,-3.6445,0.0,-4.1953,-4.4629,-4.5644,-4.6172,-4.6289,-4.6308,-4.6308,-4.6308,-4.6308,-4.6308,-4.6308,-4.6308,-4.6308,-4.6308,-4.6308,-4.6758,-4.7734,-4.7871,-4.8711,-5.0332,-5.0351,-5.0703,-5.1406,-5.1406,-5.1406,-5.1406,-5.1406,-5.1406,-5.1406,-5.1406,-5.1406,-5.1406,-5.1406,-5.1406,-5.1406,-5.1406,-5.1406,-5.1406,-5.1406,-5.1323,-5.1246,0.0,0.0,0.0,0.0,0.0,0.0,0.0,-1.0293,-1.0293,-1.0293,-1.0293,0.0,0.0,0.0,0.0,0.0,0.0,0.0,0.0,0.0,0.0,-1.4297,-1.5019,-1.5879,-1.6894,-1.6934,-1.7344,0.0,0.0,-1.8672,-1.8672,-1.8828,-1.9648,-2.1035,-2.1055,-2.1836,-2.3184,-2.3184,-2.2773,-2.2187,-2.2852,-2.2715,-2.2187,-2.2852,0.0,0.0,0.0,0.0,0.0,0.0,-2.8652,-2.9648,-3.125,-3.291,-3.4434,-3.5293,-3.6777,-3.8223,-3.8516,-3.9766,-4.084,-4.0273,-3.9473,-3.8184,-3.5703,-3.3848,0.0,0.0,-2.9121,-2.8301,-2.7578,-3.0059,0.0,-3.4824,0.0,0.0,0.0,0.0,-4.5488,0.0,0.0,0.0,0.0,0.0,0.0,0.0,-4.6308,-4.6308,-4.6308,-4.6308,-4.7031,-4.8613,-4.9375,-5.0215,-5.1172,-5.1191,-5.1269,-5.1406,-5.1406,-5.1406,-5.1406,-5.1406,-5.1406,-5.1406,-5.1406,-5.1406,-5.1406,-5.1406,-5.1406,-5.1406,-5.1406,-5.1406,-5.1406,-5.1406,-5.0972,-5.0409,0.0,0.0,0.0,0.0,0.0,0.0,0.0,-1.0293,-1.0293,-1.0293,-1.0273,-1.0254,-1.0293,-1.0293,-1.0293,0.0,0.0,0.0,0.0,0.0,0.0,0.0,-1.4277,-1.5137,-1.5996,0.0,0.0,0.0,0.0,0.0,0.0,0.0,0.0,0.0,0.0,0.0,0.0,-2.1172,-2.1191,-2.1269,-2.1641,-2.1562,0.0,0.0,0.0,0.0,0.0,0.0,0.0,0.0,-2.7832,-2.9316,-3.1504,-3.3359,-3.4785,-3.5195,-3.6562,-3.793,-3.793,-3.8867,-3.9746,-3.9336,-3.8223,-3.6562,-3.3984,0.0,0.0,0.0,-2.7246,-2.6816,-2.6406,0.0,0.0,0.0,0.0,0.0,0.0,0.0,0.0,0.0,0.0,0.0,0.0,0.0,0.0,-4.6308,-4.6308,-4.6308,-4.6308,-4.6738,-4.7363,-4.8203,-4.9062,-4.9707,-5.0098,-5.0547,-5.0781,-5.0781,-5.1191,-5.1406,-5.1406,-5.1406,-5.1406,-5.1406,-5.1406,-5.1406,-5.1406,-5.1406,-5.1406,-5.1406,-5.1406,-5.1406,-5.1406,-5.1406,-5.0898,-5.0195,0.0,0.0,0.0,0.0,0.0,0.0,-1.0293,-1.0293,-1.0293,-1.0273,-1.0234,-1.0214,-1.0267,-1.0272,-1.0273,0.0,0.0,0.0,0.0,0.0,0.0,0.0,0.0,0.0,0.0,0.0,0.0,0.0,0.0,0.0,0.0,0.0,0.0,0.0,0.0,0.0,0.0,0.0,-1.9512,0.0,0.0,0.0,0.0,0.0,0.0,0.0,0.0,0.0,0.0,0.0,-2.6602,-2.8164,-3.0605,-3.2656,-3.4199,-3.4375,-3.5664,-3.7051,-3.7246,-3.7949,-3.8555,-3.8379,-3.7012,-3.5059,-3.25,-3.0566,0.0,0.0,-2.5703,-2.5703,-2.5703,0.0,0.0,0.0,0.0,0.0,0.0,0.0,0.0,0.0,0.0,0.0,0.0,0.0,0.0,-4.6308,-4.6308,-4.6308,-4.6308,-4.7129,-4.7598,-4.7598,-4.8457,-4.8906,-4.8906,-4.957,-4.9922,-4.9922,-5.0566,-5.0957,-5.1133,-5.1133,-5.123,-5.1406,-5.1406,-5.1308,-5.1152,-5.1328,-5.1191,-5.0879,-5.1074,-5.1035,-5.0859,-5.0859,-5.0351,-4.9648,0.0,0.0,0.0,0.0,0.0,0.0,-1.0293,-1.0293,-1.0273,-1.0215,-1.0195,-1.0206,-1.0199,-1.0214,-1.0215,0.0,0.0,0.0,0.0,0.0,0.0,0.0,0.0,0.0,0.0,0.0,0.0,0.0,0.0,0.0,0.0,0.0,0.0,0.0,0.0,0.0,0.0,0.0,0.0,0.0,0.0,0.0,0.0,0.0,0.0,0.0,0.0,0.0,0.0,0.0,0.0,-2.6269,-2.8086,-3.0391,-3.2578,-3.3301,0.0,0.0,-3.707,-3.7949,-3.8418,-3.7617,-3.6113,-3.4141,-3.1601,0.0,0.0,-2.6074,-2.5703,-2.5703,-2.5703,-2.6484,-2.7949,-3.0488,0.0,-3.5312,0.0,0.0,0.0,0.0,0.0,0.0,0.0,0.0,0.0,-4.6308,-4.6308,-4.6308,-4.6308,-4.7129,-4.7598,-4.7598,-4.8457,-4.8906,-4.8906,-4.8984,-4.9023,-4.9023,-4.9082,-4.9531,-5.0312,-5.0312,-5.0703,-5.1406,-5.1406,-5.0996,-5.0371,-5.1094,-5.0508,-4.9219,-5.0,-4.9824,-4.9121,-4.9121,-4.8574,-4.7832,0.0,0.0,0.0,0.0,0.0,0.0,-1.0293,-1.0273,-1.0231,-1.0207,-1.0198,-1.0194,-1.0202,-1.0202,-1.0205,-1.0195,0.0,0.0,0.0,0.0,0.0,0.0,0.0,0.0,0.0,0.0,0.0,0.0,0.0,0.0,0.0,0.0,0.0,0.0,0.0,0.0,0.0,0.0,0.0,0.0,0.0,0.0,0.0,0.0,0.0,0.0,0.0,0.0,0.0,0.0,0.0,0.0,-2.4375,-2.6211,0.0,0.0,-3.3105,-3.4629,-3.5508,-3.6367,-3.6953,-3.6601,-3.5215,-3.3398,-3.1367,0.0,-2.7812,-2.6055,-2.5703,-2.5703,-2.5703,-2.5977,-2.6894,-2.9004,-2.9883,-3.1953,-3.6621,0.0,0.0,0.0,0.0,0.0,0.0,0.0,0.0,-4.6308,-4.6308,-4.6308,-4.6308,-4.6621,-4.6816,-4.6816,-4.7148,-4.7344,-4.7344,-4.7851,-4.8125,-4.8125,-4.8652,-4.9082,-4.9414,-4.9414,-4.959,-4.9902,-4.9902,-4.9707,-4.9433,-4.9766,-4.9492,-4.8926,-4.9277,-4.9219,-4.8906,-4.8906,-4.8359,-4.7598,0.0,0.0,0.0,0.0,0.0,-1.0293,-1.0293,-1.0249,-1.0199,-1.0194,-1.0194,-1.0194,-1.0175,-1.0194,-1.0209,-1.0197,-1.0193,0.0,0.0,0.0,0.0,0.0,0.0,0.0,0.0,0.0,0.0,0.0,0.0,0.0,0.0,0.0,0.0,0.0,0.0,0.0,0.0,0.0,0.0,0.0,0.0,0.0,0.0,0.0,0.0,0.0,0.0,0.0,0.0,0.0,0.0,0.0,0.0,0.0,0.0,0.0,-3.1133,-3.2851,-3.3711,-3.457,-3.5234,-3.5234,-3.3945,-3.2285,0.0,-2.918,-2.748,-2.6016,-2.5703,-2.5703,-2.5703,-2.5703,-2.6191,-2.7676,-2.8359,-3.0098,-3.4121,0.0,0.0,0.0,0.0,0.0,0.0,0.0,-4.6308,-4.6308,-4.6308,-4.6308,-4.6308,-4.6308,-4.6308,-4.6308,-4.6308,-4.6308,-4.6308,-4.6914,-4.7226,-4.7226,-4.7832,-4.8262,-4.8516,-4.8516,-4.8652,-4.8906,-4.8906,-4.875,-4.8535,-4.8789,-4.8594,-4.8164,-4.8418,-4.8359,-4.8125,-4.8125,-4.7734,-4.7226,0.0,0.0,0.0,0.0,0.0,-1.0293,-1.0293,-1.0243,-1.0198,-1.0194,-1.0194,-1.0175,-1.0113,-1.0156,-1.0194,-1.0198,-1.0191,0.0,0.0,0.0,0.0,0.0,0.0,0.0,0.0,0.0,-1.5391,-1.5391,-1.5391,0.0,0.0,0.0,0.0,0.0,0.0,0.0,0.0,0.0,0.0,0.0,0.0,0.0,-2.0605,0.0,0.0,0.0,0.0,0.0,0.0,0.0,0.0,0.0,0.0,-2.3691,0.0,0.0,-2.8887,-3.1113,-3.1992,-3.2812,-3.3437,-3.3437,-3.2168,-3.0703,0.0,-2.8262,-2.6758,-2.5879,-2.5703,-2.5703,-2.5703,-2.5703,-2.5996,-2.6875,-2.8457,-3.0781,-3.4219,0.0,0.0,0.0,0.0,0.0,0.0,0.0,-4.6308,-4.6308,-4.6308,0.0,-4.6308,-4.6308,-4.6308,-4.6308,-4.6308,-4.6308,-4.6308,-4.6308,-4.6308,-4.6308,-4.6328,-4.6777,-4.7617,-4.7617,-4.8086,-4.8906,-4.8906,-4.8418,-4.7676,-4.8535,-4.7871,-4.6406,-4.7285,-4.709,-4.6328,-4.6328,-4.6328,-4.6308,0.0,0.0,0.0,0.0,0.0,0.0,-1.0293,-1.0248,-1.0197,-1.0194,-1.0194,-1.0194,-1.0175,-1.0194,-1.0194,-1.0196,-1.0191,0.0,0.0,0.0,0.0,0.0,0.0,0.0,0.0,0.0,-1.4805,-1.5391,-1.5996,-1.5977,-1.541,-1.6016,0.0,0.0,0.0,0.0,0.0,0.0,0.0,0.0,0.0,-1.9824,-2.0605,0.0,0.0,0.0,0.0,0.0,0.0,0.0,0.0,0.0,0.0,0.0,0.0,-2.3359,-2.6172,-2.9316,-3.0195,-3.1035,-3.1699,-3.1699,-3.0801,-2.9706,-2.8838,-2.7722,-2.6632,-2.58,-2.5625,-2.5644,-2.5684,-2.5703,-2.6562,-2.9238,-3.0137,-3.1465,0.0,0.0,0.0,0.0,0.0,0.0,0.0,0.0,-4.6308,-4.6308,-4.6308,-4.6308,-4.6308,-4.6308,-4.6308,-4.6308,-4.6308,-4.6308,-4.6308,-4.6308,-4.6308,-4.6308,-4.6308,-4.6445,-4.6719,-4.6719,-4.6855,-4.7129,-4.7129,-4.6973,-4.6738,-4.7012,-4.6797,-4.6328,-4.6601,-4.6543,-4.6308,-4.6308,-4.6308,-4.6308,0.0,0.0,0.0,0.0,0.0,0.0,-1.0293,-1.0234,-1.0192,-1.0202,-1.0208,-1.0209,-1.0209,-1.0198,-1.019,-1.019,-1.0198,0.0,0.0,0.0,0.0,0.0,0.0,0.0,-1.3613,-1.3945,-1.4531,-1.5391,-1.6269,-1.6426,-1.5918,-1.6777,-1.6738,-1.5898,0.0,0.0,0.0,0.0,0.0,0.0,-1.7969,-1.8633,-1.916,0.0,0.0,0.0,0.0,0.0,0.0,0.0,0.0,0.0,0.0,0.0,0.0,0.0,-2.4023,-2.6621,0.0,-2.9004,-2.9922,-2.9922,-2.9206,-2.8377,-2.7827,-2.6989,-2.6178,-2.5671,-2.5574,-2.5605,-2.5644,-2.5684,-2.6406,-2.8594,-2.9492,-3.082,0.0,0.0,0.0,0.0,0.0,0.0,0.0,-4.6113,-4.6308,-4.6308,-4.6308,-4.6308,-4.6308,-4.6308,-4.6308,-4.6308,-4.6308,-4.6308,-4.6308,-4.6308,-4.6308,-4.6308,-4.6308,-4.6308,-4.6308,-4.6308,-4.6308,-4.6308,-4.6308,-4.6308,0.0,-4.6308,-4.6308,-4.6308,-4.6308,-4.6308,-4.6308,-4.6308,-4.6308,-4.6308,0.0,0.0,0.0,0.0,0.0,0.0,0.0,-1.0195,-1.0137,-1.0195,-1.0203,-1.0217,-1.0209,-1.0209,-1.0194,-1.0194,-1.0194,0.0,0.0,0.0,0.0,0.0,0.0,0.0,-1.2773,-1.3594,-1.4434,-1.5312,-1.6309,-1.6758,-1.6719,-1.7656,-1.7598,-1.6699,-1.6699,0.0,0.0,0.0,0.0,0.0,-1.6367,-1.6738,0.0,0.0,0.0,0.0,0.0,0.0,0.0,0.0,0.0,0.0,0.0,0.0,0.0,0.0,0.0,0.0,0.0,-2.666,-2.7949,-2.7949,-2.7279,-2.6622,-2.6622,-2.5986,0.0,-2.5409,-2.5503,-2.5604,-2.5683,-2.5684,-2.5801,-2.6113,-2.7519,0.0,0.0,0.0,0.0,0.0,0.0,0.0,-4.5098,-4.582,-4.6308,-4.6308,-4.6308,-4.6308,-4.6308,-4.6308,-4.6308,-4.6308,-4.6308,-4.6308,-4.6308,-4.6308,-4.6308,-4.6308,-4.6308,-4.6308,-4.6308,-4.6308,-4.6308,-4.6308,-4.6308,-4.6308,-4.6308,-4.6308,-4.6308,-4.6308,-4.6308,-4.6308,-4.6308,-4.6308,-4.6308,-4.6308,0.0,0.0,0.0,0.0,0.0,0.0,0.0,0.0,0.0,0.0,-1.0273,-1.0258,-1.0206,-1.021,-1.0194,0.0,0.0,0.0,0.0,0.0,0.0,0.0,0.0,0.0,-1.1816,-1.2715,-1.3574,-1.4414,-1.6602,-1.7344,-1.6738,-1.8262,-1.8164,-1.6699,-1.6699,-1.6211,0.0,0.0,0.0,0.0,-1.6621,-1.7109,0.0,0.0,0.0,0.0,-1.8008,-1.8125,0.0,0.0,0.0,0.0,0.0,0.0,0.0,0.0,-2.1523,-2.2285,-2.2695,0.0,-2.4394,-2.4394,-2.4169,-2.3927,0.0,-2.4187,-2.4447,0.0,0.0,-2.5673,-2.6442,-2.6055,-2.6738,-3.0117,-3.1016,0.0,0.0,0.0,0.0,0.0,0.0,0.0,-4.5996,-4.6172,-4.6308,-4.6308,-4.6308,-4.6308,-4.6308,-4.6308,-4.6308,-4.6308,-4.6308,-4.6308,-4.6308,-4.6308,-4.6308,-4.6308,-4.6308,-4.6308,-4.6308,-4.6308,-4.6308,-4.6308,-4.6308,-4.6308,-4.6308,-4.6308,-4.6308,-4.6308,-4.6308,-4.6308,-4.6308,-4.6308,-4.6308,-4.6308,0.0,0.0,0.0,0.0,0.0,0.0,0.0,0.0,0.0,0.0,-1.0059,-1.029,-1.0254,-1.0248,-1.0233,0.0,0.0,0.0,0.0,0.0,0.0,0.0,0.0,-1.061,-1.1484,-1.2422,-1.3281,-1.4102,-1.6328,-1.7363,-1.7324,-1.8262,-1.8203,-1.7266,-1.6465,-1.584,0.0,0.0,0.0,-1.5547,-1.5937,0.0,0.0,0.0,0.0,0.0,-1.6816,-1.7051,0.0,-1.7871,-1.8574,-1.9375,0.0,0.0,0.0,0.0,-2.0937,-2.1307,-2.1266,-2.2484,-2.375,-2.375,-2.398,-2.4174,-2.4154,0.0,0.0,0.0,0.0,0.0,-2.6106,0.0,0.0,-2.9902,-3.1055,0.0,0.0,0.0,0.0,0.0,0.0,-4.6308,0.0,-4.6308,-4.6308,-4.6308,-4.6308,-4.6308,-4.6308,-4.6308,-4.6308,-4.6308,-4.6308,-4.6308,-4.6308,-4.6308,-4.6308,-4.6308,-4.6308,-4.6308,-4.6308,-4.6308,-4.6308,-4.6308,-4.6308,-4.6308,-4.6308,-4.6308,-4.6308,-4.6308,-4.6308,-4.6308,-4.6308,-4.6308,-4.6308,-4.6308,0.0,0.0,0.0,0.0,0.0,0.0,0.0,0.0,0.0,0.0,0.0,0.0,0.0,0.0,0.0,0.0,0.0,0.0,0.0,0.0,0.0,0.0,-1.0194,-1.0607,-1.1483,-1.2285,-1.3145,-1.4102,-1.5703,-1.7012,-1.8008,-1.8008,-1.793,-1.7734,-1.6113,-1.5391,0.0,0.0,-1.4961,-1.4355,-1.5098,0.0,0.0,0.0,0.0,0.0,0.0,0.0,0.0,-1.7344,-1.8184,-1.9023,-1.9766,0.0,0.0,0.0,0.0,0.0,-2.065,-2.2416,-2.4171,-2.402,-2.4585,-2.5166,-2.5124,0.0,0.0,0.0,0.0,0.0,0.0,0.0,0.0,0.0,0.0,0.0,0.0,0.0,0.0,0.0,0.0,0.0,-4.6308,-4.6308,-4.6308,-4.6308,-4.6308,-4.6308,-4.6308,-4.6308,-4.6308,-4.6308,-4.6308,-4.6308,-4.6308,-4.6308,-4.6308,-4.6308,-4.6308,-4.6308,-4.6308,-4.6308,-4.6308,-4.6308,-4.6308,-4.6308,-4.6308,-4.6308,-4.6308,-4.6308,-4.6308,-4.6308,-4.6308,-4.6308,-4.6308,-4.6308,0.0,0.0,0.0,0.0,0.0,0.0,0.0,0.0,0.0,0.0,0.0,0.0,0.0,0.0,0.0,0.0,0.0,0.0,0.0,0.0,0.0,-1.0113,-1.0175,-1.0602,-1.1478,-1.1638,-1.25,-1.4102,-1.5117,-1.6426,-1.8008,-1.8008,-1.7617,-1.6855,-1.5859,-1.5391,-1.5391,-1.5391,-1.5312,-1.5215,-1.5352,0.0,0.0,0.0,0.0,0.0,0.0,0.0,0.0,-1.5742,-1.6387,-1.7129,-1.7266,0.0,0.0,0.0,0.0,0.0,-2.1282,-2.2469,-2.3114,-2.2314,-2.2726,-2.3311,-2.3302,0.0,0.0,0.0,0.0,0.0,0.0,0.0,0.0,0.0,0.0,0.0,0.0,0.0,0.0,0.0,0.0,-4.6308,-4.6308,-4.6308,-4.6308,-4.6308,-4.6308,-4.6308,-4.6308,-4.6308,-4.6308,-4.6308,-4.6308,-4.6308,-4.6308,-4.6308,-4.6308,-4.6308,-4.6308,-4.6308,-4.6308,-4.6308,-4.6308,-4.6308,-4.6308,-4.6308,-4.6308,-4.6308,-4.6308,-4.6308,-4.6308,-4.6308,-4.6308,-4.6308,-4.6308,-4.6308,0.0,0.0,0.0,0.0,0.0,0.0,0.0,0.0,0.0,0.0,0.0,0.0,0.0,0.0,0.0,0.0,0.0,0.0,0.0,0.0,-1.0391,-1.0849,-1.0433,-1.061,-1.1479,-1.1963,-1.2832,-1.4102,-1.4961,-1.6055,-1.7305,-1.7305,-1.6836,-1.5977,-1.5586,-1.5391,-1.5391,-1.5391,-1.5391,-1.5391,0.0,0.0,0.0,0.0,0.0,0.0,0.0,0.0,0.0,0.0,-1.6367,-1.6777,-1.7246,0.0,0.0,0.0,0.0,0.0,-2.0227,-2.172,-2.2939,-2.2513,-2.3392,-2.4476,-2.4918,0.0,0.0,0.0,0.0,0.0,0.0,0.0,0.0,0.0,0.0,0.0,0.0,0.0,0.0,0.0,0.0,-4.6308,-4.6308,-4.6308,-4.6308,-4.6308,-4.6308,-4.6308,-4.6308,-4.6308,-4.6308,-4.6308,-4.6308,-4.6308,-4.6308,-4.6308,-4.6308,-4.6308,-4.6308,-4.6308,-4.6308,-4.6308,-4.6308,-4.6308,-4.6308,-4.6308,-4.6308,-4.6308,-4.6308,-4.6308,-4.6308,-4.6308,-4.6308,-4.6308,-4.6308,-4.6308,0.0,0.0,0.0,0.0,0.0,0.0,0.0,0.0,0.0,0.0,0.0,0.0,0.0,0.0,0.0,0.0,0.0,0.0,0.0,-1.0209,-1.0491,-1.1165,-1.0552,-1.0791,-1.2073,-1.2351,-1.3122,-1.4394,-1.4863,-1.5547,-1.6406,-1.6602,-1.6133,-1.5098,-1.5098,-1.5098,-1.5098,-1.5098,-1.5215,-1.5391,0.0,0.0,0.0,0.0,0.0,0.0,0.0,0.0,0.0,0.0,0.0,0.0,0.0,0.0,0.0,-1.7637,-1.8164,-1.8809,-1.9375,-2.1087,-2.2813,-2.321,-2.4447,-2.5775,-2.661,0.0,0.0,0.0,0.0,0.0,0.0,0.0,0.0,0.0,0.0,0.0,0.0,-4.2435,-4.3711,-4.4863,-4.5586,-4.6074,-4.6289,-4.6308,-4.6308,-4.6308,-4.6308,-4.6308,-4.6308,-4.6308,-4.6308,-4.6308,-4.6308,-4.6308,-4.6308,-4.6308,-4.6308,-4.6308,-4.6308,-4.6308,-4.6308,-4.6308,-4.6308,-4.6308,-4.6308,-4.6308,-4.6308,-4.6308,-4.6308,-4.6308,-4.6308,-4.6308,-4.6308,-4.6308,-4.6308,-4.6308,0.0,0.0,0.0,0.0,0.0,0.0,0.0,0.0,0.0,0.0,0.0,0.0,0.0,0.0,0.0,0.0,0.0,0.0,0.0,-1.0209,-1.0233,-1.0294,-1.0236,-1.138,-1.3869,-1.2382,-1.2803,-1.5312,-1.4551,-1.4648,-1.5508,-1.6328,-1.5801,-1.4199,-1.4199,-1.4199,-1.4199,-1.4199,-1.4668,-1.5391,-1.5391,0.0,0.0,0.0,0.0,0.0,0.0,0.0,0.0,0.0,0.0,0.0,0.0,0.0,-1.5742,-1.6562,-1.6836,-1.7422,-1.9844,-2.1184,-2.2253,-2.3811,-2.4812,0.0,-2.6584,-2.6792,0.0,0.0,0.0,0.0,0.0,0.0,0.0,0.0,0.0,0.0,-4.1668,0.0,-4.3047,-4.4785,-4.5058,-4.541,-4.6211,-4.6308,-4.6308,-4.6308,-4.6308,-4.6308,-4.6308,-4.6308,-4.6308,-4.6308,-4.6308,-4.6308,-4.6308,-4.6308,-4.6308,-4.6308,-4.6308,-4.6308,-4.6308,-4.6308,-4.6308,-4.6308,-4.6308,-4.6308,-4.6308,-4.6308,-4.6308,-4.6308,-4.6308,-4.6308,-4.6308,-4.6308,-4.6308,-4.6308,0.0,0.0,0.0,0.0,0.0,0.0,0.0,0.0,0.0,0.0,0.0,0.0,0.0,0.0,0.0,0.0,0.0,0.0,0.0,-1.0219,-1.0459,-1.105,-1.0508,-1.1199,-1.3319,-1.2665,-1.3325,-1.5391,-1.5078,-1.5078,-1.5391,-1.5176,-1.4727,-1.4082,-1.3574,-1.3633,-1.4102,-1.4102,-1.4609,-1.5391,-1.5391,-1.5078,0.0,0.0,0.0,0.0,0.0,0.0,0.0,0.0,-1.4687,-1.5391,-1.5391,-1.5391,-1.5469,-1.5781,-1.6289,-1.7031,-1.8574,-2.0367,-2.2085,-2.3251,0.0,0.0,0.0,0.0,0.0,0.0,0.0,0.0,0.0,0.0,0.0,0.0,0.0,-3.9623,-4.1193,-4.1943,-4.2564,-4.3299,-4.4336,-4.5137,-4.5469,-4.5976,-4.6308,-4.6308,-4.6308,-4.6308,-4.6308,-4.6308,-4.6308,-4.6308,-4.6308,-4.6308,-4.6308,-4.6308,-4.6308,-4.6308,-4.6308,-4.6308,-4.6308,-4.6308,-4.6308,-4.6308,-4.6308,-4.6308,-4.6308,-4.6308,-4.6308,-4.6308,-4.6308,-4.6308,-4.6308,-4.6308,-4.6308,-4.6308,0.0,0.0,0.0,0.0,0.0,0.0,0.0,0.0,0.0,0.0,0.0,0.0,0.0,0.0,0.0,0.0,0.0,0.0,-1.0293,-1.0254,-1.0521,-1.1166,-1.0563,-1.0937,-1.2459,-1.244,-1.3138,-1.4609,-1.4863,-1.4863,-1.4609,-1.4531,-1.4238,-1.3711,-1.3418,-1.3574,-1.4082,-1.3828,-1.4219,-1.498,-1.498,-1.4473,0.0,0.0,0.0,0.0,0.0,0.0,0.0,0.0,-1.4297,-1.5039,-1.5312,-1.5391,-1.5391,-1.5391,-1.6211,-1.7305,-1.8164,-2.0273,-2.2416,0.0,0.0,0.0,0.0,0.0,0.0,0.0,0.0,0.0,0.0,0.0,0.0,0.0,-3.8774,-3.9612,-4.0827,-4.1501,-4.2024,-4.236,-4.3457,-4.4297,-4.4551,-4.5137,-4.5586,-4.5879,-4.5898,-4.6016,-4.6289,-4.6308,-4.6308,-4.6308,-4.6308,-4.6308,-4.6308,-4.6308,-4.6308,-4.6308,-4.6308,-4.6308,-4.6308,-4.6308,-4.6308,-4.6308,-4.6308,-4.6308,-4.6308,-4.6308,-4.6308,-4.6308,-4.6308,-4.6308,-4.6308,-4.6308,-4.6308,-4.6308,0.0,0.0,0.0,0.0,0.0,0.0,0.0,0.0,0.0,0.0,0.0,0.0,0.0,0.0,0.0,0.0,0.0,0.0,-1.0293,-1.0293,-1.0293,-1.0293,-1.0307,-1.0693,-1.1562,-1.1582,-1.2012,-1.2891,-1.3691,-1.3672,-1.2949,-1.4609,-1.4492,-1.293,-1.3711,-1.4082,-1.4023,-1.3223,-1.3359,-1.4082,-1.4102,-1.3613,-1.2891,0.0,0.0,0.0,0.0,0.0,0.0,0.0,-1.3418,-1.4238,-1.5117,-1.5391,-1.5391,-1.5391,-1.6621,-1.8184,-1.9043,-2.1152,-2.3301,0.0,0.0,0.0,0.0,0.0,0.0,0.0,0.0,0.0,-3.5218,0.0,0.0,-3.7651,-3.8258,-3.8935,-4.0752,-4.1001,-4.1346,-4.2281,-4.2402,-4.2734,-4.3594,-4.3691,-4.4062,-4.4922,-4.498,-4.5351,-4.623,-4.6289,-4.6289,-4.6289,-4.6289,-4.6289,-4.6289,-4.6308,-4.6308,-4.6308,-4.6308,-4.6308,-4.6308,-4.6308,-4.6308,-4.6308,-4.6308,-4.6308,-4.6308,-4.6308,-4.6308,-4.6308,-4.6308,-4.6308,-4.6308,-4.6308,-4.6308,-4.6308,0.0,0.0,0.0,0.0,0.0,0.0,0.0,0.0,0.0,0.0,0.0,0.0,0.0,0.0,0.0,0.0,0.0,0.0,-1.0293,-1.0293,-1.0293,-1.0293,-1.0307,-1.0423,-1.0684,-1.0684,-1.1406,-1.2891,-1.3145,-1.3125,-1.291,-1.3418,-1.3047,-1.1992,-1.2246,-1.2344,-1.2324,-1.209,-1.248,-1.3301,-1.3867,-1.3242,-1.2051,0.0,0.0,0.0,0.0,0.0,0.0,0.0,0.0,0.0,-1.4238,-1.4902,-1.5391,-1.5391,-1.6597,-1.7987,-1.8244,-2.0191,0.0,0.0,0.0,0.0,0.0,0.0,0.0,0.0,0.0,0.0,-3.5488,0.0,0.0,-3.7968,-3.8435,-3.9122,-4.089,-4.1139,-4.1238,-4.1523,-4.2051,-4.25,-4.2754,-4.334,-4.3808,-4.4062,-4.4082,-4.4199,-4.4453,-4.4473,-4.4473,-4.4473,-4.5078,-4.5391,-4.5391,-4.5996,-4.6308,-4.6308,-4.6308,-4.6308,-4.6308,-4.6308,-4.6308,-4.6308,-4.6308,-4.6308,-4.6308,-4.6308,-4.6308,-4.6308,-4.6308,-4.6308,-4.6308,-4.6308,-4.6308,-4.6308,0.0,0.0,0.0,0.0,0.0,0.0,0.0,0.0,0.0,0.0,0.0,-0.8105,0.0,0.0,0.0,0.0,0.0,0.0,0.0,-1.0293,-1.0293,-1.0293,-1.0293,-1.0293,-1.0293,-1.0293,-1.0801,-1.1875,-1.2207,-1.2207,-1.1875,-1.2578,-1.2617,-1.2129,-1.2441,-1.2598,-1.2578,-1.2246,-1.2227,-1.2422,-1.291,-1.2285,-1.1172,0.0,0.0,0.0,0.0,0.0,0.0,0.0,0.0,0.0,-1.3359,-1.4199,-1.496,-1.5309,-1.683,-1.8559,-1.923,0.0,0.0,0.0,0.0,0.0,0.0,0.0,0.0,0.0,0.0,-3.5199,-3.5545,-3.5391,0.0,-3.7629,-3.8299,-3.9082,-4.0488,-4.0976,-4.1191,-4.1191,-4.1621,-4.1914,-4.1914,-4.2402,-4.2832,-4.3164,-4.3183,-4.332,-4.3672,-4.3691,-4.3691,-4.3691,-4.4219,-4.4473,-4.4473,-4.5,-4.5273,-4.5273,-4.5625,-4.5781,-4.5801,-4.6133,-4.6308,-4.6308,-4.6308,-4.6308,-4.6308,-4.6308,-4.6308,-4.6308,-4.6308,-4.6308,-4.6308,-4.6308,-4.6308,-4.6308,0.0,0.0,-0.5091,-0.5091,0.0,0.0,0.0,0.0,0.0,0.0,-0.5859,-0.6738,0.0,0.0,0.0,-1.0215,-1.0293,-1.0293,0.0,-1.0293,-1.0293,-1.0293,-1.0293,-1.0293,-1.0293,-1.0293,-1.0293,-1.0293,-1.1094,-1.1074,-1.0332,-1.1992,-1.2734,-1.2695,-1.3516,-1.3828,-1.3711,-1.2969,-1.2207,-1.1484,-1.1562,-1.1074,-1.0391,-1.127,0.0,0.0,0.0,0.0,0.0,0.0,0.0,0.0,-1.2715,-1.3574,-1.4367,-1.5171,-1.7198,-1.9523,-2.1048,0.0,0.0,0.0,0.0,0.0,0.0,0.0,0.0,0.0,0.0,-3.4641,-3.5449,-3.5059,-3.5189,-3.6907,-3.7926,-3.8789,-3.9668,-4.0527,-4.1074,-4.1074,-4.1152,-4.1191,-4.1191,-4.1191,-4.1504,-4.2246,-4.2285,-4.2637,-4.3437,-4.3476,-4.3476,-4.3476,-4.3535,-4.3574,-4.3574,-4.3652,-4.3691,-4.3711,-4.4492,-4.4883,-4.4902,-4.5879,-4.6308,-4.6308,-4.6308,-4.6308,-4.6308,-4.6308,-4.6308,-4.6308,-4.6308,-4.6308,-4.6308,-4.6308,-4.6308,-4.6308,0.0,0.0,-0.5094,-0.5094,0.0,0.0,0.0,0.0,-0.51,-0.5104,-0.5858,-0.6738,-0.7598,-0.8477,0.0,-1.0215,-1.0293,-1.0293,-1.0293,-1.0293,-1.0293,-1.0293,-1.0293,-1.0293,-1.0293,-1.0293,-1.0293,-1.0293,-1.0488,-1.0488,-1.0312,-1.1387,-1.1504,-1.0898,-1.1758,-1.1758,-1.1113,-1.0937,-1.0742,-1.0645,-1.1328,-1.1074,-1.0391,-1.127,-1.1055,0.0,0.0,0.0,0.0,0.0,0.0,0.0,-1.3379,-1.4434,-1.5151,-1.5332,-1.7181,-1.9196,0.0,0.0,0.0,0.0,0.0,0.0,0.0,0.0,0.0,0.0,0.0,-3.5315,-3.5565,-3.5514,-3.5839,-3.7019,-3.7417,-3.7871,-3.8769,-3.9629,-4.0176,-4.0176,-4.0781,-4.1191,-4.1191,-4.1191,-4.1269,-4.1445,-4.1465,-4.1543,-4.1738,-4.1738,-4.1738,-4.1738,-4.2344,-4.2676,-4.2676,-4.3359,-4.3691,-4.3691,-4.3887,-4.3984,-4.4023,-4.5586,-4.6308,-4.6308,-4.6308,-4.6308,-4.6308,-4.6308,-4.6308,-4.6308,-4.6308,-4.6308,-4.6308,-4.6308,-4.6308,-4.6308,0.0,0.0,0.0,0.0,0.0,0.0,0.0,0.0,-0.5247,-0.5665,-0.5756,-0.627,-0.7559,-0.8105,0.0,0.0,-1.0059,-1.0293,-1.0293,-1.0293,-1.0293,-1.0293,-1.0293,-1.0293,-1.0293,-1.0293,-1.0293,-1.0293,-1.0293,-1.0293,-1.0312,-1.1191,-1.1582,-1.1562,-1.2012,-1.1973,-1.1523,-1.1094,-1.0684,-1.0332,-1.0781,-1.0703,-1.0352,-1.0801,-1.0703,-1.0293,-1.0254,0.0,0.0,0.0,0.0,0.0,0.0,0.0,-1.4841,-1.5244,-1.6841,-1.8732,0.0,0.0,0.0,0.0,0.0,0.0,0.0,0.0,0.0,0.0,-3.4603,-3.4911,-3.4974,-3.5357,-3.5854,-3.6481,-3.6953,-3.7422,-3.791,-3.873,-3.9277,-3.9277,-3.9687,-4.0117,-4.0547,-4.0586,-4.0742,-4.1172,-4.1191,-4.1191,-4.1191,-4.1191,-4.1191,-4.1191,-4.1601,-4.1836,-4.1836,-4.2285,-4.25,-4.2519,-4.2891,-4.3301,-4.373,-4.5078,-4.5683,-4.5703,-4.6113,-4.6308,-4.6308,-4.6308,-4.6308,-4.6308,-4.6308,-4.6308,-4.6308,-4.6308,-4.6308,-4.6308,0.0,0.0,0.0,0.0,0.0,0.0,0.0,0.0,0.0,-0.6284,-0.5769,-0.5937,-0.752,-0.7832,-0.8223,0.0,0.0,0.0,-1.0293,-1.0293,-1.0293,-1.0293,-1.0293,-1.0293,-1.0293,-1.0293,-1.0293,-1.0293,-1.0293,-1.0371,-1.0547,-1.127,-1.1973,-1.2676,-1.2676,-1.2598,-1.2402,-1.168,-1.0957,-1.0293,-1.0293,-1.0293,-1.0293,-1.0293,-1.0293,-1.0293,-1.0293,-1.0293,-1.0352,-1.0645,0.0,0.0,0.0,0.0,-1.4448,-1.5117,-1.6387,-1.8068,0.0,0.0,0.0,0.0,0.0,0.0,0.0,0.0,0.0,0.0,-3.3276,-3.4045,-3.4249,-3.4883,-3.5488,-3.5802,-3.6456,-3.6968,-3.7027,-3.777,-3.8337,-3.8359,-3.8476,-3.8867,-3.9609,-3.9687,-3.9961,-4.0703,-4.0898,-4.0976,-4.0976,-4.1113,-4.1191,-4.1191,-4.1191,-4.1191,-4.1191,-4.1191,-4.1191,-4.1211,-4.1875,-4.2578,-4.3301,-4.416,-4.4629,-4.4824,-4.5547,-4.5859,-4.5859,-4.6016,-4.6074,-4.6094,-4.623,-4.6308,-4.6308,-4.6308,-4.6308,-4.6308,0.0,0.0,0.0,0.0,0.0,0.0,0.0,0.0,0.0,0.0,-0.6298,-0.6602,-0.7598,-0.8379,-0.8867,-0.8984,-0.9805,-1.0293,-1.0293,0.0,0.0,-1.0293,-1.0293,-1.0293,-1.0293,-1.0293,-1.0293,-1.0293,-1.0293,-1.0684,0.0,0.0,-1.166,-1.1777,-1.1777,-1.1348,-1.0645,-1.0527,-1.041,-1.0293,-1.0293,-1.0293,-1.0293,-1.0293,-1.0293,-1.0293,-1.0293,-1.0293,-1.0527,-1.2031,-1.2637,0.0,0.0,0.0,-1.5251,-1.5299,-1.5989,-1.6977,0.0,0.0,0.0,0.0,0.0,0.0,0.0,0.0,0.0,0.0,-3.1987,-3.3314,-3.4064,-3.4345,-3.4737,-3.5507,-3.5782,-3.5897,-3.5917,-3.6657,-3.7269,-3.7362,-3.8008,-3.8516,-3.875,-3.8769,-3.8828,-3.8945,-3.9648,-4.0078,-4.0078,-4.0781,-4.1191,-4.1191,-4.1191,-4.1191,-4.1191,-4.1191,-4.1191,-4.1191,-4.1308,-4.1426,-4.1562,-4.2383,-4.3164,-4.3887,-4.4004,-4.4043,-4.4101,-4.4863,-4.5176,-4.5254,-4.6016,-4.6308,-4.6308,-4.6308,-4.6308,-4.6308,0.0,0.0,0.0,0.0,0.0,0.0,0.0,0.0,0.0,0.0,0.0,-0.6909,-0.8286,-0.833,-0.8281,-0.8281,-0.9062,-0.9785,-1.0273,-1.0293,0.0,-1.0293,-1.0293,-1.0293,-1.0293,-1.0293,-1.0293,-1.0293,-1.0293,0.0,0.0,-1.228,-1.2522,0.0,-1.2499,-1.2073,-1.1699,-1.0664,-1.0273,-1.0293,-1.0293,-1.0898,-1.1641,-1.0664,-1.0918,-1.1621,-1.0617,-1.0243,-1.0366,-1.1136,-1.2036,-1.2891,-1.3133,0.0,0.0,0.0,0.0,0.0,0.0,0.0,0.0,0.0,0.0,0.0,0.0,0.0,0.0,-3.0302,-3.0987,-3.1775,-3.2641,-3.3186,-3.3667,-3.4128,-3.46,-3.493,-3.5007,-3.5745,-3.6299,-3.634,-3.6674,-3.7126,-3.7754,-3.7812,-3.8027,-3.8555,-3.8965,-3.918,-3.918,-3.9531,-3.9746,-3.9746,-3.9746,-3.9746,-3.9746,-3.9746,-3.998,-4.0488,-4.0976,-4.1191,-4.1211,-4.1562,-4.2187,-4.3008,-4.3496,-4.3691,-4.373,-4.4101,-4.4277,-4.4316,-4.4687,-4.4844,-4.4844,-4.4844,-4.5156,-4.5566,0.0,0.0,0.0,0.0,0.0,0.0,0.0,0.0,0.0,0.0,0.0,-0.731,-0.8827,0.0,0.0,0.0,-0.8828,-0.9609,-1.0254,0.0,0.0,0.0,-1.0293,-1.0293,-1.0293,-1.0293,-1.0293,-1.0293,0.0,0.0,-1.2871,-1.2819,-1.3361,0.0,-1.3483,-1.2906,0.0,0.0,-1.0565,-1.0625,-1.0835,-1.1701,-1.2781,-1.19,-1.2374,-1.3289,-1.1488,-1.0849,-1.0838,-1.0853,-1.1585,-1.242,-1.2218,-1.2856,0.0,0.0,0.0,0.0,0.0,0.0,0.0,0.0,0.0,0.0,0.0,0.0,0.0,0.0,-2.9929,-3.0275,-3.0929,-3.1891,-3.2699,-3.3013,-3.3557,-3.4057,-3.4384,-3.4936,-3.5411,-3.5661,-3.5667,-3.5981,-3.6735,-3.685,-3.7168,-3.7851,-3.8125,-3.8262,-3.8262,-3.8476,-3.8594,-3.8594,-3.8594,-3.8594,-3.8594,-3.8594,-3.9043,-3.9902,-4.0566,-4.0996,-4.1191,-4.1191,-4.1523,-4.2129,-4.2773,-4.3066,-4.3086,-4.3281,-4.3379,-4.3398,-4.3613,-4.3691,-4.3691,-4.3691,-4.4101,-4.4668,0.0,0.0,0.0,0.0,0.0,0.0,0.0,0.0,0.0,0.0,0.0,-0.7975,-0.8907,-0.9687,-0.9823,-0.9003,-0.9727,-1.0254,-1.0293,0.0,0.0,0.0,0.0,0.0,-1.0293,-1.0293,-1.0293,-1.0293,0.0,0.0,-1.2815,-1.2792,-1.3671,-1.5204,-1.4334,-1.3066,-1.156,0.0,0.0,-1.1503,-1.2262,-1.2664,-1.2967,-1.4473,-1.5098,-1.495,-1.3194,0.0,0.0,0.0,0.0,0.0,-1.3378,-1.3414,-1.2843,0.0,0.0,0.0,0.0,0.0,0.0,0.0,0.0,0.0,0.0,0.0,0.0,-2.8025,-2.864,-2.9179,-2.9217,-3.0621,-3.2006,-3.2795,-3.2949,-3.3256,-3.4103,-3.4237,-3.4603,-3.5507,-3.5617,-3.5649,-3.5772,-3.5899,-3.5996,-3.6035,-3.6855,-3.7363,-3.7363,-3.8144,-3.8594,-3.8594,-3.8594,-3.8594,-3.8594,-3.8594,-3.9043,-3.9902,-3.9941,-4.0391,-4.1191,-4.1191,-4.1211,-4.1269,-4.1308,-4.1328,-4.1387,-4.2148,-4.2461,-4.2558,-4.3379,-4.3691,-4.3691,-4.3691,-4.373,-4.3769,0.0,0.0,0.0,0.0,0.0,0.0,0.0,0.0,0.0,0.0,0.0,0.0,0.0,-0.9596,-0.9332,-0.9024,-0.9286,0.0,0.0,0.0,0.0,0.0,0.0,0.0,0.0,-1.0293,-1.0286,0.0,0.0,-1.081,-1.1964,-1.1918,-1.2237,-1.2872,-1.3073,-1.3137,-1.3004,-1.1365,0.0,-1.23,-1.2583,-1.3717,-1.5236,-1.5273,-1.5978,-1.6683,-1.4921,0.0,0.0,0.0,0.0,0.0,-1.2478,-1.2526,-1.2627,-1.2035,0.0,0.0,0.0,0.0,0.0,0.0,0.0,0.0,0.0,0.0,-2.7217,-2.7775,-2.8121,-2.8332,-2.8332,-2.9717,-3.0968,-3.1256,-3.1756,-3.2237,-3.2545,-3.3526,-3.4314,-3.4661,-3.5199,-3.5565,-3.5641,-3.5676,-3.5762,-3.5898,-3.6211,-3.6426,-3.6465,-3.6758,-3.6934,-3.6934,-3.6934,-3.6934,-3.6934,-3.748,-3.793,-3.8242,-3.8809,-3.9512,-4.0371,-4.0371,-4.0664,-4.1191,-4.1191,-4.1191,-4.1211,-4.1504,-4.1621,-4.166,-4.1973,-4.2109,-4.2109,-4.2109,-4.2422,-4.2871,0.0,0.0,0.0,-0.8086,0.0,-0.6836,-0.6836,-0.6348,-0.6387,-0.7539,0.0,0.0,0.0,0.0,-0.9436,-0.9436,-0.9442,-0.9687,-1.0254,-1.0293,0.0,0.0,0.0,0.0,0.0,-1.0285,-1.0246,-1.0194,-1.0194,-1.0626,0.0,-1.1425,-1.1585,-1.1907,-1.2161,-1.2752,0.0,0.0,0.0,-1.3186,-1.375,-1.501,-1.6609,-1.6869,-1.7665,-1.8413,0.0,0.0,0.0,0.0,0.0,0.0,-1.2926,-1.2488,-1.2219,-1.193,-1.2661,0.0,-1.5599,0.0,0.0,0.0,0.0,0.0,0.0,0.0,-2.6005,-2.6851,-2.7255,-2.7467,-2.7467,-2.8602,-2.966,-2.9929,-3.0698,-3.1371,-3.166,-3.266,-3.3449,-3.3718,-3.4276,-3.4641,-3.4699,-3.4724,-3.4831,-3.4983,-3.5284,-3.5371,-3.5137,-3.5684,-3.5996,-3.5996,-3.5996,-3.5996,-3.5996,-3.6562,-3.7012,-3.7305,-3.7891,-3.8613,-3.9453,-3.9453,-3.9785,-4.0332,-4.0644,-4.0937,-4.1191,-4.1191,-4.1191,-4.1191,-4.1191,-4.1191,-4.1191,-4.1191,-4.1543,-4.1992,-0.6463,-0.7168,-0.8047,-0.8887,-0.832,-0.7734,-0.7734,-0.7715,-0.7715,-0.7734,0.0,0.0,0.0,0.0,0.0,-1.0293,-1.0293,-1.0293,-1.0293,-1.0293,0.0,0.0,0.0,0.0,-1.0293,-1.0224,-1.0198,-1.0194,-1.0194,-1.0594,-1.1354,-1.1363,-1.1814,-1.2584,-1.1776,-1.1872,-1.27,0.0,-1.3887,-1.4187,0.0,-1.6477,-1.6845,0.0,-2.0292,0.0,-1.8407,-1.7799,0.0,-1.6907,0.0,0.0,0.0,-1.3464,-1.1603,-1.2449,-1.2738,0.0,0.0,0.0,0.0,0.0,0.0,0.0,0.0,0.0,-2.4264,-2.5101,-2.5947,-2.6524,-2.6563,-2.7274,-2.8121,-2.889,-2.9775,-3.0679,-3.1545,-3.1679,-3.1987,-3.2776,-3.2891,-3.2891,-3.2891,-3.3032,-3.314,-3.3177,-3.4047,-3.4218,-3.3437,-3.5039,-3.5957,-3.5957,-3.5996,-3.5996,-3.5996,-3.5996,-3.6426,-3.7266,-3.7266,-3.7715,-3.8555,-3.8555,-3.8574,-3.8652,-3.9492,-4.0351,-4.1152,-4.1191,-4.1191,-4.1191,-4.1191,-4.1191,-4.1191,-4.1191,-4.1191,-4.1191,-0.816,-0.8944,-0.9609,-0.9883,-0.9219,-0.8633,-0.8633,-0.8105,-0.793,0.0,0.0,0.0,-1.0202,-1.0269,-1.023,-1.0234,-1.0234,-1.0254,-1.0293,-1.0293,-1.0293,-1.0293,-1.0259,-1.023,-1.023,-1.0202,-1.0202,-1.0194,-1.0194,-1.031,-1.0536,-1.0479,-1.0617,-1.0906,-1.1252,-1.1521,-1.1738,-1.1325,0.0,-1.4849,-1.4689,-1.6093,0.0,0.0,0.0,0.0,0.0,-2.0062,-1.9638,0.0,-1.8996,-1.7304,0.0,0.0,-1.2392,-1.2623,-1.3565,-1.4464,-1.4305,0.0,0.0,0.0,0.0,0.0,0.0,0.0,0.0,-2.412,-2.463,-2.4966,-2.5563,-2.637,-2.7024,-2.7255,-2.8506,-2.9756,-3.0641,-3.1295,-3.1775,-3.2006,-3.2545,-3.2891,-3.2891,-3.2994,-3.3077,-3.3186,-3.3484,-3.3575,-3.3418,-3.4453,-3.5059,-3.5059,-3.5664,-3.5996,-3.5996,-3.5996,-3.6113,-3.6367,-3.6367,-3.6816,-3.7656,-3.7656,-3.8008,-3.8613,-3.8848,-3.9453,-4.0312,-4.0937,-4.1191,-4.1191,-4.1191,-4.1191,-4.1191,-4.1191,-4.1191,-4.1191,-0.8867,-0.9623,-1.0211,-1.0293,-0.9883,-0.9414,-0.9062,-0.8887,-0.8828,0.0,0.0,0.0,-1.0206,-1.0214,-1.0199,-1.0203,-1.0191,-1.0214,-1.0267,-1.0273,-1.0292,-1.0267,-1.0211,-1.0194,-1.0194,-1.0209,-1.019,-1.0194,-1.0175,-1.0144,-1.0123,-1.0085,-1.0085,-1.0142,-1.0607,-1.0827,-1.0829,-1.0325,0.0,0.0,-1.5266,0.0,0.0,-1.928,-1.985,0.0,0.0,0.0,-2.0927,-2.1754,-2.0927,0.0,0.0,-1.5061,-1.422,-1.3854,-1.4695,0.0,0.0,0.0,0.0,0.0,0.0,0.0,-2.0823,-2.1188,0.0,0.0,-2.411,-2.436,-2.5149,-2.5717,-2.6178,-2.6544,-2.7428,-2.8486,-2.9698,-3.0621,-3.116,-3.116,-3.1564,-3.1872,-3.191,-3.1936,-3.2013,-3.2141,-3.2532,-3.2957,-3.3378,-3.3555,-3.3809,-3.4141,-3.5,-3.5469,-3.5469,-3.582,-3.5996,-3.5996,-3.5996,-3.6269,-3.6758,-3.6758,-3.7018,-3.7487,-3.7857,-3.8263,-3.8788,-4.0011,-4.0791,-4.1191,-4.1191,-4.1191,-4.1191,-4.1191,-4.1191,-4.1191,0.0,-0.9664,-1.0229,-1.0292,-1.0293,-1.0039,-0.9258,-0.9805,-1.002,0.0,-0.9807,-1.0271,-1.0214,-1.0194,-1.0194,-1.0194,-1.0201,-1.0207,-1.0197,-1.0263,-1.0265,-1.0197,-1.0206,-1.0194,-1.0194,-1.0194,-1.0194,-1.0194,-1.0133,-1.0074,-1.0006,-1.0006,-1.0006,-1.0006,-1.0006,-1.0033,-1.0113,-1.0306,-1.1748,-1.4093,-1.6369,-1.7503,0.0,0.0,-2.0273,-2.0542,-2.135,-2.1716,-2.1908,-2.2677,-2.1908,0.0,-1.7715,-1.6933,-1.674,-1.5766,-1.6234,0.0,-1.7702,-1.7991,0.0,0.0,-1.9061,0.0,-2.1795,-2.1339,-2.0978,0.0,-2.3841,-2.4082,-2.488,-2.5111,-2.5418,-2.6197,-2.6486,-2.7159,-2.8736,-2.9717,-3.0256,-3.0256,-3.034,-3.0417,-3.0487,-3.0506,-3.0564,-3.0679,-3.1433,-3.2244,-3.3086,-3.2539,-3.2539,-3.3242,-3.4101,-3.4551,-3.4551,-3.543,-3.5859,-3.5859,-3.5954,-3.5989,-3.5989,-3.5973,-3.5938,-3.592,-3.6702,-3.7019,-3.7121,-3.8661,-3.9998,-4.1033,-4.1133,-4.1171,-4.1151,-4.1191,-4.1191,-4.1172,-0.9817,-1.0078,-1.0229,-1.0292,-1.0293,-1.0234,-1.0078,-1.0195,-1.0234,-1.0078,-1.0142,-1.0214,-1.0194,-1.0194,-1.0194,-1.0194,-1.0208,-1.0191,-1.0193,-1.0216,-1.0213,-1.0193,-1.0206,-1.0194,-1.0194,-1.0156,-1.0113,-1.0113,-1.0113,-1.009,-1.0082,-1.0082,-1.0082,-1.0082,-1.0082,-1.0086,-1.019,-1.1603,-1.2849,-1.3934,-1.444,0.0,-1.878,-1.9112,-2.0092,-2.1389,-2.2235,-2.3004,-2.3629,-2.3841,-2.3275,-2.2143,0.0,-1.9641,-1.9321,-1.774,-1.8835,-2.0254,-1.9069,-1.9735,-2.0523,-1.9511,-1.9564,0.0,-1.9838,-2.0131,-2.0711,0.0,-2.2158,-2.2401,-2.3208,-2.39,-2.438,-2.4562,-2.5717,-2.6967,-2.7986,-2.8832,-2.9352,-2.9352,-3.0025,-3.0487,-3.0506,-3.0602,-3.066,-3.0698,-3.0956,-3.1182,-3.1387,-3.1894,-3.2266,-3.2422,-3.3223,-3.3652,-3.3652,-3.4512,-3.4941,-3.4961,-3.5616,-3.5916,-3.5916,-3.5806,-3.5756,-3.5752,-3.5925,-3.6369,-3.7025,-3.7372,-3.8452,-3.9986,-4.0734,-4.098,-4.0908,-4.1126,-4.1133,-4.1055,-1.0117,-1.0208,-1.0229,-1.0292,-1.0293,-1.0293,-1.0293,-1.0293,-1.0469,-1.0898,-1.089,-1.068,-1.026,-1.0175,-1.0156,-1.0156,-1.0175,-1.0194,-1.0144,-1.0182,-1.0198,-1.0144,-1.0182,-1.0175,-1.0156,-1.0113,-1.0094,-1.0094,-1.0094,-1.0082,-1.0057,-1.0057,-1.0287,-1.0674,-1.0229,-1.0304,-1.0771,-1.1214,-1.2137,-1.3445,-1.5118,0.0,-1.9042,-1.9477,-2.0419,-2.162,-2.2485,-2.3639,-2.4697,-2.4284,-2.3923,0.0,-2.1611,-2.1345,-2.1357,0.0,-2.0292,-2.1424,-2.0573,-2.0949,-2.1496,-2.1108,0.0,0.0,0.0,-2.0119,-2.0305,-2.2041,-2.2036,-2.2088,-2.332,-2.3882,-2.4159,-2.4149,-2.5226,-2.6197,-2.664,-2.7736,-2.8486,-2.8486,-2.8937,-2.927,-2.9302,-2.9783,-3.0307,-3.0769,-3.0862,-3.0898,-3.0898,-3.1309,-3.1543,-3.1543,-3.2296,-3.27,-3.27,-3.3524,-3.3958,-3.3955,-3.4789,-3.5195,-3.5205,-3.5546,-3.5688,-3.5639,-3.5663,-3.5872,-3.6271,-3.6675,-3.7385,-3.8391,-3.9768,-4.0545,-4.091,-4.1052,-4.11,-4.1113,-1.0194,-1.0208,-1.0229,-1.0292,-1.0293,-1.0293,-1.0293,-1.0293,-1.0605,-1.1474,-1.1536,-1.1283,-1.0741,-1.0633,-1.0652,-1.0825,-1.0598,-1.0483,-1.0598,-1.0348,-1.0156,-1.0094,-1.0156,-1.0156,-1.0094,-1.0094,-1.0094,-1.0094,-1.0094,-1.0074,-1.0011,-1.0011,-1.0398,-1.1057,-1.0517,-1.0694,0.0,0.0,0.0,-1.3662,0.0,-1.7888,-1.8631,-1.9658,-2.0562,-2.1427,-2.2639,-2.4082,-2.5303,-2.461,-2.4469,-2.4292,-2.2723,-2.2812,0.0,0.0,0.0,-2.2407,0.0,0.0,-2.2516,-2.289,0.0,-2.1216,0.0,0.0,0.0,-2.2421,-2.2272,0.0,0.0,0.0,0.0,-2.3962,0.0,0.0,0.0,-2.6265,0.0,-2.7651,-2.7887,-2.8058,-2.8105,-2.8662,-2.9401,-3.0331,-3.0234,-3.0293,-3.0625,-3.0637,-3.0704,-3.0862,-3.1425,-3.1733,-3.1734,-3.2538,-3.2946,-3.2965,-3.3825,-3.4236,-3.4249,-3.5051,-3.5372,-3.5334,-3.5507,-3.5565,-3.5584,-3.6219,-3.6661,-3.7084,-3.8723,-3.982,-4.0473,-4.0519,-4.0691,-4.0918,-1.0194,-1.0208,-1.0229,-1.0292,-1.0293,-1.0293,-1.0293,-1.0293,-1.059,-1.1412,-1.1493,-1.1738,-1.2353,-1.2421,0.0,0.0,-1.2118,-1.1584,-1.2353,-1.0964,-1.0113,-1.0094,-1.0113,-1.0113,-1.0094,-1.0094,-1.0094,-1.0094,-1.0094,-1.009,-1.0086,-1.0086,-1.0144,-1.0259,-1.0936,0.0,0.0,0.0,-1.3816,0.0,-1.6484,-1.6696,0.0,-1.8549,-1.9677,-2.0754,-2.3167,-2.4668,-2.5486,0.0,-2.5471,-2.537,0.0,-2.4647,-2.4979,-2.3298,0.0,0.0,0.0,0.0,0.0,0.0,-2.3427,-2.3285,-2.1139,0.0,-2.1679,-2.1973,0.0,0.0,0.0,0.0,0.0,0.0,0.0,0.0,-2.3387,-2.4053,-2.5189,-2.6738,-2.7676,-2.818,-2.8195,-2.7634,-2.7653,-2.8535,-2.7871,-2.8125,-2.9668,-2.9687,-2.9987,-3.0702,-3.0742,-3.0765,-3.0768,-3.1623,-3.2061,-3.2061,-3.2879,-3.3249,-3.3269,-3.4039,-3.4372,-3.4391,-3.518,-3.5545,-3.5603,-3.5699,-3.6232,-3.7093,-3.8074,-3.8507,-3.8621,-3.8805,-3.9312,-3.9888,-1.0194,-1.0208,-1.0209,-1.0234,-1.0273,-1.0293,-1.0293,-1.1152,-1.1721,-1.1539,-1.2357,-1.3075,0.0,0.0,0.0,0.0,0.0,-1.2599,0.0,0.0,-1.0628,-1.0113,-1.0133,-1.0133,-1.0094,-1.0094,-1.0094,-1.0094,-1.0094,-1.0094,-1.0094,-1.0094,-1.0363,-1.0867,-1.1233,0.0,-1.2844,0.0,-1.358,0.0,0.0,-1.5765,0.0,-1.8742,-2.0608,-2.207,-2.4206,-2.5216,-2.5486,-2.5005,-2.5229,-2.5547,0.0,0.0,0.0,-2.4219,0.0,0.0,0.0,0.0,0.0,0.0,-2.3748,-2.3248,-2.1662,-2.1237,-2.1426,-2.2402,0.0,0.0,0.0,0.0,0.0,0.0,-2.3345,0.0,0.0,0.0,-2.4,-2.5143,0.0,-2.6351,-2.739,-2.6743,-2.6816,-2.8203,-2.748,-2.7539,-2.8789,-2.9249,-2.9644,-2.9982,-3.0346,-3.0549,-3.0544,-3.0883,-3.1037,-3.1037,-3.1884,-3.2288,-3.2307,-3.3083,-3.3718,-3.4218,-3.4622,-3.5103,-3.5597,-3.5637,-3.5933,-3.6406,-3.6762,-3.7502,-3.8377,-3.844,-3.8735,-3.9148,-1.0194,0.0,-1.0193,-1.0194,-1.0254,-1.0371,-1.0625,-1.1738,-1.2469,-1.2223,-1.3235,0.0,-1.4647,-1.4639,0.0,0.0,-1.4882,-1.4093,0.0,0.0,-1.1727,-1.0882,-1.0884,-1.0787,-1.0491,-1.0472,-1.0352,-1.0094,-1.0094,-1.0094,-1.0094,-1.0094,-1.0444,-1.106,-1.1541,-1.256,-1.3882,0.0,-1.4148,-1.5368,-1.5774,-1.6391,-1.7287,-1.9496,-2.1413,-2.313,-2.4656,-2.537,-2.5505,-2.4884,-2.5149,-2.5586,-2.4961,-2.5195,-2.5586,0.0,0.0,0.0,-2.4766,-2.4766,-2.4648,-2.4199,-2.3633,-2.291,-2.1797,-2.123,-2.1367,-2.2832,-2.2832,0.0,0.0,0.0,-2.3379,-2.3144,0.0,-2.2971,0.0,-2.2659,0.0,0.0,0.0,0.0,-2.5799,-2.5136,-2.5352,-2.7109,-2.6426,-2.6502,-2.7845,-2.8461,-2.8963,-2.9406,-2.986,-3.0237,-3.0467,-3.0417,-3.0398,-3.0398,-3.1044,-3.1352,-3.1371,-3.2199,-3.291,-3.3545,-3.4077,-3.4674,-3.5319,-3.5631,-3.5822,-3.593,-3.593,-3.6672,-3.7738,-3.7738,-3.7949,-3.832,-1.0194,-1.0198,0.0,-1.0193,-1.0254,-1.0586,-1.1426,-1.1602,-1.2183,-1.3714,0.0,0.0,0.0,0.0,0.0,0.0,0.0,-1.6381,-1.6337,0.0,-1.355,-1.2756,-1.2727,-1.2313,-1.1463,-1.1463,-1.1007,-1.0094,-1.0094,-1.0094,-1.0094,-1.0094,-1.0113,-1.021,-1.1911,-1.3118,-1.3959,-1.4843,-1.665,-1.8871,-1.8126,-1.929,-2.1418,-2.0675,-2.1485,-2.3115,-2.4082,-2.4934,-2.5618,-2.564,-2.5683,-2.5703,-2.5664,-2.5684,-2.5684,-2.5664,-2.5664,-2.5664,-2.5664,-2.5664,-2.5273,-2.3633,-2.3223,-2.2754,-2.1035,-2.1269,-2.2109,-2.3008,-2.3809,-2.459,-2.5488,-2.4941,-2.4082,-2.3242,-2.3144,0.0,0.0,0.0,0.0,0.0,0.0,0.0,0.0,-2.2392,-2.2656,-2.4394,-2.3711,-2.4303,-2.6804,-2.6916,-2.7595,-2.9151,-2.9171,-2.9544,-3.0379,-3.0398,-3.0398,-3.0398,-3.0417,-3.0436,-3.0456,-3.1352,-3.1756,-3.1872,-3.3564,-3.4397,-3.4605,-3.5512,-3.5925,-3.6001,-3.6001,-3.6032,-3.6073,-3.6073,-3.6601,-3.7344,0.0,0.0,0.0,0.0,0.0,-1.0586,-1.1465,-1.2539,-1.3647,0.0,-1.5361,0.0,0.0,-1.8145,-1.8376,0.0,0.0,-1.7728,-1.658,-1.5515,0.0,-1.4539,-1.3419,-1.2925,-1.3209,-1.2083,-1.1343,-1.1027,-1.0452,-1.0175,-1.0175,-1.0113,-1.0094,-1.0171,-1.192,-1.3484,0.0,0.0,0.0,0.0,0.0,-2.0007,-2.1804,-2.2079,-2.2912,-2.4031,-2.4946,-2.5434,-2.5668,-2.5681,-2.5703,-2.5703,-2.5703,-2.5703,-2.5703,-2.5703,-2.5703,-2.5703,-2.5703,-2.5703,-2.543,-2.4277,-2.3555,-2.2832,-2.1719,-2.1699,-2.2129,-2.2969,-2.3809,-2.4668,-2.5547,-2.498,-2.4102,-2.3242,-2.2676,-2.1934,0.0,0.0,0.0,0.0,0.0,0.0,0.0,0.0,-2.3139,-2.4316,-2.409,-2.4525,-2.5948,-2.6476,-2.7248,-2.8379,-2.8871,-2.9525,-3.0379,-3.0398,-3.0398,-3.0398,-3.0398,-3.0398,-3.0398,-3.0717,-3.1167,-3.1802,-3.2442,-3.3427,-3.4588,-3.4951,-3.5461,-3.5992,-3.5992,-3.5994,-3.5996,-3.5996,-3.6191,-3.6523,-1.0257,0.0,0.0,0.0,0.0,-1.1055,-1.1934,-1.3495,0.0,0.0,-1.6326,0.0,-1.8838,0.0,-1.903,0.0,-1.9511,-1.8811,-1.7112,-1.6843,0.0,-1.5885,-1.5077,-1.4628,-1.4559,-1.3461,-1.2437,-1.1506,-1.0934,-1.0505,-1.0194,-1.0156,-1.0133,-1.0214,-1.1952,-1.3689,-1.5388,-1.6565,-1.7734,0.0,0.0,-2.1058,0.0,-2.3248,-2.3913,-2.452,-2.5385,-2.5703,-2.5703,-2.5703,-2.5703,-2.5703,-2.5703,-2.5703,-2.5703,-2.5703,-2.5703,-2.5703,-2.5703,-2.5703,-2.5488,-2.4629,-2.3984,-2.3359,-2.2519,-2.2578,-2.2949,-2.3457,-2.4258,-2.5039,-2.5605,-2.498,-2.4102,-2.3242,-2.2422,-2.1602,0.0,-2.1074,0.0,0.0,0.0,0.0,0.0,0.0,-2.2456,-2.4229,-2.377,-2.4034,-2.5447,-2.5976,-2.6629,-2.7484,-2.7967,-2.8775,-2.9929,-2.9948,-3.0102,-3.0398,-3.0398,-3.0398,-3.0398,-3.0398,-3.0725,-3.1333,-3.1737,-3.256,-3.3692,-3.4407,-3.5039,-3.5566,-3.5879,-3.5996,-3.5996,-3.5996,-3.5996,-3.6113,-1.0416,0.0,0.0,0.0,-1.1107,0.0,0.0,0.0,-1.5751,0.0,-1.693,-1.7605,-1.8915,-1.8831,-1.9138,-2.0215,-2.0312,-1.9654,-1.8121,-1.8762,0.0,0.0,-1.7598,-1.7246,-1.5625,-1.5469,-1.4177,-1.1688,-1.155,-1.1074,-1.0267,-1.0229,-1.021,-1.0287,-1.2023,0.0,-1.5418,-1.7176,-1.8899,-2.0595,-2.1571,-2.2449,-2.3281,-2.4143,-2.4453,-2.457,-2.5391,-2.5703,-2.5703,-2.5703,-2.5703,-2.5703,-2.5703,-2.5703,-2.5703,-2.5703,-2.5703,-2.5703,-2.5703,-2.5703,-2.5508,-2.4668,-2.4434,-2.418,-2.3359,-2.3809,-2.4394,-2.4394,-2.5098,-2.5703,-2.5703,-2.5019,-2.418,-2.3301,-2.248,-2.168,-2.084,0.0,0.0,0.0,0.0,0.0,0.0,0.0,-2.0688,-2.3925,-2.2786,0.0,0.0,-2.537,-2.5717,-2.6563,-2.6601,-2.7409,-2.9083,-2.9102,-2.9544,-3.0398,-3.0398,-3.0398,-3.0398,-3.0398,-3.0398,-3.046,-3.1418,-3.1857,-3.2035,-3.382,-3.4629,-3.4785,-3.5605,-3.5957,-3.5996,-3.5996,-3.5996,-3.6113,-1.1203,-1.1739,-1.2218,0.0,-1.2909,-1.3535,0.0,0.0,0.0,0.0,-1.8117,-1.8924,-1.9869,-1.9946,-2.0062,-2.035,-2.0427,0.0,0.0,0.0,0.0,-1.959,-1.8574,-1.8086,-1.8281,-1.6387,-1.5078,-1.4393,-1.2459,-1.1383,-1.1143,-1.0498,-1.0204,-1.0282,0.0,0.0,-1.5483,-1.723,-1.8988,-2.0703,-2.2258,-2.2979,-2.3285,-2.4784,-2.5371,-2.5391,-2.5625,-2.5703,-2.5703,-2.5703,-2.5703,-2.5703,-2.5703,-2.5703,-2.5703,-2.5703,-2.5703,-2.5703,-2.5703,-2.5703,-2.5644,-2.543,-2.4883,-2.4336,-2.4121,-2.4238,-2.4394,-2.4394,-2.5098,-2.5703,-2.5703,-2.5527,-2.5078,-2.4219,-2.3359,-2.2715,0.0,0.0,0.0,-2.2427,0.0,0.0,0.0,-2.0592,-2.1482,-2.2303,-2.3178,-2.4159,-2.5351,-2.4793,-2.5101,-2.6544,-2.6601,-2.7409,-2.9083,-2.9102,-2.9544,-3.0398,-3.0398,-3.0398,-3.0398,-3.0398,-3.0417,-3.0487,-3.0739,-3.1287,-3.2005,-3.2499,-3.3496,-3.4726,-3.4941,-3.543,-3.5996,-3.5996,-3.5996,-3.6035,-1.259,0.0,0.0,-1.4043,0.0,0.0,-1.4785,-1.5779,0.0,-1.7734,-1.892,0.0,-1.9769,-2.0156,-2.0396,-2.0355,-2.039,0.0,-1.9901,0.0,0.0,-1.998,-1.9434,-1.9199,-1.9297,-1.748,0.0,-1.5391,-1.3184,-1.1892,-1.1478,-1.0615,-1.0205,-1.0284,0.0,-1.3555,-1.4992,-1.7519,-1.9355,-2.0742,-2.25,-2.3184,0.0,-2.5059,-2.5703,-2.5703,-2.5703,-2.5703,-2.5703,-2.5703,-2.5703,-2.5703,-2.5703,-2.5703,-2.5703,-2.5703,-2.5703,-2.5703,-2.5703,-2.5703,-2.5703,-2.5703,-2.5332,-2.4961,-2.4961,-2.4961,-2.4961,-2.4961,-2.5352,-2.5703,-2.5703,-2.5391,-2.4863,-2.4004,-2.3457,-2.312,0.0,0.0,0.0,0.0,-2.2056,0.0,-1.927,-2.0044,-2.0792,-2.1103,-2.2361,-2.3457,-2.4265,-2.4505,-2.5063,-2.6005,-2.6043,-2.6678,-2.7986,-2.839,-2.9006,-2.9833,-3.0217,-3.0398,-3.0398,-3.0398,-3.0417,-3.0467,-3.0487,-3.082,-3.1378,-3.178,-3.2556,-3.3556,-3.4354,-3.5195,-3.5957,-3.5996,-3.5996,-3.5996,-1.4181,0.0,0.0,0.0,0.0,0.0,0.0,-1.666,-1.7389,-1.8136,0.0,-2.0459,-1.9687,-2.0263,-2.064,-2.05,-2.0463,-2.0116,-1.9312,-2.0031,-2.0153,-1.9394,-2.0156,-2.0234,-1.9492,-1.8613,-1.7363,-1.5742,-1.3944,-1.2574,-1.166,-1.0668,-1.0252,0.0,0.0,0.0,0.0,-1.7969,-1.9805,-2.0742,-2.248,-2.3184,-2.3379,-2.5059,-2.5703,-2.5703,-2.5703,-2.5703,-2.5703,-2.5703,-2.5703,-2.5703,-2.5703,-2.5703,-2.5703,-2.5703,-2.5703,-2.5703,-2.5703,-2.5703,-2.5703,-2.5703,-2.5703,-2.5703,-2.5703,-2.5703,-2.5703,-2.5703,-2.5703,-2.5703,-2.5703,-2.5076,-2.4329,-2.3626,-2.3512,0.0,0.0,0.0,0.0,0.0,0.0,0.0,-1.943,-1.9426,-1.9719,-2.0188,-2.1086,-2.1999,-2.2843,-2.4226,-2.5091,-2.5303,-2.5303,-2.5717,-2.6601,-2.7467,-2.8294,-2.9102,-2.9987,-3.0398,-3.0398,-3.0398,-3.0398,-3.0398,-3.0467,-3.0487,-3.0568,-3.1382,-3.1864,-3.2253,-3.3936,-3.5134,-3.5918,-3.5976,-3.5996,-3.5996,-1.5177,0.0,0.0,0.0,0.0,-1.8799,-1.9429,-1.9692,-1.9841,-1.9951,-2.1462,-2.246,-2.2265,-2.2272,-2.2074,-2.1494,-2.1301,0.0,0.0,0.0,0.0,-2.0273,-2.043,-2.0469,-2.0371,-1.9512,-1.8574,-1.7539,-1.5085,-1.3441,-1.2549,-1.0946,-1.0572,-1.1328,0.0,0.0,-1.7402,-1.873,0.0,-2.0742,-2.2441,-2.3125,-2.3301,-2.5039,-2.5703,-2.5703,-2.5703,-2.5703,-2.5703,-2.5703,-2.5703,-2.5703,-2.5703,-2.5703,-2.5703,-2.5703,-2.5703,-2.5703,-2.5703,-2.5703,-2.5703,-2.5703,-2.5703,-2.5703,-2.5703,-2.5703,-2.5703,-2.5703,-2.5703,-2.5703,-2.5703,-2.5526,-2.5332,-2.5197,-2.5135,-2.5098,0.0,0.0,0.0,0.0,0.0,-2.2013,-2.0253,-2.0803,-2.0718,-1.9442,-2.0792,-2.204,-2.2868,-2.3169,-2.3947,-2.5351,-2.5322,-2.5717,-2.6601,-2.7467,-2.8294,-2.9102,-2.9987,-3.0398,-3.0398,-3.0398,-3.0398,-3.0398,-3.0398,-3.0448,-3.0506,-3.0678,-3.1667,-3.3167,-3.421,-3.5178,-3.5976,-3.5996,-3.5996,-3.5996,0.0,0.0,0.0,0.0,0.0,-1.9777,-2.0315,-2.1184,-2.1588,-2.1003,-2.1656,-2.2103,-2.1936,-2.2249,-2.238,-2.2144,-2.2029,-2.1885,-2.1658,-2.1686,-2.1526,-2.1141,-2.1162,-2.0996,-2.0605,-1.9746,-1.8862,-1.7952,-1.5814,-1.4073,-1.2721,-1.1434,-1.1068,-1.1586,0.0,-1.5584,0.0,-1.9414,-2.0488,-2.1426,-2.3105,-2.3769,-2.3926,-2.5215,-2.5703,-2.5703,-2.5703,-2.5703,-2.5703,-2.5703,-2.5703,-2.5703,-2.5703,-2.5703,-2.5703,-2.5703,-2.5703,-2.5703,-2.5703,-2.5703,-2.5703,-2.5703,-2.5703,-2.5703,-2.5703,-2.5703,-2.5703,-2.5703,-2.5703,-2.5703,-2.5703,-2.5643,-2.5601,-2.564,-2.5605,-2.5534,0.0,0.0,0.0,0.0,0.0,0.0,0.0,-2.1093,-2.0708,0.0,0.0,-2.1339,-2.2171,-2.3044,-2.4072,-2.5303,-2.5322,-2.5495,-2.5928,-2.7236,-2.8082,-2.8486,-2.9775,-3.0398,-3.0398,-3.0398,-3.0398,-3.0398,-3.0398,-3.0417,-3.0448,-3.0487,-3.1306,-3.2608,-3.3551,-3.4476,-3.5321,-3.5812,-3.5996,-3.5996,0.0,-2.0153,0.0,0.0,-2.0927,-2.128,-2.0849,-2.2253,-2.2993,-2.1876,-2.1953,-2.2009,-2.1792,-2.2409,-2.2825,-2.278,-2.2783,-2.2772,-2.2803,-2.2849,-2.2607,-2.1999,-2.2036,-2.1775,-2.1172,-2.0293,-1.9392,-1.8448,-1.6566,-1.4822,-1.3234,-1.2175,-1.1894,-1.2423,-1.505,-1.709,-1.8652,-2.0215,-2.1364,-2.2285,-2.3788,-2.4394,-2.4473,-2.5341,-2.5685,-2.5687,-2.5658,-2.566,-2.566,-2.566,-2.5675,-2.5687,-2.5658,-2.566,-2.566,-2.566,-2.5663,-2.5684,-2.5684,-2.5684,-2.5703,-2.5703,-2.5703,-2.5703,-2.5703,-2.5703,-2.5703,-2.5703,-2.5703,-2.5703,-2.5703,-2.5648,-2.5622,-2.5659,-2.561,-2.5569,-2.5511,0.0,0.0,0.0,0.0,0.0,-2.0781,-2.0485,0.0,0.0,0.0,-2.0603,-2.1336,-2.2938,-2.4312,-2.5303,-2.5303,-2.5303,-2.5303,-2.6851,-2.7717,-2.7909,-2.941,-3.0217,-3.0398,-3.0398,-3.0398,-3.0398,-3.0398,-3.0398,-3.0398,-3.0487,-3.1022,-3.1907,-3.2713,-3.3558,-3.4468,-3.5389,-3.5723,-3.5742,0.0,0.0,0.0,-2.0312,-2.2822,-2.4224,-2.2325,-2.3501,-2.4208,-2.3005,-2.3754,-2.4358,-2.4265,-2.4441,-2.4317,-2.3736,-2.3671,-2.3433,-2.2842,-2.2821,-2.284,-2.2879,-2.2876,-2.2903,-2.2969,-2.2109,-2.1199,-2.0262,-1.7722,-1.6008,-1.5022,-1.3354,-1.3419,-1.5067,-1.7732,-1.9453,-2.043,-2.1367,-2.225,-2.3058,-2.4018,-2.4355,-2.4392,-2.5286,-2.5618,-2.5605,-2.554,-2.5526,-2.5526,-2.5526,-2.5557,-2.5595,-2.5546,-2.5526,-2.5526,-2.5526,-2.5564,-2.5605,-2.5605,-2.5644,-2.5703,-2.5703,-2.5703,-2.5703,-2.5703,-2.5703,-2.5703,-2.5703,-2.5703,-2.5703,-2.5703,-2.5643,-2.559,-2.5618,-2.5549,-2.5512,-2.5493,0.0,-2.5168,-2.4265,0.0,0.0,0.0,-1.8749,0.0,0.0,-1.9754,-2.0385,-2.059,-2.2128,-2.3775,-2.5428,-2.537,-2.5303,-2.5303,-2.6255,-2.7121,-2.7909,-2.8794,-2.964,-3.0398,-3.0398,-3.0398,-3.0398,-3.0398,-3.0398,-3.0398,-3.0544,-3.1091,-3.1916,-3.2066,-3.2691,-3.3629,-3.4492,-3.4824,-3.4922,-2.2705,-2.2641,-2.2641,-2.2641,-2.3757,-2.4364,-2.3518,-2.3982,-2.4273,-2.3771,-2.4332,-2.4659,-2.4393,-2.441,-2.446,-2.4455,-2.4454,-2.4412,-2.4322,-2.4293,-2.413,-2.3736,-2.3715,-2.3553,-2.3203,-2.282,-2.2158,-2.1229,-1.9606,-1.8107,-1.6715,-1.5522,-1.5655,-1.6988,-1.9627,-2.1016,-2.1465,-2.2832,-2.3583,-2.3953,-2.4782,-2.511,-2.5104,-2.5428,-2.5534,-2.5534,-2.5517,-2.5492,-2.5492,-2.5453,-2.5473,-2.5544,-2.5506,-2.5492,-2.5492,-2.5492,-2.5524,-2.554,-2.5538,-2.5597,-2.5644,-2.5644,-2.5664,-2.5703,-2.5703,-2.5703,-2.5703,-2.5703,-2.5703,-2.5703,-2.5703,-2.5644,-2.5602,-2.5652,-2.5609,-2.5551,-2.5562,0.0,0.0,-2.4406,0.0,0.0,0.0,-1.9892,0.0,0.0,-1.9138,-1.9223,-2.0323,-2.1936,-2.339,-2.461,-2.5091,-2.5303,-2.5303,-2.6159,-2.7044,-2.7909,-2.8717,-2.9563,-3.0398,-3.0398,-3.0398,-3.0398,-3.0448,-3.0467,-3.0467,-3.0602,-3.0874,-3.1245,-3.1876,-3.2358,-3.2832,-3.4199,-3.4707,-3.4824,-2.419,-2.419,-2.419,-2.419,-2.419,-2.419,-2.419,-2.419,-2.419,-2.419,-2.4444,-2.4528,-2.4228,-2.4321,-2.4538,-2.4866,-2.4974,-2.5088,-2.5303,-2.5303,-2.5091,-2.4591,-2.4581,-2.4378,-2.3926,-2.3601,-2.3127,-2.2442,-2.1251,-2.0035,-1.8811,-1.8261,-1.8349,-1.9099,-2.1442,-2.253,-2.2667,-2.4113,-2.4729,-2.4762,-2.533,-2.5571,-2.5563,-2.549,-2.5472,-2.5466,-2.5447,-2.5447,-2.5428,-2.539,-2.5409,-2.5447,-2.5447,-2.5447,-2.5447,-2.5447,-2.5466,-2.5466,-2.5466,-2.5537,-2.5601,-2.5604,-2.5644,-2.5703,-2.5703,-2.5703,-2.5703,-2.5703,-2.5673,-2.5681,-2.5703,-2.5644,-2.5623,-2.5657,-2.5635,-2.5588,-2.5566,-2.5577,0.0,-2.4407,-2.3295,-2.2358,-2.1688,-2.0615,0.0,0.0,-1.9388,-1.9473,-2.0982,-2.2167,-2.3322,-2.4457,-2.5005,-2.5303,-2.5303,-2.5909,-2.6774,-2.7909,-2.8467,-2.9333,-3.0398,-3.0398,-3.0398,-3.0398,-3.0487,-3.0525,-3.0518,-3.0684,-3.0733,-3.0766,-3.1529,-3.1816,-3.1992,-3.3437,-3.4101,-3.4434,-2.419,-2.419,-2.419,-2.419,-2.419,-2.419,-2.419,-2.419,-2.419,-2.419,-2.419,-2.4227,-2.419,-2.4598,-2.4892,-2.4892,-2.5141,-2.5303,-2.5303,-2.5303,-2.537,-2.5486,-2.5486,-2.5518,-2.5582,-2.4735,-2.4255,-2.4177,-2.2419,-2.1534,-2.1466,-2.1509,-2.154,-2.1639,-2.3384,-2.4161,-2.4239,-2.5099,-2.5479,-2.5495,-2.5505,-2.5492,-2.5486,-2.5428,-2.5409,-2.539,-2.5322,-2.5303,-2.5303,-2.5303,-2.5303,-2.5303,-2.5303,-2.5303,-2.5303,-2.5303,-2.5341,-2.5409,-2.5409,-2.5495,-2.5611,-2.5595,-2.5644,-2.5703,-2.5703,-2.5703,-2.5703,-2.5703,-2.5654,-2.5615,-2.5697,-2.5644,-2.5607,-2.5597,-2.5611,-2.5578,-2.5512,-2.5493,0.0,-2.4394,-2.277,-2.1713,-2.169,-2.0122,0.0,0.0,-2.1023,-2.1867,-2.2821,-2.2819,-2.3581,-2.5332,-2.5322,-2.5303,-2.5303,-2.5303,-2.6197,-2.789,-2.7909,-2.8794,-3.0398,-3.0398,-3.0398,-3.0398,-3.0544,-3.0564,-3.0513,-3.0781,-3.0823,-3.0698,-3.0866,-3.0918,-3.1016,-3.1914,-3.2734,-3.3535,-2.419,-2.419,-2.419,-2.419,-2.419,-2.419,-2.419,-2.419,-2.419,-2.419,-2.419,-2.4392,-2.4891,-2.5084,-2.5163,-2.5163,-2.5253,-2.5303,-2.5303,-2.5303,-2.537,-2.5486,-2.5464,-2.5471,-2.5611,-2.5245,-2.5034,-2.5024,-2.387,-2.2985,-2.2389,-2.3013,-2.3321,-2.3417,-2.4519,-2.5034,-2.5112,-2.5382,-2.5522,-2.5553,-2.5473,-2.5455,-2.5486,-2.537,-2.5322,-2.5322,-2.5303,-2.5303,-2.5303,-2.5303,-2.5303,-2.5303,-2.5303,-2.5303,-2.5303,-2.5303,-2.5322,-2.5322,-2.5322,-2.5409,-2.5464,-2.5526,-2.5576,-2.5638,-2.569,-2.5654,-2.5615,-2.5566,-2.5542,-2.5531,-2.5564,-2.5547,-2.552,-2.5531,-2.5537,-2.5515,-2.5498,-2.5506,-2.5395,-2.5156,-2.4096,-2.3398,-2.3408,-2.2357,-2.1786,-2.1985,-2.2235,-2.229,-2.2034,-2.308,-2.3947,-2.4495,-2.5024,-2.5303,-2.5303,-2.5303,-2.589,-2.7024,-2.7621,-2.8775,-3.0398,-3.0398,-3.0417,-3.0467,-3.0564,-3.0602,-3.0648,-3.0824,-3.0871,-3.0837,-3.0875,-3.0898,-3.1016,-3.1875,-3.2715,-3.3516,-2.419,-2.419,-2.419,-2.419,-2.419,-2.419,-2.419,-2.419,-2.419,-2.419,-2.4425,-2.478,-2.5253,-2.5303,-2.5303,-2.5303,-2.5303,-2.5303,-2.5303,-2.5303,-2.5341,-2.5466,-2.5422,-2.5449,-2.5524,-2.5447,-2.539,-2.537,-2.4812,-2.4274,-2.3755,-2.4293,-2.4562,-2.4639,-2.5139,-2.539,-2.5428,-2.5428,-2.5486,-2.5543,-2.5447,-2.5447,-2.5486,-2.539,-2.5322,-2.5303,-2.5303,-2.5322,-2.5341,-2.5341,-2.5341,-2.5341,-2.537,-2.537,-2.5322,-2.5303,-2.5303,-2.5303,-2.5303,-2.537,-2.5447,-2.5452,-2.5537,-2.5604,-2.5626,-2.559,-2.5552,-2.5517,-2.5479,-2.5464,-2.5495,-2.5476,-2.546,-2.546,-2.547,-2.5447,-2.5428,-2.5428,-2.5303,-2.5005,-2.4494,-2.4041,-2.3744,-2.3486,-2.3323,-2.3293,-2.3562,-2.3533,-2.3022,-2.3706,-2.4235,-2.4534,-2.5043,-2.5303,-2.5303,-2.5303,-2.5736,-2.6621,-2.7813,-2.9121,-3.0487,-3.0487,-3.0506,-3.0544,-3.0602,-3.066,-3.0706,-3.0843,-3.0898,-3.0898,-3.0898,-3.0898,-3.0976,-3.1504,-3.2246,-3.3066,-2.419,-2.419,-2.419,-2.419,-2.419,-2.419,-2.419,-2.419,-2.4209,-2.4266,-2.4877,-2.5303,-2.5303,-2.5303,-2.5303,-2.5303,-2.5303,-2.5303,-2.5303,-2.5303,-2.5322,-2.5409,-2.5387,-2.5395,-2.5409,-2.5409,-2.537,-2.5303,-2.5303,-2.5303,-2.5303,-2.5303,-2.5303,-2.5303,-2.5303,-2.5303,-2.5303,-2.5303,-2.537,-2.5486,-2.5428,-2.5447,-2.5486,-2.5428,-2.537,-2.5303,-2.5303,-2.5341,-2.5409,-2.5409,-2.5409,-2.5428,-2.5466,-2.5457,-2.539,-2.5332,-2.5303,-2.5303,-2.5303,-2.5409,-2.5486,-2.5428,-2.5505,-2.559,-2.5504,-2.5488,-2.5486,-2.5486,-2.5447,-2.5409,-2.5466,-2.5447,-2.539,-2.539,-2.539,-2.537,-2.5303,-2.5303,-2.5024,-2.4274,-2.4178,-2.389,-2.3131,-2.3736,-2.4149,-2.411,-2.4851,-2.5284,-2.5226,-2.4562,-2.4543,-2.5284,-2.5303,-2.5303,-2.5303,-2.5303,-2.5774,-2.6717,-2.8345,-2.9635,-3.0598,-3.0598,-3.0606,-3.0602,-3.066,-3.0702,-3.0721,-3.0846,-3.0898,-3.0898,-3.0898,-3.0898,-3.0898,-3.0898,-3.1445,-3.2305,-2.419,-2.419,-2.419,-2.419,-2.419,-2.419,-2.419,-2.419,-2.4409,-2.4975,-2.5192,-2.5303,-2.5303,-2.5303,-2.5303,-2.5303,-2.5303,-2.5303,-2.5303,-2.5303,-2.5322,-2.5409,-2.5341,-2.5351,-2.5409,-2.5341,-2.5322,-2.5303,-2.5303,-2.5303,-2.5303,-2.5303,-2.5303,-2.5303,-2.5303,-2.5303,-2.5303,-2.5303,-2.5341,-2.5428,-2.5341,-2.539,-2.5486,-2.537,-2.539,-2.5447,-2.539,-2.5428,-2.5476,-2.5473,-2.5479,-2.5473,-2.5484,-2.5495,-2.5473,-2.5465,-2.5447,-2.5447,-2.5447,-2.5486,-2.5505,-2.5543,-2.5582,-2.5563,-2.5444,-2.5408,-2.5409,-2.537,-2.5322,-2.5322,-2.5341,-2.5322,-2.5322,-2.5322,-2.5322,-2.5322,-2.5303,-2.5303,-2.5226,-2.5043,-2.5024,-2.4937,-2.4745,-2.4899,-2.4784,-2.4225,-2.4928,-2.512,-2.4495,-2.4909,-2.5236,-2.537,-2.5322,-2.5341,-2.5447,-2.5409,-2.6179,-2.7759,-2.8155,-2.9156,-3.0598,-3.0598,-3.0625,-3.0679,-3.0679,-3.0757,-3.0855,-3.0897,-3.0898,-3.0898,-3.0898,-3.0898,-3.0898,-3.0898,-3.1445,-3.2226,-2.419,-2.419,-2.419,-2.419,-2.419,-2.419,-2.419,-2.4493,-2.485,-2.5253,-2.5303,-2.5303,-2.5303,-2.5303,-2.5303,-2.5303,-2.5303,-2.5303,-2.5303,-2.5303,-2.5322,-2.5341,-2.5322,-2.5322,-2.5341,-2.5322,-2.5303,-2.5303,-2.5303,-2.5303,-2.5303,-2.5303,-2.5303,-2.5303,-2.5303,-2.5303,-2.5303,-2.5303,-2.5341,-2.5409,-2.537,-2.539,-2.5447,-2.537,-2.539,-2.5447,-2.5409,-2.5466,-2.5544,-2.5557,-2.5556,-2.5558,-2.5575,-2.5578,-2.5556,-2.5573,-2.5546,-2.5488,-2.5488,-2.5511,-2.5553,-2.5542,-2.5511,-2.5447,-2.537,-2.5341,-2.5341,-2.5303,-2.5303,-2.5303,-2.5303,-2.5303,-2.5303,-2.5303,-2.5303,-2.5303,-2.5341,-2.5341,-2.5341,-2.5341,-2.5341,-2.5341,-2.5341,-2.5341,-2.5197,-2.4822,-2.5208,-2.5263,-2.4825,-2.5243,-2.5466,-2.5409,-2.5401,-2.5421,-2.5505,-2.5459,-2.6152,-2.7547,-2.7555,-2.8454,-3.0141,-3.0141,-3.0384,-3.0795,-3.0795,-3.0825,-3.0898,-3.0898,-3.0898,-3.0898,-3.0898,-3.0898,-3.0898,-3.0898,-3.1191,-3.166,-2.419,-2.419,-2.419,-2.419,-2.419,-2.419,-2.419,-2.4823,-2.5303,-2.5303,-2.5303,-2.5303,-2.5303,-2.5303,-2.5303,-2.5303,-2.5303,-2.5303,-2.5303,-2.5303,-2.5303,-2.5303,-2.5303,-2.5303,-2.5303,-2.5303,-2.5303,-2.5303,-2.5303,-2.5303,-2.5303,-2.5303,-2.5303,-2.5303,-2.5303,-2.5303,-2.5303,-2.5303,-2.5322,-2.539,-2.539,-2.539,-2.5409,-2.5409,-2.5409,-2.5428,-2.5428,-2.5514,-2.5614,-2.5614,-2.5615,-2.5621,-2.568,-2.5667,-2.5619,-2.5673,-2.5617,-2.5539,-2.5539,-2.557,-2.5608,-2.5517,-2.5422,-2.5322,-2.5303,-2.5303,-2.5303,-2.5303,-2.5303,-2.5303,-2.5303,-2.5303,-2.5322,-2.5322,-2.5322,-2.5341,-2.5409,-2.5418,-2.5427,-2.5427,-2.5409,-2.5428,-2.5428,-2.5418,-2.5447,-2.5505,-2.551,-2.5526,-2.5527,-2.5522,-2.5505,-2.5428,-2.5486,-2.5493,-2.5505,-2.5537,-2.5993,-2.6915,-2.6915,-2.7779,-2.9414,-2.9531,-3.0,-3.0703,-3.084,-3.0898,-3.0898,-3.0898,-3.0898,-3.0898,-3.0898,-3.0898,-3.0898,-3.0898,-3.0898,-3.1016,-2.419,-2.419,-2.419,-2.419,-2.419,-2.419,-2.419,-2.4823,-2.5303,-2.5303,-2.5303,-2.5303,-2.5303,-2.5303,-2.5303,-2.5303,-2.5303,-2.5303,-2.5303,-2.5303,-2.5303,-2.5303,-2.5303,-2.5303,-2.5303,-2.5303,-2.5303,-2.5303,-2.5303,-2.5303,-2.5303,-2.5303,-2.5303,-2.5303,-2.5303,-2.5303,-2.5303,-2.5303,-2.5303,-2.5322,-2.5322,-2.5341,-2.5409,-2.5409,-2.5466,-2.5563,-2.5563,-2.5622,-2.5675,-2.5675,-2.5681,-2.5683,-2.5697,-2.5682,-2.5693,-2.5696,-2.5681,-2.5662,-2.5662,-2.5679,-2.5654,-2.553,-2.5476,-2.5447,-2.5322,-2.5303,-2.5303,-2.5303,-2.5303,-2.5303,-2.5303,-2.5341,-2.539,-2.539,-2.5428,-2.5466,-2.5486,-2.5483,-2.5477,-2.5477,-2.5476,-2.5486,-2.5486,-2.549,-2.5518,-2.5582,-2.5582,-2.5569,-2.5581,-2.5638,-2.564,-2.5563,-2.5525,-2.5531,-2.5582,-2.5644,-2.6109,-2.6983,-2.6983,-2.7515,-2.8535,-2.9258,-2.9668,-2.9844,-3.0586,-3.0898,-3.0898,-3.0898,-3.0898,-3.0898,-3.0898,-3.0898,-3.0898,-3.0898,-3.0898,-3.0918,-2.419,-2.419,-2.419,-2.419,-2.419,-2.419,-2.419,-2.4823,-2.5303,-2.5303,-2.5303,-2.5303,-2.5303,-2.5303,-2.5233,-2.5056,-2.5072,-2.5072,-2.5024,-2.5212,-2.5303,-2.5303,-2.5303,-2.5303,-2.5303,-2.5303,-2.5303,-2.5303,-2.5303,-2.5303,-2.5303,-2.5303,-2.5303,-2.5303,-2.5303,-2.5303,-2.5303,-2.5303,-2.5303,-2.5303,-2.5303,-2.5341,-2.5409,-2.5409,-2.5486,-2.5601,-2.5601,-2.5632,-2.5703,-2.5703,-2.5703,-2.5703,-2.5703,-2.5705,-2.5699,-2.57,-2.5703,-2.5703,-2.5703,-2.5664,-2.562,-2.5517,-2.547,-2.5428,-2.5322,-2.5303,-2.5303,-2.5303,-2.5322,-2.5341,-2.5341,-2.5409,-2.5456,-2.5456,-2.5478,-2.5519,-2.5544,-2.5548,-2.5544,-2.5556,-2.5554,-2.5556,-2.5553,-2.5548,-2.5576,-2.5654,-2.5619,-2.5597,-2.5606,-2.5605,-2.557,-2.5551,-2.5588,-2.5629,-2.5658,-2.5675,-2.5898,-2.6309,-2.6309,-2.6758,-2.7617,-2.8027,-2.8457,-2.8945,-2.9824,-3.0174,-3.0185,-3.0693,-3.0859,-3.0801,-3.0879,-3.0898,-3.0898,-3.0898,-3.0898,-3.0898,-2.419,-2.419,-2.419,-2.419,-2.419,-2.419,-2.419,-2.4823,-2.5303,-2.5303,-2.5303,-2.5303,-2.5303,-2.5149,-2.4975,-2.4818,-2.4823,-2.4823,-2.4804,-2.5043,-2.5171,-2.5171,-2.5203,-2.5253,-2.5303,-2.5303,-2.5303,-2.5303,-2.5303,-2.5303,-2.5303,-2.5303,-2.5303,-2.5303,-2.5303,-2.5303,-2.5303,-2.5303,-2.5303,-2.5303,-2.5303,-2.5322,-2.537,-2.5389,-2.5465,-2.5562,-2.5569,-2.5625,-2.5684,-2.5684,-2.5684,-2.5703,-2.5703,-2.5703,-2.5703,-2.5703,-2.5703,-2.5703,-2.5703,-2.5664,-2.5604,-2.5548,-2.5473,-2.5409,-2.5341,-2.5322,-2.5322,-2.5322,-2.539,-2.5428,-2.5425,-2.5485,-2.5513,-2.5518,-2.5537,-2.5556,-2.5614,-2.5631,-2.5613,-2.5623,-2.5618,-2.5605,-2.5591,-2.5595,-2.5609,-2.5642,-2.5607,-2.559,-2.5592,-2.5541,-2.5517,-2.5517,-2.5627,-2.5684,-2.5703,-2.5703,-2.5703,-2.5703,-2.5703,-2.6055,-2.6699,-2.6914,-2.7361,-2.8028,-2.8906,-2.9367,-2.9552,-3.0282,-3.0636,-3.0762,-3.0859,-3.0898,-3.0898,-3.0898,-3.0898,-3.0898,-2.419,-2.419,-2.419,-2.419,-2.419,-2.419,-2.419,-2.4823,-2.5303,-2.5303,-2.5303,-2.5303,-2.5303,-2.4678,-2.4409,-2.4775,-2.4685,-2.467,-2.479,-2.4832,-2.4847,-2.4847,-2.4968,-2.5111,-2.5303,-2.5303,-2.5303,-2.5303,-2.5303,-2.5303,-2.5303,-2.5303,-2.5303,-2.5303,-2.5303,-2.5303,-2.5303,-2.5303,-2.5303,-2.5303,-2.5303,-2.5303,-2.5303,-2.5391,-2.5415,-2.5421,-2.5496,-2.5551,-2.5605,-2.5605,-2.5644,-2.5703,-2.5703,-2.5703,-2.5703,-2.5703,-2.5703,-2.5703,-2.5703,-2.5703,-2.5684,-2.5605,-2.5537,-2.5486,-2.5409,-2.539,-2.539,-2.539,-2.5447,-2.5502,-2.549,-2.5557,-2.5592,-2.5592,-2.5648,-2.5683,-2.5681,-2.5681,-2.5683,-2.5684,-2.5643,-2.5599,-2.5605,-2.5535,-2.5504,-2.5507,-2.5508,-2.5506,-2.5515,-2.5505,-2.5534,-2.5592,-2.56,-2.5644,-2.5703,-2.5703,-2.5703,-2.5703,-2.5703,-2.5723,-2.582,-2.6621,-2.7007,-2.7045,-2.7913,-2.876,-2.9505,-2.9566,-3.0102,-3.0898,-3.0898,-3.0898,-3.0898,-3.0898,-3.0898,-3.0898,-2.419,-2.419,-2.419,-2.419,-2.419,-2.419,-2.419,-2.4823,-2.5303,-2.5303,-2.4904,-2.462,-2.462,-2.4375,-2.4247,-2.4409,-2.4375,-2.4428,-2.4591,-2.4607,-2.4712,-2.4898,-2.5077,-2.5163,-2.513,-2.5111,-2.5065,-2.4994,-2.4994,-2.4994,-2.4987,-2.5084,-2.5111,-2.5111,-2.5234,-2.5303,-2.5303,-2.5303,-2.5303,-2.5303,-2.5303,-2.5322,-2.5351,-2.5397,-2.5423,-2.5462,-2.5495,-2.5517,-2.5549,-2.5531,-2.5574,-2.5644,-2.5644,-2.5664,-2.5703,-2.5703,-2.5703,-2.5703,-2.5703,-2.5703,-2.5684,-2.5625,-2.5572,-2.5532,-2.5474,-2.5466,-2.5456,-2.5452,-2.5517,-2.5553,-2.5572,-2.5613,-2.5668,-2.5668,-2.5673,-2.5703,-2.5703,-2.5703,-2.5703,-2.5703,-2.5683,-2.5643,-2.5592,-2.5569,-2.5542,-2.5503,-2.5464,-2.5451,-2.5428,-2.5447,-2.5466,-2.5543,-2.558,-2.5632,-2.5703,-2.5703,-2.5703,-2.5703,-2.5703,-2.5703,-2.5703,-2.6035,-2.6158,-2.614,-2.7046,-2.7591,-2.7926,-2.9085,-2.9755,-3.0095,-3.0671,-3.0898,-3.0898,-3.0898,-3.0898,-3.0898,-2.419,-2.419,-2.419,-2.419,-2.419,-2.419,-2.419,-2.4636,-2.4943,-2.4943,-2.4508,-2.419,-2.419,-2.419,-2.419,-2.419,-2.419,-2.4284,-2.4495,-2.4561,-2.4697,-2.4943,-2.5072,-2.5072,-2.4937,-2.4943,-2.4891,-2.4804,-2.4804,-2.4804,-2.4804,-2.4943,-2.501,-2.501,-2.5214,-2.5303,-2.5303,-2.5303,-2.5303,-2.5303,-2.5303,-2.5283,-2.5271,-2.5271,-2.5278,-2.5283,-2.5283,-2.5275,-2.5282,-2.534,-2.543,-2.5492,-2.5553,-2.5602,-2.5664,-2.5684,-2.5703,-2.5703,-2.5703,-2.5703,-2.5684,-2.5644,-2.5625,-2.5599,-2.5529,-2.5537,-2.5533,-2.5531,-2.5583,-2.5635,-2.5635,-2.5665,-2.5703,-2.5703,-2.5703,-2.5703,-2.5703,-2.5703,-2.5703,-2.5703,-2.5684,-2.5644,-2.5577,-2.5552,-2.5505,-2.5447,-2.5409,-2.5409,-2.5428,-2.5428,-2.5466,-2.5524,-2.5582,-2.5641,-2.5703,-2.5703,-2.5703,-2.5703,-2.5703,-2.5703,-2.5703,-2.5703,-2.5659,-2.5647,-2.6283,-2.666,-2.6959,-2.8515,-2.9304,-2.9625,-3.053,-3.0898,-3.0898,-3.0898,-3.0898,-3.0898,-2.419,-2.419,-2.419,-2.419,-2.419,-2.419,-2.419,-2.419,-2.419,-2.419,-2.4208,-2.419,-2.419,-2.4208,-2.4208,-2.4208,-2.419,-2.4284,-2.4495,-2.4685,-2.4804,-2.4804,-2.4804,-2.4804,-2.4804,-2.4804,-2.4804,-2.479,-2.479,-2.479,-2.4804,-2.4924,-2.4998,-2.4991,-2.5214,-2.5303,-2.5303,-2.5303,-2.5303,-2.5303,-2.5303,-2.5173,-2.501,-2.501,-2.4917,-2.4804,-2.4804,-2.4799,-2.4835,-2.503,-2.5149,-2.5235,-2.5446,-2.5559,-2.5605,-2.5684,-2.5703,-2.5703,-2.5703,-2.5703,-2.5703,-2.5703,-2.5644,-2.5605,-2.5605,-2.56,-2.5611,-2.5611,-2.5658,-2.5703,-2.5703,-2.5703,-2.5703,-2.5703,-2.5703,-2.5703,-2.5703,-2.5703,-2.5703,-2.5703,-2.5644,-2.558,-2.5503,-2.5453,-2.537,-2.5303,-2.537,-2.5428,-2.5505,-2.5505,-2.5524,-2.5601,-2.5601,-2.5635,-2.5703,-2.5703,-2.5703,-2.5703,-2.5703,-2.5703,-2.5703,-2.5703,-2.5664,-2.5605,-2.5608,-2.6083,-2.6949,-2.7827,-2.874,-2.9687,-3.0547,-3.0898,-3.0898,-3.0898,-3.0898,-3.0898,-2.4034,-2.419,-2.419,-2.419,-2.419,-2.419,-2.419,-2.419,-2.419,-2.419,-2.3917,-2.3714,-2.3714,-2.3795,-2.3837,-2.3837,-2.4074,-2.4284,-2.4495,-2.4685,-2.4746,-2.461,-2.4731,-2.4731,-2.4591,-2.4575,-2.4528,-2.4375,-2.4375,-2.4375,-2.4375,-2.4556,-2.4651,-2.4648,-2.4949,-2.503,-2.4949,-2.5212,-2.516,-2.4949,-2.5053,-2.4993,-2.4869,-2.4869,-2.4828,-2.4804,-2.4804,-2.4864,-2.4948,-2.5008,-2.5173,-2.5361,-2.5473,-2.5541,-2.5605,-2.5625,-2.5664,-2.5703,-2.5703,-2.5703,-2.5703,-2.5703,-2.5684,-2.5664,-2.5664,-2.5675,-2.5668,-2.5668,-2.5696,-2.5703,-2.5703,-2.5703,-2.5703,-2.5703,-2.5703,-2.5703,-2.5703,-2.5703,-2.5703,-2.5703,-2.5684,-2.5644,-2.5577,-2.5552,-2.5505,-2.5447,-2.5461,-2.548,-2.5499,-2.5539,-2.5582,-2.5601,-2.564,-2.5657,-2.5628,-2.5681,-2.5681,-2.5628,-2.5683,-2.5684,-2.5625,-2.5684,-2.5664,-2.5605,-2.5646,-2.5793,-2.6063,-2.6977,-2.7879,-2.8769,-2.9648,-3.0351,-3.0898,-3.0898,-3.0898,-3.0898,-2.3307,-2.3834,-2.419,-2.419,-2.419,-2.419,-2.419,-2.419,-2.419,-2.419,-2.3795,-2.3522,-2.3566,-2.3649,-2.3692,-2.3692,-2.4077,-2.4375,-2.4495,-2.4489,-2.4418,-2.4318,-2.421,-2.4228,-2.4375,-2.4375,-2.4321,-2.419,-2.419,-2.419,-2.419,-2.441,-2.4495,-2.4512,-2.4795,-2.4883,-2.4818,-2.5019,-2.4994,-2.4804,-2.4891,-2.4823,-2.4685,-2.4685,-2.4623,-2.4559,-2.4654,-2.4723,-2.4818,-2.4962,-2.516,-2.539,-2.5466,-2.5536,-2.5577,-2.5623,-2.5664,-2.5703,-2.5703,-2.5703,-2.5703,-2.5703,-2.5703,-2.5703,-2.5703,-2.5703,-2.5703,-2.5703,-2.5703,-2.5703,-2.5703,-2.5703,-2.5703,-2.5703,-2.5703,-2.5703,-2.5703,-2.5703,-2.5703,-2.5703,-2.5703,-2.5673,-2.5618,-2.5594,-2.5575,-2.5534,-2.5542,-2.5554,-2.5587,-2.5625,-2.564,-2.564,-2.5644,-2.564,-2.5601,-2.5601,-2.559,-2.555,-2.5634,-2.5637,-2.5605,-2.5664,-2.5684,-2.5644,-2.5684,-2.5683,-2.571,-2.661,-2.7305,-2.791,-2.9121,-2.9922,-3.043,-3.0762,-3.0905,-3.0882,-2.246,-2.3399,-2.419,-2.419,-2.419,-2.419,-2.419,-2.419,-2.419,-2.4151,-2.3753,-2.3522,-2.3588,-2.361,-2.361,-2.3649,-2.4155,-2.4461,-2.4425,-2.4155,-2.3949,-2.393,-2.345,-2.35,-2.4151,-2.4151,-2.4151,-2.4151,-2.419,-2.419,-2.419,-2.4393,-2.4478,-2.4478,-2.4685,-2.476,-2.4746,-2.479,-2.4775,-2.4746,-2.476,-2.4654,-2.4478,-2.4495,-2.4393,-2.4247,-2.4444,-2.4526,-2.4588,-2.4924,-2.5152,-2.5322,-2.5447,-2.5505,-2.553,-2.5654,-2.5702,-2.5703,-2.5703,-2.5703,-2.5703,-2.5703,-2.5703,-2.5703,-2.5703,-2.5703,-2.5703,-2.5703,-2.5703,-2.5703,-2.5703,-2.5703,-2.5703,-2.5703,-2.5703,-2.5703,-2.5703,-2.5703,-2.5703,-2.5703,-2.5703,-2.5684,-2.5605,-2.5615,-2.5613,-2.5608,-2.5609,-2.5635,-2.5703,-2.5703,-2.5703,-2.5703,-2.5635,-2.5601,-2.5601,-2.5543,-2.5498,-2.5493,-2.5575,-2.5609,-2.5585,-2.5664,-2.5703,-2.5703,-2.5703,-2.5703,-2.5762,-2.6562,-2.6934,-2.7168,-2.875,-2.9452,-2.9703,-3.0485,-3.0812,-3.0864,-2.358,-2.4014,-2.419,-2.419,-2.419,-2.419,-2.419,-2.419,-2.4074,-2.3692,-2.3414,-2.3165,-2.2947,-2.2923,-2.3021,-2.33,-2.3881,-2.4153,-2.3901,-2.3801,-2.3656,-2.3361,-2.3259,-2.3392,-2.3795,-2.3816,-2.3816,-2.3816,-2.4074,-2.419,-2.419,-2.4247,-2.4284,-2.4266,-2.4478,-2.4478,-2.4339,-2.467,-2.4607,-2.4339,-2.4512,-2.4444,-2.4284,-2.4426,-2.4478,-2.4461,-2.4654,-2.4795,-2.4924,-2.5152,-2.5302,-2.539,-2.5409,-2.5486,-2.5582,-2.5611,-2.5656,-2.5703,-2.5703,-2.5703,-2.5703,-2.5703,-2.5703,-2.5703,-2.5703,-2.5703,-2.5703,-2.5703,-2.5703,-2.5703,-2.5703,-2.5703,-2.5703,-2.5703,-2.5703,-2.5703,-2.5703,-2.5703,-2.5703,-2.5703,-2.5703,-2.5684,-2.5684,-2.5682,-2.5676,-2.5685,-2.5685,-2.5675,-2.5703,-2.5703,-2.5703,-2.5703,-2.5693,-2.564,-2.5601,-2.5582,-2.5534,-2.5425,-2.5534,-2.5577,-2.5531,-2.5659,-2.5703,-2.5703,-2.5703,-2.5703,-2.5703,-2.5898,-2.6387,-2.7031,-2.7422,-2.8404,-2.9621,-2.9757,-3.02,-3.0737,-2.3955,-2.419,-2.419,-2.419,-2.419,-2.419,-2.419,-2.4016,-2.3795,-2.3628,-2.323,-2.2898,-2.2755,-2.2712,-2.2898,-2.3392,-2.3896,-2.4074,-2.3714,-2.3544,-2.3323,-2.2972,-2.2972,-2.3045,-2.3212,-2.3544,-2.3774,-2.3937,-2.4113,-2.419,-2.419,-2.419,-2.419,-2.419,-2.4321,-2.4303,-2.4209,-2.4409,-2.4393,-2.4209,-2.4428,-2.4445,-2.4357,-2.4578,-2.4639,-2.467,-2.4823,-2.5005,-2.5163,-2.5264,-2.5341,-2.5409,-2.5445,-2.552,-2.561,-2.5634,-2.5673,-2.5703,-2.5703,-2.5703,-2.5703,-2.5703,-2.5703,-2.5703,-2.5703,-2.5703,-2.5703,-2.5703,-2.5703,-2.5703,-2.5703,-2.5703,-2.5703,-2.5703,-2.5703,-2.5703,-2.5703,-2.5703,-2.5703,-2.5703,-2.5703,-2.5703,-2.5703,-2.5703,-2.5703,-2.5703,-2.5703,-2.5703,-2.5703,-2.5703,-2.5703,-2.5703,-2.5678,-2.5641,-2.5601,-2.5564,-2.5515,-2.5456,-2.5542,-2.558,-2.5563,-2.5644,-2.5703,-2.5703,-2.5703,-2.5703,-2.5703,-2.5703,-2.5977,-2.6425,-2.6809,-2.7516,-2.8412,-2.9178,-2.995,-3.066,-2.3685,-2.4054,-2.417,-2.4094,-2.4151,-2.417,-2.4113,-2.3795,-2.3544,-2.3522,-2.3045,-2.2686,-2.2712,-2.2755,-2.2996,-2.35,-2.3937,-2.4036,-2.3649,-2.3346,-2.3069,-2.2797,-2.2721,-2.2746,-2.2873,-2.3414,-2.3837,-2.4113,-2.417,-2.419,-2.419,-2.419,-2.419,-2.419,-2.419,-2.419,-2.419,-2.4247,-2.4266,-2.4266,-2.4461,-2.4543,-2.4559,-2.4756,-2.4828,-2.4855,-2.5005,-2.5163,-2.5303,-2.5303,-2.5341,-2.5428,-2.5485,-2.5557,-2.5633,-2.5673,-2.5703,-2.5703,-2.5703,-2.5703,-2.5703,-2.5703,-2.5703,-2.5703,-2.5703,-2.5703,-2.5703,-2.5703,-2.5703,-2.5703,-2.5703,-2.5703,-2.5703,-2.5703,-2.5703,-2.5703,-2.5703,-2.5703,-2.5703,-2.5703,-2.5703,-2.5703,-2.5703,-2.5703,-2.5703,-2.5703,-2.5703,-2.5703,-2.5703,-2.5703,-2.5703,-2.5703,-2.5644,-2.5618,-2.5611,-2.5562,-2.5532,-2.5527,-2.5584,-2.5601,-2.5601,-2.5665,-2.5703,-2.5703,-2.5703,-2.5703,-2.5703,-2.5703,-2.5682,-2.5742,-2.6424,-2.6757,-2.7085,-2.8783,-2.99,-3.0583,-2.2525,-2.3445,-2.4074,-2.3671,-2.3917,-2.4094,-2.3816,-2.3714,-2.3459,-2.2923,-2.2772,-2.2625,-2.2388,-2.2849,-2.3045,-2.2848,-2.3671,-2.3937,-2.3323,-2.323,-2.3165,-2.3141,-2.2848,-2.2972,-2.3544,-2.3649,-2.3714,-2.3774,-2.4074,-2.419,-2.419,-2.419,-2.419,-2.419,-2.419,-2.419,-2.4209,-2.4393,-2.4461,-2.4478,-2.4685,-2.476,-2.479,-2.493,-2.4974,-2.4998,-2.5192,-2.5274,-2.5303,-2.5303,-2.539,-2.5495,-2.5504,-2.5584,-2.5698,-2.5703,-2.5703,-2.5703,-2.5703,-2.5703,-2.5703,-2.5703,-2.5703,-2.5703,-2.5703,-2.5703,-2.5703,-2.5703,-2.5703,-2.5703,-2.5703,-2.5703,-2.5703,-2.5703,-2.5703,-2.5703,-2.5703,-2.5703,-2.5703,-2.5703,-2.5703,-2.5703,-2.5703,-2.5703,-2.5703,-2.5703,-2.5703,-2.5703,-2.5703,-2.5703,-2.5703,-2.5703,-2.5684,-2.5683,-2.5696,-2.5687,-2.5668,-2.5664,-2.568,-2.5659,-2.5601,-2.5665,-2.5703,-2.5703,-2.5703,-2.5703,-2.5703,-2.5703,-2.5678,-2.5616,-2.5726,-2.6198,-2.7026,-2.8762,-2.9869,-3.0525,-2.231,-2.3122,-2.3735,-2.3544,-2.3896,-2.4094,-2.3735,-2.3544,-2.3253,-2.2772,-2.2563,-2.2426,-2.2293,-2.2669,-2.2947,-2.2972,-2.3392,-2.3522,-2.3212,-2.3189,-2.3117,-2.2923,-2.3141,-2.3392,-2.3692,-2.3896,-2.3976,-2.3976,-2.4132,-2.419,-2.419,-2.419,-2.419,-2.419,-2.419,-2.4247,-2.4375,-2.4461,-2.4559,-2.4685,-2.485,-2.4917,-2.493,-2.5088,-2.5163,-2.5173,-2.5264,-2.5303,-2.5303,-2.5341,-2.5428,-2.5505,-2.5534,-2.5613,-2.5703,-2.5703,-2.5703,-2.5703,-2.5703,-2.5703,-2.5703,-2.5703,-2.5703,-2.5703,-2.5703,-2.5703,-2.5703,-2.5703,-2.5703,-2.5703,-2.5703,-2.5703,-2.5703,-2.5703,-2.5703,-2.5703,-2.5703,-2.5703,-2.5703,-2.5703,-2.5703,-2.5703,-2.5703,-2.5703,-2.5703,-2.5703,-2.5703,-2.5703,-2.5703,-2.5652,-2.5638,-2.5638,-2.5609,-2.5595,-2.5595,-2.5624,-2.5646,-2.5646,-2.5687,-2.5687,-2.5667,-2.5696,-2.5703,-2.5703,-2.566,-2.5638,-2.5643,-2.5597,-2.5565,-2.5549,-2.5504,-2.5976,-2.6795,-2.7593,-2.8743,-2.9909]}]]